     2              OBSERVATION DATA    GPS                 RINEX VERSION / TYPE
srx-v1.5-(11/13/93) SEISMO 11-MAR-1994                      PGM / RUN BY / DATE
                                                            COMMENT
sig: 9 8 7 6 5 4 1 0                                        COMMENT
sig: 9 8 7 6 5 4 1 0                                        COMMENT
sig: 9 8 7 6 5 4 1 0                                        COMMENT
Original Marker Name: RCAG                                  COMMENT
Campaign Name: jpl 1993-1997                                COMMENT
4-Character Station Name: RCAG                              COMMENT
6-Character Antenna Code: DMRCHT                            COMMENT
Vertical Measurement Point: BCR                             COMMENT
Vertical Offset to Rinex Ref. Point: 0.0349                 COMMENT
Radial Measurement Point: ECF                               COMMENT
Radial Offset to Rinex Ref. Point: 0.1896                   COMMENT
Antenna Height from Field Measurement: 0.9303 m             COMMENT
Additional Antenna Identification Info.:                    COMMENT
Turborogue and Ashtech Choke Ring                           COMMENT
Original XYZ: -2609157.5494 -4570689.5899 3592891.4469      COMMENT
New XYZ position is based on association with SCEC monument COMMENT
E1E9D0Z4+0011. Position of that monument is believed to be  COMMENT
valid to within 1 m horizontally; vertical accuracy         COMMENT
should be no worse than 3-times this value.                 COMMENT
                                                            COMMENT
Revised Rinex header created by UCSD GPS archive for        COMMENT
GSAC on 14-Apr-1999 (1999:104) 19:31:26 GMT                 COMMENT
For assistance contact dagnew@ucsd.edu or hjohnson@ucsd.edu COMMENT
                                                            COMMENT
RCAG 1993                                                   MARKER NAME
RCAG                                                        MARKER NUMBER
GWF JET PROPULSION LABORATORY                               OBSERVER / AGENCY
117 TURBOROGUE SNR-8000 A                                   REC # / TYPE / VERS
117 DORNE-MARGOL. TYPE T                                    ANT # / TYPE
 -2609191.0000 -4570718.0000  3592953.0000                  APPROX POSITION XYZ
        0.8759        0.0000        0.0000                  ANTENNA: DELTA H/E/N
     1     1     0                                          WAVELENGTH FACT L1/2
     5    L1    L2    P1    P2    C1                        # / TYPES OF OBSERV
    30                                                      INTERVAL
  1994     2    20     0     0    0.000000                  TIME OF FIRST OBS
  1994     2    20    23    59   30.000000                  TIME OF LAST OBS
    24                                                      # OF SATELLITES
                                                            END OF HEADER
 94 02 20 00 00 00.0000000  0  7 02 07 15 16 19 27 31
 -12306622.42149  -9589559.76048         0.00041  20878951.29848  20878949.18749
 -21116631.12749 -16454476.17348         0.00041  21319264.30048  21319261.77849
  -5842868.38848  -4552875.35244         0.00041  24213646.37944  24213647.18148
    256012.48748    199490.02844         0.00041  25076251.29944  25076241.63748
 -15782146.63048 -12297756.34746         0.00041  22194106.01446  22194103.22648
 -26889160.54049 -20952569.24548         0.00041  20442142.63448  20442141.04749
  14159830.32248  11033635.66344         0.00041  25152878.22144  25152882.30748
 94 02 20 00 00 30.0000000  0  7 02 07 15 16 19 27 31
 -12313481.70149  -9594904.63648         0.00041  20877646.02448  20877643.98249
 -21186568.38049 -16508972.68048         0.00041  21305955.52448  21305953.03149
  -5886529.87248  -4586897.21244         0.00041  24205339.88244  24205339.45048
    320256.56448    249550.27044         0.00041  25088472.57844  25088467.57148
 -15716212.32348 -12246379.00646         0.00041  22206653.43946  22206650.31348
 -26859754.02849 -20929655.07548         0.00041  20447738.45748  20447736.73549
  14267230.34248  11117323.73944         0.00041  25173323.95344  25173319.92448
 94 02 20 00 01 00.0000000  0  7 02 07 15 16 19 27 31
 -12320097.42249  -9600059.72648         0.00041  20876387.06348  20876384.87449
 -21256069.37749 -16563129.25648         0.00041  21292729.82048  21292727.26149
  -5929771.44948  -4620591.83844         0.00041  24197114.34844  24197109.74448
    384647.63948    299725.00845         0.00041  25100726.43145  25100720.50448
 -15649972.71248 -12194763.74046         0.00041  22219258.10546  22219255.30848
 -26829914.37749 -20906403.39348         0.00041  20453416.60848  20453415.15449
  14374749.13348  11201104.82344         0.00041  25193790.29944  25193779.51248
 94 02 20 00 01 30.0000000  0  7 02 07 15 16 19 27 31
 -12326434.91149  -9604998.01148         0.00041  20875181.05648  20875178.92449
 -21325090.50449 -16616911.90448         0.00041  21279595.55948  21279593.01049
  -5972578.65748  -4653948.12944         0.00041  24188967.42944  24188964.86348
    449211.87448    350034.77844         0.00041  25113009.54944  25113006.96248
 -15583420.34948 -12142904.77946         0.00041  22231922.82646  22231919.65848
 -26799633.76349 -20882808.10348         0.00041  20459178.78148  20459177.34849
  14482402.25748  11284990.48844         0.00041  25214271.19544  25214264.94648
 94 02 20 00 02 00.0000000  0  7 02 07 15 16 19 27 31
 -12332495.30349  -9609720.37448         0.00041  20874027.57948  20874025.51349
 -21393641.31249 -16670328.07648         0.00041  21266550.64548  21266548.25249
  -6014969.42948  -4686979.90044         0.00041  24180906.39644  24180896.40148
    513934.58948    400467.96645         0.00041  25125327.53745  25125323.64048
 -15516573.94348 -12090816.69446         0.00041  22244642.76546  22244640.17948
 -26768930.10049 -20858883.16548         0.00041  20465021.47448  20465020.09949
  14590164.90748  11368961.37644         0.00041  25234774.00944  25234772.33948
 94 02 20 00 02 30.0000000  0  7 02 07 15 16 19 27 31
 -12338318.24649  -9614257.71148         0.00041  20872919.52848  20872917.47349
 -21461767.77449 -16723413.58848         0.00041  21253586.64748  21253584.16449
  -6056982.53648  -4719717.24845         0.00041  24172906.08445  24172903.04148
    578757.47348    450979.18245         0.00041  25137664.83745  25137657.75348
 -15449469.45748 -12038527.50146         0.00041  22257412.60846  22257409.85748
 -26737840.22649 -20834657.27948         0.00041  20470937.85948  20470936.34049
  14698006.88948  11452994.07544         0.00041  25255293.19344  25255295.03848
 94 02 20 00 03 00.0000000  0  7 02 07 15 16 19 27 31
 -12343915.77249  -9618619.39848         0.00041  20871854.37648  20871852.01449
 -21529477.34049 -16776174.24648         0.00041  21240702.08848  21240699.55049
  -6098616.44048  -4752159.22645         0.00041  24164985.01545  24164979.71548
    643659.59748    501552.20445         0.00041  25150015.85945  25150010.00848
 -15382113.76448 -11986042.57246         0.00041  22270229.74946  22270227.33948
 -26706362.96649 -20810129.53648         0.00041  20476927.87448  20476926.44449
  14805943.14748  11537100.32944         0.00041  25275832.14844  25275834.85248
 94 02 20 00 03 30.0000000  0  7 02 07 15 16 19 27 31
 -12349310.17949  -9622822.80748         0.00041  20870827.84548  20870825.72949
 -21596791.90749 -16828627.11448         0.00041  21227892.44448  21227889.97749
  -6139875.66048  -4784309.20045         0.00041  24157130.88145  24157128.57148
    708612.65748    552164.95544         0.00041  25162377.48144  25162369.80648
 -15314514.17848 -11933367.60346         0.00041  22283094.34946  22283091.27848
 -26674508.46049 -20785307.83448         0.00041  20482989.48348  20482987.77849
  14913970.14648  11621277.31144         0.00041  25296393.75644  25296391.48748
 94 02 20 00 04 00.0000000  0  7 02 07 15 16 19 27 31
 -12354521.36949  -9626883.44848         0.00041  20869836.05248  20869834.00749
 -21663717.29249 -16880776.72448         0.00041  21215156.69748  21215154.44049
  -6180740.86848  -4816152.20845         0.00041  24149357.28045  24149352.18148
    773614.85048    602815.90044         0.00041  25174745.22844  25174738.10248
 -15246658.06948 -11880492.74846         0.00041  22296006.52546  22296004.07448
 -26642267.56749 -20760185.05648         0.00041  20489124.54248  20489123.22249
  15022102.65248  11705536.40244         0.00041  25316964.59444  25316967.69448
 94 02 20 00 04 30.0000000  0  6 02 07 15 19 27 31
 -12359560.61949  -9630810.11148         0.00041  20868877.27648  20868875.20349
 -21730236.60049 -16932609.91248         0.00041  21202498.54148  21202496.29949
  -6221198.42048  -4847677.53245         0.00041  24141656.29245  24141652.83248
 -15178547.25948 -11827419.42046         0.00041  22308967.68946  22308964.96948
 -26609632.30449 -20734754.97548         0.00041  20495334.91748  20495333.39949
  15130360.75148  11789893.45544         0.00041  25337569.60844  25337568.10648
 94 02 20 00 05 00.0000000  0  6 02 07 15 19 27 31
 -12364614.75049  -9634748.37048         0.00041  20867915.52648  20867913.44849
 -21796530.21149 -16984267.23148         0.00041  21189883.28248  21189880.89849
  -6261439.90748  -4879034.43545         0.00041  24133999.14345  24133995.45248
 -15110379.63148 -11774301.82646         0.00041  22321939.69146  22321936.87848
 -26576800.63749 -20709171.85548         0.00041  20501582.62248  20501581.12349
  15238524.02648  11874176.57644         0.00041  25358152.16044  25358150.79248
 94 02 20 00 05 30.0000000  0  6 02 07 15 19 27 31
 -12369723.17949  -9638728.94148         0.00041  20866943.47648  20866941.46449
 -21862621.14249 -17035766.61448         0.00041  21177306.84348  21177304.00549
  -6301500.92348  -4910250.80145         0.00041  24126374.12445  24126372.10048
 -15042184.04048 -11721162.43346         0.00041  22334916.92846  22334914.00548
 -26543813.96949 -20683467.95948         0.00041  20507859.64348  20507858.17449
  15346530.42148  11958337.45844         0.00041  25378708.06444  25378703.76848
 94 02 20 00 06 00.0000000  0  7 02 07 13 15 19 27 31
 -12374341.78249  -9642327.83148         0.00041  20866064.47348  20866062.41049
 -21927961.79249 -17086681.36048         0.00041  21164872.73548  21164870.18749
         0.06317        -0.20017  25336318.11117  25336326.91217         0.00011
  -6340832.49048  -4940898.68345         0.00041  24118892.17045  24118887.33248
 -14973401.76548 -11667565.89546         0.00041  22348005.65646  22348002.60248
 -26510119.74849 -20657212.72448         0.00041  20514271.50548  20514270.06749
  15454931.51448  12042805.89844         0.00041  25399338.01444  25399332.03448
 94 02 20 00 06 30.0000000  0  7 02 07 13 15 19 27 31
 -12378605.90649  -9645650.50348         0.00041  20865252.97448  20865250.89849
 -21992712.01749 -17137136.03948         0.00041  21152551.06748  21152548.70749
   -120205.72007    -93666.52807  25313443.37407  25313451.81807         0.00001
  -6379594.59548  -4971102.84445         0.00041  24111513.85945  24111510.95148
 -14904180.00848 -11613626.91046         0.00041  22361178.25246  22361175.22148
 -26475860.92449 -20630517.53648         0.00041  20520790.94648  20520789.11049
  15563561.94248  12127453.02844         0.00041  25420002.40744  25420003.28048
 94 02 20 00 07 00.0000000  0  7 02 07 13 15 19 27 31
 -12382538.01049  -9648714.46148         0.00041  20864504.59648  20864502.54149
 -22056914.94949 -17187164.25448         0.00041  21140333.37148  21140331.11149
   -240343.36307   -187279.79307  25290581.78907  25290590.11607         0.00001
  -6417823.61548  -5000891.63145         0.00041  24104237.94245  24104236.16548
 -14834538.92048 -11559361.16446         0.00041  22374430.53546  22374427.61648
 -26441063.35449 -20603402.54848         0.00041  20527412.77048  20527410.89449
  15672376.25948  12212243.47244         0.00041  25440712.54044  25440709.72848
 94 02 20 00 07 30.0000000  0  7 02 07 13 15 19 27 31
 -12386260.29849  -9651614.92248         0.00041  20863796.45648  20863794.38049
 -22120688.60549 -17236857.96748         0.00041  21128197.66648  21128195.67549
   -360516.79507   -280921.00406  25267712.99807  25267721.19306         0.00001
  -6455624.64248  -5030346.88445         0.00041  24097048.18545  24097042.42448
 -14764575.46148 -11504844.22346         0.00041  22387743.86646  22387741.33348
 -26405819.32349 -20575939.66848         0.00041  20534119.38148  20534117.68749
  15781286.40548  12297108.61444         0.00041  25461437.13244  25461434.08248
 94 02 20 00 08 00.0000000  0  7 02 07 13 15 19 27 31
 -12389818.43049  -9654387.47448         0.00041  20863119.25048  20863117.15949
 -22184077.49749 -17286251.86648         0.00041  21116135.42848  21116133.20749
   -480765.57507   -374620.97606  25244830.26907  25244838.26706         0.00001
  -6493037.64448  -5059499.80945         0.00041  24089927.81045  24089923.31548
 -14694343.95448 -11450118.41446         0.00041  22401108.84846  22401105.80848
 -26370162.96249 -20548155.49348         0.00041  20540904.32848  20540902.80149
  15890256.19148  12382020.12645         0.00041  25482175.48745  25482170.05948
 94 02 20 00 08 30.0000000  0  7 02 07 13 15 19 27 31
 -12393209.22249  -9657029.63548         0.00041  20862473.96948  20862471.90649
 -22247069.66949 -17335336.63048         0.00041  21104148.28048  21104145.98949
   -601091.85907   -468381.40906  25221932.59807  25221940.62906         0.00001
  -6530065.44548  -5088352.59045         0.00041  24082881.38645  24082877.18848
 -14623862.95748 -11395198.18546         0.00041  22414520.47046  22414517.93748
 -26334102.17549 -20520056.18148         0.00041  20547766.39348  20547764.69149
  15999264.81148  12466962.00844         0.00041  25502918.41444  25502913.31348
 94 02 20 00 09 00.0000000  0  7 02 07 13 15 19 27 31
 -12396424.92849  -9659535.36448         0.00041  20861861.96648  20861860.03949
 -22309633.80049 -17384087.85448         0.00041  21092242.77848  21092240.57249
   -721473.51907   -562185.03506  25199024.58807  25199032.01206         0.00001
  -6566685.93648  -5116887.95345         0.00041  24075911.39345  24075908.62448
 -14553126.90748 -11340079.22946         0.00041  22427981.55846  22427978.53848
 -26297638.43449 -20491642.87848         0.00041  20554705.28348  20554703.70149
  16108331.44948  12551949.03744         0.00041  25523671.84344  25523667.90948
 94 02 20 00 09 30.0000000  0  7 02 07 13 15 19 27 31
 -12399475.25649  -9661912.22648         0.00041  20861281.62848  20861279.70049
 -22371751.68649 -17432491.35748         0.00041  21080421.83048  21080419.45849
   -841909.91807   -656031.35706  25176106.36007  25176113.27206         0.00001
  -6602899.40048  -5145106.18145         0.00041  24069021.68445  24069017.32148
 -14482160.13448 -11284780.48846         0.00041  22441485.91346  22441483.46648
 -26260790.84549 -20462930.47248         0.00041  20561717.30448  20561715.78249
  16217452.45848  12636978.48844         0.00041  25544438.37944  25544433.15348
 94 02 20 00 10 00.0000000  0  7 02 07 13 15 19 27 31
 -12402316.80049  -9664126.40148         0.00041  20860740.92248  20860738.67749
 -22433390.49449 -17480521.55248         0.00041  21068692.12548  21068689.89449
   -962378.04607   -749902.43306  25153182.04907  25153188.95306         0.00001
  -6638683.59748  -5172989.89045         0.00041  24062207.19645  24062207.30148
 -14410951.79148 -11229293.50746         0.00041  22455036.77346  22455033.95148
 -26223555.25149 -20433915.72548         0.00041  20568803.04448  20568801.44749
  16326638.75048  12722058.80844         0.00041  25565214.53844  25565210.48448
 94 02 20 00 10 30.0000000  0  7 02 07 13 15 19 27 31
 -12404946.95549  -9666175.85848         0.00041  20860240.34848  20860238.03749
 -22494565.15549 -17528190.07148         0.00041  21057051.12948  21057048.85049
  -1082889.51807   -843807.28006  25130249.38507  25130256.32606         0.00001
  -6674050.85448  -5200548.77445         0.00041  24055480.82545  24055477.37248
 -14339505.15948 -11173620.83746         0.00041  22468632.64946  22468629.56348
 -26185948.74849 -20404611.95548         0.00041  20575959.19648  20575957.46449
  16435879.63648  12807181.67245         0.00041  25585998.45145  25585998.04448
 94 02 20 00 11 00.0000000  0  7 02 07 13 15 19 27 31
 -12407367.28149  -9668061.81248         0.00041  20859779.72548  20859777.67649
 -22555274.26949 -17575495.82748         0.00041  21045498.74848  21045496.19449
  -1203436.80407   -937740.03206  25107309.74707  25107316.84406         0.00001
  -6708994.32048  -5227777.36845         0.00041  24048833.20045  24048827.75948
 -14267806.11748 -11117751.48646         0.00041  22482276.97846  22482273.43848
 -26147961.01249 -20375011.12148         0.00041  20583188.03148  20583186.43649
  16545177.48748  12892348.81344         0.00041  25606799.80844  25606796.38948
 94 02 20 00 11 30.0000000  0  6 02 07 15 19 27 31
 -12409583.49749  -9669788.71848         0.00041  20859357.96448  20859355.96949
 -22615532.93949 -17622450.58748         0.00041  21034031.63948  21034029.32349
  -6743517.16548  -5254678.26345         0.00041  24042261.58345  24042257.75748
 -14195856.67948 -11061687.02546         0.00041  22495968.15146  22495964.55148
 -26109574.77449 -20345099.76548         0.00041  20590492.71748  20590491.03949
  16654519.57248  12977550.59744         0.00041  25627604.66144  25627603.36048
 94 02 20 00 12 00.0000000  0  7 02 07 13 15 19 27 31
 -12411603.45949  -9671362.69648         0.00041  20858973.81848  20858971.68849
 -22675364.27049 -17669072.35548         0.00041  21022645.96148  21022643.77449
        -0.30617         0.09117  25061408.35817  25061415.86917         0.00011
  -6777621.14148  -5281252.72945         0.00041  24035770.05945  24035769.06748
 -14123646.82448 -11005419.64746         0.00041  22509708.95546  22509706.29148
 -26070784.94349 -20314873.91948         0.00041  20597874.38048  20597872.60349
  16763901.74248  13062783.49644         0.00041  25648420.36844  25648417.85048
 94 02 20 00 12 30.0000000  0  7 02 07 13 15 19 27 31
 -12413452.20249  -9672803.25948         0.00041  20858621.69248  20858619.74349
 -22734769.57849 -17715362.16148         0.00041  21011341.41348  21011339.11149
   -120663.91207    -94023.32207  25038446.69107  25038454.35107         0.00001
  -6811306.25048  -5307500.81345         0.00041  24029362.92945  24029358.23748
 -14051175.44648 -10948948.46946         0.00041  22523499.52846  22523496.64948
 -26031585.14449 -20284328.62148         0.00041  20605333.64548  20605331.84649
  16873319.04448  13148043.86345         0.00041  25669240.77145  25669238.85048
 94 02 20 00 13 00.0000000  0  6 02 07 13 15 19 27
 -12415144.71749  -9674122.08648         0.00041  20858299.67748  20858297.77749
 -22793746.93849 -17761318.49548         0.00041  21000118.37348  21000116.05249
   -241350.82507   -188064.90107  25015480.58007  25015488.40407         0.00001
  -6844557.67648  -5333410.96545         0.00041  24023033.77445  24023031.35548
 -13978443.46148 -10892274.22446         0.00041  22537339.87746  22537337.00548
 -25991962.53349 -20253453.85648         0.00041  20612873.57348  20612871.90249
 94 02 20 00 13 30.0000000  0  6 02 07 13 15 19 27
 -12416637.98949  -9675285.65448         0.00041  20858015.28148  20858013.39849
 -22852277.17449 -17806926.42448         0.00041  20988980.31448  20988978.32449
   -362021.98907   -282094.18507  24992517.34407  24992525.39607         0.00001
  -6877337.20148  -5358953.35645         0.00041  24016797.80645  24016792.76748
 -13905422.57948 -10835374.84846         0.00041  22551235.61146  22551232.56248
 -25951899.05749 -20222235.56448         0.00041  20620497.32948  20620495.83149
 94 02 20 00 14 00.0000000  0  6 02 07 13 15 19 27
 -12417920.99649  -9676285.38248         0.00041  20857771.36748  20857769.30949
 -22910342.93449 -17852172.42548         0.00041  20977930.72748  20977928.56549
   -482666.02207   -376102.31207  24969559.54107  24969567.49907         0.00001
  -6909634.41048  -5384120.01845         0.00041  24010652.40145  24010647.39148
 -13832103.34148 -10778242.99846         0.00041  22565187.81246  22565185.19648
 -25911404.86949 -20190681.65348         0.00041  20628203.32448  20628201.80049
 94 02 20 00 14 30.0000000  0  7 02 07 13 15 16 19 27
 -12418990.24449  -9677118.54248         0.00041  20857567.68848  20857565.89649
 -22967940.45449 -17897053.56648         0.00041  20966970.38448  20966968.33849
   -603277.12007   -470084.76907  24946607.84407  24946615.70107         0.00001
  -6941444.60048  -5408907.08445         0.00041  24004598.44845  24004593.96348
        -0.14157         0.05154         0.00051  25437465.30254  25437455.94557
 -13758495.78248 -10720886.48046         0.00041  22579195.34646  22579192.19048
 -25870480.37949 -20158792.44648         0.00041  20635990.82748  20635989.45649
 94 02 20 00 15 00.0000000  0  7 02 07 13 15 16 19 27
 -12419850.35449  -9677788.73848         0.00041  20857404.05848  20857402.02449
 -23025094.40849 -17941589.07148         0.00041  20956094.31448  20956092.26749
   -723874.38407   -564056.44807  24923658.69607  24923666.47807         0.00001
  -6972787.86648  -5433330.37445         0.00041  23998632.43945  23998629.86048
     66343.45147     51696.33144         0.00041  25450087.91344  25450080.65947
 -13684627.59848 -10663326.89246         0.00041  22593251.46646  22593248.78648
 -25829156.94949 -20126592.37248         0.00041  20643854.52348  20643852.80149
 94 02 20 00 15 30.0000000  0  7 02 07 13 15 16 19 27
 -12420521.15749  -9678311.41848         0.00041  20857276.25648  20857274.37549
 -23081811.22849 -17985783.95248         0.00041  20945301.30148  20945299.29749
   -844494.02008   -658045.51607  24900705.30308  24900713.18607         0.00001
  -7003701.04248  -5457418.49645         0.00041  23992750.45645  23992747.18748
    132665.40548    103375.77744         0.00041  25462705.57144  25462702.95848
 -13610527.62248 -10605586.68746         0.00041  22607352.22146  22607349.65048
 -25787477.38549 -20094114.79248         0.00041  20651785.82648  20651784.10449
 94 02 20 00 16 00.0000000  0  7 02 07 13 15 16 19 27
 -12421016.76049  -9678697.57948         0.00041  20857181.93848  20857179.94849
 -23138073.49549 -18029624.63748         0.00041  20934595.08848  20934592.82649
   -965138.24807   -752053.75707  24877747.22707  24877755.22007         0.00001
  -7034187.02448  -5481173.77745         0.00041  23986951.03445  23986945.26448
    198942.82447    155020.52044         0.00041  25475320.05244  25475313.99347
 -13536197.89548 -10547667.45146         0.00041  22621497.21146  22621494.31448
 -25745427.13949 -20061348.36648         0.00041  20659787.62048  20659785.99549
 94 02 20 00 16 30.0000000  0  7 02 07 13 15 16 19 27
 -12421309.32649  -9678925.53248         0.00041  20857126.29548  20857124.32149
 -23193864.18749 -18073097.86048         0.00041  20923978.42348  20923976.12849
  -1085778.18607   -846058.65007  24854790.10007  24854797.97707         0.00001
  -7064217.75748  -5504574.28045         0.00041  23981234.62245  23981230.45348
    265205.01147    206653.27844         0.00041  25487926.63344  25487923.49047
 -13461607.20548 -10489544.85346         0.00041  22635691.54846  22635688.43848
 -25702966.11949 -20028261.85748         0.00041  20667867.99548  20667866.35649
 94 02 20 00 17 00.0000000  0  7 02 07 13 15 16 19 27
 -12421402.04849  -9678997.76148         0.00041  20857108.89848  20857106.80549
 -23249169.02749 -18116192.50048         0.00041  20913454.18148  20913452.07749
  -1206413.09507   -940059.45107  24831833.52607  24831841.30207         0.00001
  -7093794.00948  -5527620.71045         0.00041  23975607.47045  23975602.65648
    331460.53847    258281.12444         0.00041  25500534.31444  25500532.63847
 -13386740.96248 -10431207.55846         0.00041  22649937.61846  22649934.94448
 -25660099.38249 -19994859.20248         0.00041  20676025.25248  20676023.60249
 94 02 20 00 17 30.0000000  0  7 02 07 13 15 16 19 27
 -12421322.46049  -9678935.72448         0.00041  20857123.75348  20857121.82449
 -23303990.32549 -18158910.35548         0.00041  20903022.06448  20903019.93049
  -1327047.15507  -1034059.57907  24808877.28807  24808884.88707         0.00001
  -7122920.60848  -5550316.66945         0.00041  23970064.26345  23970059.51048
    397701.73347    309897.41744         0.00041  25513142.41544  25513136.02647
 -13311602.16948 -10372657.89046         0.00041  22664236.30846  22664233.42148
 -25616812.42149 -19961129.10248         0.00041  20684262.38748  20684260.66449
 94 02 20 00 18 00.0000000  0  7 02 07 13 15 16 19 27
 -12421061.61749  -9678732.44848         0.00041  20857173.59548  20857171.57849
 -23358337.44349 -18201258.71548         0.00041  20892679.89748  20892677.66049
  -1447660.65607  -1128043.68507  24785924.69807  24785932.56907         0.00001
  -7151578.74648  -5572647.64746         0.00041  23964609.31546  23964607.01848
    463949.22647    361518.75344         0.00041  25525751.55944  25525743.43147
 -13236177.36748 -10313885.34246         0.00041  22678589.06446  22678586.02248
 -25573081.91849 -19927053.38848         0.00041  20692583.96848  20692582.17249
 94 02 20 00 18 30.0000000  0  6 02 07 15 16 19 27
 -12420625.50749  -9678392.60448         0.00041  20857256.43748  20857254.45749
 -23412209.05249 -18243236.54848         0.00041  20882428.47548  20882426.46149
  -7179768.35148  -5594613.49145         0.00041  23959248.18045  23959241.45748
    530216.32647    413155.40244         0.00041  25538357.50944  25538353.45447
 -13160474.56848 -10254896.19546         0.00041  22692995.41846  22692991.68348
 -25528918.54749 -19892640.36748         0.00041  20700987.55448  20700986.41049
 94 02 20 00 19 00.0000000  0  6 02 07 13 15 19 27
 -12420031.75949  -9677929.92448         0.00041  20857369.56348  20857367.49849
 -23465609.23749 -18284847.04248         0.00041  20872266.57348  20872264.77649
        -0.18917        -0.16717  24740031.06317  24740038.44117         0.00011
  -7207497.68348  -5616220.71445         0.00041  23953969.57845  23953965.28348
 -13084521.78848 -10195712.24346         0.00041  22707447.73146  22707445.61548
 -25484342.39949 -19857905.70548         0.00041  20709470.50748  20709469.06449
 94 02 20 00 19 30.0000000  0  6 02 07 13 15 19 27
 -12419273.53249  -9677339.07848         0.00041  20857513.71248  20857511.76849
 -23518542.51749 -18326093.71548         0.00041  20862193.58348  20862191.61149
   -120553.79507    -93937.65207  24717090.17807  24717097.46207         0.00001
  -7234757.89948  -5637462.38145         0.00041  23948783.00445  23948777.43648
 -13008327.51148 -10136340.12346         0.00041  22721947.47846  22721944.64348
 -25439343.59949 -19822841.70048         0.00041  20718033.56348  20718032.01949
 94 02 20 00 20 00.0000000  0  6 02 07 13 15 19 27
 -12418321.52049  -9676597.23048         0.00041  20857694.82848  20857692.89349
 -23570996.41649 -18366966.84148         0.00041  20852212.07248  20852209.88149
   -241065.25808   -187842.31907  24694157.27708  24694164.53407         0.00001
  -7261532.46648  -5658325.63645         0.00041  23943688.20645  23943682.36448
 -12931885.54048 -10076774.98146         0.00041  22736493.42246  22736491.07848
 -25393924.01249 -19787449.81148         0.00041  20726676.56248  20726675.11149
 94 02 20 00 20 30.0000000  0  6 02 07 13 15 19 27
 -12417174.27749  -9675703.25648         0.00041  20857913.21048  20857911.01949
 -23622963.53449 -18407460.65948         0.00041  20842323.29748  20842321.08849
   -361529.07208   -281709.86607  24671233.67108  24671240.66607         0.00001
  -7287816.68248  -5678806.78745         0.00041  23938684.56445  23938681.26448
 -12855196.30948 -10017017.17146         0.00041  22751087.34346  22751084.37548
 -25348086.09249 -19751731.94948         0.00041  20735399.27748  20735397.73749
 94 02 20 00 21 00.0000000  0  6 02 07 13 15 19 27
 -12415827.05549  -9674653.45448         0.00041  20858169.48848  20858167.43849
 -23674451.22049 -18447580.89448         0.00041  20832525.38948  20832523.36549
   -481940.72408   -375536.78307  24648319.97108  24648326.66407         0.00001
  -7313607.56748  -5698903.50245         0.00041  23933776.89045  23933772.91048
 -12778247.85348  -9957057.38146         0.00041  22765730.08846  22765727.59848
 -25301817.12949 -19715678.21548         0.00041  20744204.04448  20744202.32049
 94 02 20 00 21 30.0000000  0  6 02 07 13 15 19 27
 -12414278.45549  -9673446.73748         0.00041  20858464.18348  20858462.21849
 -23725467.65949 -18487333.92348         0.00041  20822817.13848  20822815.08449
   -602309.44408   -469330.26107  24625414.60508  24625420.77507         0.00001
  -7338915.06848  -5718623.64046         0.00041  23928961.19346  23928957.49948
 -12701035.62548  -9896892.05246         0.00041  22780424.06246  22780420.47348
 -25255117.38549 -19679288.80448         0.00041  20753090.68948  20753089.10249
 94 02 20 00 22 00.0000000  0  6 02 07 13 15 19 27
 -12412520.65649  -9672077.00448         0.00041  20858798.52248  20858796.63949
 -23776008.41749 -18526716.29148         0.00041  20813199.38148  20813197.54249
   -722633.46208   -563088.91907  24602517.54108  24602523.68007         0.00001
  -7363738.68148  -5737966.64745         0.00041  23924235.75445  23924233.27248
 -12623556.01448  -9836518.36646         0.00041  22795167.36446  22795164.30548
 -25207990.93549 -19642566.90248         0.00041  20762058.48648  20762056.86749
 94 02 20 00 22 30.0000000  0  6 02 07 13 15 19 27
 -12410555.67549  -9670545.83348         0.00041  20859172.46948  20859170.56149
 -23826079.14649 -18565732.40348         0.00041  20803671.35048  20803669.43449
   -842917.61408   -656816.50807  24579627.81108  24579634.01907         0.00001
  -7388084.61748  -5756937.44545         0.00041  23919605.37545  23919600.42848
 -12545803.81748  -9775932.26946         0.00041  22809963.37446  22809960.24948
 -25160450.27849 -19605522.23448         0.00041  20771105.31048  20771103.71549
 94 02 20 00 23 00.0000000  0  6 02 07 13 15 19 27
 -12408356.79349  -9668832.39948         0.00041  20859590.88648  20859589.00749
 -23875656.35649 -18604363.95548         0.00041  20794237.10948  20794235.13149
   -963146.03008   -750500.67007  24556748.84108  24556755.20607         0.00001
  -7411937.79248  -5775524.31945         0.00041  23915066.18245  23915061.03848
 -12467767.09448  -9715124.47146         0.00041  22824813.07146  22824810.03648
 -25112485.88149 -19568147.38248         0.00041  20780232.63148  20780231.04749
 94 02 20 00 23 30.0000000  0  6 02 07 13 15 19 27
 -12405941.54049  -9666950.37048         0.00041  20860050.52948  20860048.56449
 -23924756.67749 -18642623.90648         0.00041  20784893.38048  20784891.45749
  -1083331.80508   -844151.62007  24533877.91108  24533884.31707         0.00001
  -7435312.75848  -5793738.51745         0.00041  23910615.35545  23910612.55448
 -12389470.79348  -9654114.39946         0.00041  22839712.32146  22839709.28748
 -25064136.06449 -19530472.20448         0.00041  20789432.96848  20789431.53049
 94 02 20 00 24 00.0000000  0  6 02 07 13 15 19 27
 -12403350.76849  -9664931.57048         0.00041  20860543.49348  20860541.41649
 -23973393.61849 -18680522.78348         0.00041  20775638.02648  20775636.18949
  -1203481.77208   -937774.68007  24511013.88508  24511020.14307         0.00001
  -7458217.46148  -5811586.33145         0.00041  23906259.43145  23906254.98248
 -12310935.12548  -9592917.81046         0.00041  22854657.54446  22854654.42248
 -25015421.94949 -19492513.15948         0.00041  20798702.95148  20798701.39449
 94 02 20 00 24 30.0000000  0  6 02 07 13 15 19 27
 -12400793.50549  -9662938.88248         0.00041  20861030.17148  20861028.24249
 -24021755.86849 -18718207.61848         0.00041  20766435.14748  20766433.04949
  -1323774.84408  -1031509.26507  24488122.58308  24488129.04207         0.00001
  -7480832.31348  -5829208.15445         0.00041  23901956.33545  23901950.62548
 -12232346.28948  -9531679.79246         0.00041  22869612.15446  22869609.13348
 -24966518.61049 -19454406.66848         0.00041  20808008.84448  20808007.46649
 94 02 20 00 25 00.0000000  0  6 02 07 13 15 19 27
 -12398304.13049  -9660999.09248         0.00041  20861503.84048  20861501.83249
 -24069850.99949 -18755684.30548         0.00041  20757283.13748  20757280.95549
  -1444220.89908  -1125363.06607  24465202.27008  24465208.47507         0.00001
  -7503168.57448  -5846613.02546         0.00041  23897704.20346  23897700.99548
 -12153733.90448  -9470423.43946         0.00041  22884570.74046  22884568.55748
 -24917426.81049 -19416153.32648         0.00041  20817350.93148  20817349.51849
 94 02 20 00 25 30.0000000  0  6 02 07 13 15 19 27
 -12395397.04449  -9658733.81348         0.00041  20862056.99948  20862055.12549
 -24117181.09249 -18792564.86348         0.00041  20748276.03548  20748274.24749
  -1564309.40408  -1218938.26507  24442349.99208  24442356.03807         0.00001
  -7524717.12748  -5863404.06445         0.00041  23893602.81745  23893599.47848
 -12074594.61048  -9408756.49246         0.00041  22899631.33346  22899628.25448
 -24867629.16249 -19377349.96948         0.00041  20826827.19148  20826825.68749
 94 02 20 00 26 00.0000000  0  6 02 07 13 15 19 27
 -12392202.42749  -9656244.48548         0.00041  20862664.90648  20862662.98349
 -24163883.96849 -18828956.67948         0.00041  20739388.93848  20739386.91649
  -1684178.02108  -1312342.13807  24419539.55108  24419545.52207         0.00001
  -7545616.99948  -5879689.60346         0.00041  23889626.10446  23889623.58848
 -11995074.25448  -9346792.63046         0.00041  22914764.02746  22914760.55048
 -24817248.24949 -19338092.12248         0.00041  20836414.47748  20836412.85649
 94 02 20 00 26 30.0000000  0  6 02 07 13 15 19 27
 -12388780.79349  -9653578.26048         0.00041  20863315.99448  20863314.12449
 -24210043.80649 -18864925.34748         0.00041  20730605.10148  20730603.10849
  -1803921.56508  -1405648.57507  24396753.08708  24396758.80907         0.00001
  -7565964.05048  -5895544.38045         0.00041  23885754.56945  23885750.31748
 -11915269.05048  -9284606.77746         0.00041  22929949.66846  22929947.32848
 -24766376.14749 -19298451.53448         0.00041  20846094.88948  20846093.42149
 94 02 20 00 27 00.0000000  0  6 02 07 13 15 19 27
 -12385153.72149  -9650751.95448         0.00041  20864006.09948  20864004.06749
 -24255694.59349 -18900497.35348         0.00041  20721917.94948  20721916.03249
  -1923581.99008  -1498890.26807  24373982.21408  24373987.82707         0.00001
  -7585801.79648  -5911002.28546         0.00041  23881978.40646  23881976.19548
 -11835223.50748  -9222233.66146         0.00041  22945182.27846  22945179.33548
 -24715055.53049 -19258461.45448         0.00041  20855861.02548  20855859.46349
 94 02 20 00 27 30.0000000  0  6 02 07 13 15 19 27
 -12381318.82449  -9647763.70848         0.00041  20864736.16748  20864734.04449
 -24300864.26849 -18935694.46848         0.00041  20713322.29348  20713320.63149
  -2043172.65208  -1592077.61507  24351224.76908  24351230.29307         0.00001
  -7605144.87648  -5926074.73545         0.00041  23878298.35445  23878293.58748
 -11754944.53448  -9159678.64646         0.00041  22960458.79546  22960456.14948
 -24663316.69449 -19218145.49448         0.00041  20865706.54048  20865705.00849
 94 02 20 00 28 00.0000000  0  6 02 07 13 15 19 27
 -12377275.75849  -9644613.25448         0.00041  20865505.16748  20865503.46549
 -24345548.64449 -18970513.42948         0.00041  20704819.14148  20704817.29049
  -2162702.30508  -1685217.42207  24328478.74308  24328484.57907         0.00001
  -7624003.41848  -5940769.63445         0.00041  23874708.17345  23874706.30348
 -11674440.89448  -9096948.57946         0.00041  22975778.57146  22975775.47448
 -24611180.45549 -19177519.86748         0.00041  20875627.83148  20875626.12149
 94 02 20 00 28 30.0000000  0  6 02 07 13 15 19 27
 -12373048.88849  -9641319.57748         0.00041  20866309.69948  20866307.85449
 -24389754.33549 -19004959.38448         0.00041  20696407.12748  20696405.18349
  -2282177.37608  -1778314.69707  24305743.29208  24305749.08507         0.00001
  -7642385.42848  -5955093.21445         0.00041  23871211.80745  23871207.81748
 -11593715.42248  -9034045.63346         0.00041  22991140.18546  22991137.05248
 -24558662.34949 -19136596.68248         0.00041  20885621.61148  20885619.93249
 94 02 20 00 29 00.0000000  0  6 02 07 13 15 19 27
 -12368653.41249  -9637894.51848         0.00041  20867145.99348  20867144.10349
 -24433501.04249 -19039047.69548         0.00041  20688082.17648  20688080.55749
  -2401596.81108  -1871368.60607  24283018.27108  24283024.17107         0.00001
  -7660291.59548  -5969046.02945         0.00041  23867804.04745  23867800.52448
 -11512771.06848  -8970972.16646         0.00041  23006543.30746  23006540.28748
 -24505771.97949 -19095383.41748         0.00041  20895686.36448  20895684.79149
 94 02 20 00 29 30.0000000  0  6 02 07 13 15 19 27
 -12364092.87349  -9634340.83748         0.00041  20868013.95448  20868012.00749
 -24476777.71149 -19072769.74048         0.00041  20679846.85848  20679845.27949
  -2520950.55408  -1964371.31707  24260305.82208  24260311.73707         0.00001
  -7677713.28248  -5982621.30645         0.00041  23864488.10045  23864485.31148
 -11431592.81348  -8907716.45246         0.00041  23021990.57346  23021987.97148
 -24452515.19949 -19053884.64148         0.00041  20905820.90448  20905819.23949
 94 02 20 00 30 00.0000000  0  6 02 07 13 15 19 27
 -12359386.23049  -9630673.31348         0.00041  20868909.56448  20868907.64249
 -24519586.44649 -19106127.16048         0.00041  20671700.84548  20671698.91549
  -2640242.50808  -2057325.86407  24237605.07508  24237611.05407         0.00001
  -7694656.04348  -5995823.40246         0.00041  23861264.44746  23861261.70348
 -11350181.57648  -8844279.17546         0.00041  23037483.28246  23037479.69548
 -24398883.12149 -19012093.42348         0.00041  20916026.48948  20916025.03749
 94 02 20 00 30 30.0000000  0  6 02 07 13 15 19 27
 -12354513.91949  -9626876.69648         0.00041  20869836.66048  20869834.79349
 -24561923.91949 -19139117.36148         0.00041  20663644.13048  20663642.09949
  -2759450.70008  -2150215.12107  24214920.45208  24214926.20007         0.00001
  -7711099.28348  -6008636.28746         0.00041  23858135.17246  23858132.37248
 -11268511.82748  -8780640.45446         0.00041  23053024.31446  23053021.10348
 -24344850.26049 -18969989.90848         0.00041  20926308.61548  20926307.14849
 94 02 20 00 31 00.0000000  0  6 02 07 13 15 19 27
 -12349471.94849  -9622947.87948         0.00041  20870796.15748  20870794.21949
 -24603799.30149 -19171747.50048         0.00041  20655675.50848  20655673.57449
  -2878578.61808  -2243041.80707  24192250.85908  24192256.62207         0.00001
  -7727048.24748  -6021064.01045         0.00041  23855102.51945  23855097.14948
 -11186593.20948  -8716807.80046         0.00041  23068611.83046  23068609.74848
 -24290425.40849 -18927580.94948         0.00041  20936665.73948  20936664.00349
 94 02 20 00 31 30.0000000  0  6 02 07 13 15 19 27
 -12344274.67349  -9618898.04548         0.00041  20871785.12948  20871783.16249
 -24645206.27549 -19204012.64448         0.00041  20647796.00148  20647794.03749
  -2997626.69808  -2335806.28107  24169596.73608  24169602.13207         0.00001
  -7742504.84148  -6033108.04045         0.00041  23852160.75945  23852155.91348
 -11104433.81148  -8652787.53246         0.00041  23084247.60846  23084244.16348
 -24235611.31949 -18884868.68248         0.00041  20947096.33048  20947094.69849
 94 02 20 00 32 00.0000000  0  6 02 07 13 15 19 27
 -12338921.78749  -9614726.95348         0.00041  20872803.70548  20872801.86849
 -24686142.62649 -19235911.06648         0.00041  20640006.06348  20640004.18249
  -3116589.61308  -2428504.40407  24146958.75908  24146964.00407         0.00001
  -7757465.51148  -6044765.70245         0.00041  23849312.11345  23849308.84748
 -11022048.43748  -8588591.16346         0.00041  23099924.43946  23099921.96248
 -24180396.12849 -18841843.87147         0.00041  20957603.48447  20957601.77649
 94 02 20 00 32 30.0000000  0  6 02 07 13 15 19 27
 -12333384.36449  -9610412.06748         0.00041  20873857.49048  20873855.68749
 -24726562.20249 -19267406.81048         0.00041  20632314.46248  20632312.70449
  -3235433.10808  -2521109.47107  24124343.49208  24124348.43107         0.00001
  -7771897.66248  -6056011.51345         0.00041  23846566.22345  23846562.31748
 -10939414.09048  -8524200.82846         0.00041  23115649.70146  23115646.51248
 -24124758.73549 -18798490.07447         0.00041  20968190.81547  20968189.35049
 94 02 20 00 33 00.0000000  0  6 02 07 13 15 19 27
 -12327667.44349  -9605957.31648         0.00041  20874945.42548  20874943.50249
 -24766441.30949 -19298481.41048         0.00041  20624725.57648  20624723.92149
  -3354150.85308  -2613616.56307  24101752.03208  24101757.01307         0.00001
  -7785796.18848  -6066841.50445         0.00041  23843921.19345  23843917.61148
 -10856533.28548  -8459618.44146         0.00041  23131421.74946  23131418.17448
 -24068698.94049 -18754807.12947         0.00041  20978858.56047  20978856.93849
 94 02 20 00 33 30.0000000  0  6 02 07 13 15 19 27
 -12321822.01749  -9601402.42748         0.00041  20876057.77848  20876055.85449
 -24805807.13749 -19329156.05248         0.00041  20617234.48348  20617232.67449
  -3472779.88208  -2706054.53507  24079177.38508  24079182.66107         0.00001
  -7799200.15248  -6077286.10245         0.00041  23841370.30645  23841366.73948
 -10773435.53448  -8394866.98846         0.00041  23147234.24846  23147230.93048
 -24012248.69149 -18710819.93147         0.00041  20989600.86047  20989599.10149
 94 02 20 00 34 00.0000000  0  6 02 07 13 15 19 27
 -12315806.46049  -9596714.96948         0.00041  20877202.37648  20877200.59949
 -24844641.13949 -19359416.28448         0.00041  20609844.46248  20609842.83549
  -3591290.82408  -2798400.50007  24056625.26908  24056630.62307         0.00001
  -7812081.94548  -6087323.82046         0.00041  23838919.69846  23838915.31148
 -10690083.09448  -8329917.08146         0.00041  23163096.13446  23163092.58348
 -23955373.31549 -18666501.46447         0.00041  21000423.90947  21000421.98849
 94 02 20 00 34 30.0000000  0  6 02 07 13 15 19 27
 -12309603.96149  -9591881.84148         0.00041  20878382.55548  20878380.90349
 -24882947.47149 -19389265.34648         0.00041  20602555.06048  20602553.52249
  -3709675.98008  -2890648.46407  24034097.10008  24034102.52407         0.00001
  -7824435.39148  -6096949.84746         0.00041  23836568.16646  23836564.84948
 -10606459.93348  -8264756.20846         0.00041  23179009.38446  23179005.75848
 -23898074.15449 -18621852.77947         0.00041  21011327.63147  21011325.87449
 94 02 20 00 35 00.0000000  0  6 02 07 13 15 19 27
 -12303207.78149  -9586897.79248         0.00041  20879599.67048  20879597.88449
 -24920735.71349 -19418710.70048         0.00041  20595363.92048  20595362.33149
  -3827928.86308  -2982793.37007  24011594.39408  24011599.57807         0.00001
  -7836255.94948  -6106160.64346         0.00041  23834318.49546  23834315.02348
 -10522572.01948  -8199389.03746         0.00041  23194971.81646  23194969.25148
 -23840349.84649 -18576872.80847         0.00041  21022311.94147  21022310.41949
 94 02 20 00 35 30.0000000  0  6 02 07 13 15 19 27
 -12296615.87549  -9581761.23048         0.00041  20880854.29648  20880852.43649
 -24958037.35849 -19447776.88848         0.00041  20588265.77948  20588264.21849
  -3946052.83908  -3074837.83508  23989116.12408  23989121.08808         0.00001
  -7847549.02448  -6114960.38546         0.00041  23832167.95146  23832165.78348
 -10438437.96348  -8133830.08146         0.00041  23210982.65146  23210979.57248
 -23782209.57049 -18531568.70247         0.00041  21033375.76747  21033374.22049
 94 02 20 00 36 00.0000000  0  6 02 07 13 15 19 27
 -12289817.00849  -9576463.40148         0.00041  20882147.94348  20882146.16149
 -24994857.49449 -19476467.87548         0.00041  20581258.98948  20581257.21249
  -4064035.76308  -3166772.41308  23966664.73108  23966669.32608         0.00001
  -7858304.00048  -6123340.83245         0.00041  23830122.09745  23830119.10048
 -10354068.50548  -8068087.69446         0.00041  23227038.10446  23227034.77348
 -23723660.29749 -18485945.90247         0.00041  21044517.40047  21044515.66449
 94 02 20 00 36 30.0000000  0  6 02 07 13 15 19 27
 -12282816.30449  -9571008.29448         0.00041  20883480.10948  20883478.33849
 -25031179.31749 -19504770.56248         0.00041  20574347.49448  20574345.49249
  -4181871.65008  -3258592.43107  23944241.15908  23944245.75007         0.00001
  -7868516.63248  -6131298.68645         0.00041  23828179.97645  23828175.96448
 -10269472.36848  -8002168.66546         0.00041  23243136.25646  23243132.93848
 -23664710.63249 -18440011.10847         0.00041  21055735.13747  21055733.35349
 94 02 20 00 37 00.0000000  0  6 02 07 13 15 19 27
 -12275635.98449  -9565413.22548         0.00041  20884846.41048  20884844.56249
 -25067020.21149 -19532698.50348         0.00041  20567527.16748  20567525.38049
  -4299575.57808  -3350309.62707  23921842.61508  23921847.10807         0.00001
  -7878203.97648  -6138847.24446         0.00041  23826335.23046  23826332.58548
 -10184670.10648  -7936089.03746         0.00041  23259273.46746  23259270.24848
 -23605380.64849 -18393779.95747         0.00041  21067025.33047  21067023.56449
 94 02 20 00 37 30.0000000  0  6 02 07 13 15 19 27
 -12268256.69549  -9559663.11848         0.00041  20886250.70848  20886248.99049
 -25102368.59449 -19560242.66748         0.00041  20560800.30848  20560798.70349
  -4417126.83008  -3441907.88307  23899473.11408  23899477.68607         0.00001
  -7887347.43748  -6145971.97945         0.00041  23824596.09345  23824593.06248
 -10099631.59548  -7869825.30446         0.00041  23275456.41346  23275452.58848
 -23545652.25349 -18347238.36147         0.00041  21078391.38547  21078389.61849
 94 02 20 00 38 00.0000000  0  6 02 07 13 15 19 27
 -12260702.88249  -9553777.01448         0.00041  20887688.09348  20887686.33849
 -25137226.67149 -19587404.77548         0.00041  20554167.16648  20554165.56049
  -4534546.95508  -3533403.96507  23877128.73408  23877133.26407         0.00001
  -7895970.09548  -6152690.91146         0.00041  23822956.28846  23822951.50248
 -10014360.96048  -7803380.68146         0.00041  23291682.71046  23291678.88748
 -23485545.67449 -18300402.07647         0.00041  21089829.09247  21089827.72449
 94 02 20 00 38 30.0000000  0  6 02 07 13 15 19 27
 -12252986.56449  -9547764.28248         0.00041  20889156.26248  20889154.57649
 -25171591.70849 -19614182.69548         0.00041  20547627.70148  20547626.23149
  -4651845.49908  -3624805.32007  23854807.66408  23854812.01707         0.00001
  -7904083.81048  -6159013.25145         0.00041  23821409.86045  23821407.84548
  -9928866.29948  -7736761.50146         0.00041  23307951.16946  23307947.57148
 -23425060.63549 -18253270.89247         0.00041  21101339.23047  21101337.51549
 94 02 20 00 39 00.0000000  0  6 02 07 13 15 19 27
 -12245135.19149  -9541646.31348         0.00041  20890650.56748  20890648.67549
 -25205480.41049 -19640589.44648         0.00041  20541178.77748  20541177.25649
  -4769031.92308  -3716119.31707  23832507.85408  23832512.06907         0.00001
  -7911699.86748  -6164947.81446         0.00041  23819961.19846  23819958.06348
  -9843155.64248  -7669974.00946         0.00041  23324261.19546  23324258.00748
 -23364199.96349 -18205847.00147         0.00041  21112920.61647  21112918.85449
 94 02 20 00 39 30.0000000  0  6 02 07 13 15 19 27
 -12237152.09149  -9535425.70248         0.00041  20892169.62448  20892168.00549
 -25238879.50949 -19666614.69248         0.00041  20534823.11448  20534821.48749
  -4886096.68808  -3807338.50308  23810231.11408  23810235.38008         0.00001
  -7918810.57648  -6170488.56345         0.00041  23818609.07745  23818605.60048
  -9757218.76348  -7603010.23346         0.00041  23340614.34946  23340611.19048
 -23302944.86849 -18158115.76947         0.00041  21124576.89447  21124575.41649
 94 02 20 00 40 00.0000000  0  6 02 07 13 15 19 27
 -12229034.44849  -9529100.25248         0.00041  20893714.27048  20893712.72749
 -25271776.91249 -19692249.00648         0.00041  20528563.12648  20528561.48949
  -5003027.41708  -3898453.24108  23787979.73708  23787984.06408         0.00001
  -7925405.88648  -6175627.75745         0.00041  23817353.40345  23817349.66448
  -9671062.91348  -7535875.84746         0.00041  23357009.10446  23357006.09248
 -23241284.03849 -18110068.38247         0.00041  21136310.83747  21136309.22349
 94 02 20 00 40 30.0000000  0  6 02 07 13 15 19 27
 -12220767.57949  -9522658.52048         0.00041  20895287.54048  20895285.73649
 -25304173.90349 -19717493.38848         0.00041  20522398.06548  20522396.34449
  -5119804.02208  -3989447.88008  23765757.84408  23765762.17908         0.00001
  -7931467.32848  -6180350.93245         0.00041  23816200.35045  23816197.84848
  -9584682.77048  -7468566.68346         0.00041  23373447.77646  23373443.86048
 -23179202.73249 -18061693.35047         0.00041  21148124.02747  21148122.55449
 94 02 20 00 41 00.0000000  0  6 02 07 13 15 19 27
 -12212333.47849  -9516086.48248         0.00041  20896892.40948  20896890.49649
 -25336081.61749 -19742356.51348         0.00041  20516326.08648  20516324.48249
  -5236415.99208  -4080314.22808  23743567.18308  23743571.49808         0.00001
  -7936986.85848  -6184651.81446         0.00041  23815149.68046  23815145.97048
  -9498059.83148  -7401068.31246         0.00041  23389930.65246  23389927.95548
 -23116693.30749 -18012984.71147         0.00041  21160019.72247  21160017.89549
 94 02 20 00 41 30.0000000  0  6 02 07 13 15 19 27
 -12203714.42949  -9509370.32948         0.00041  20898532.32948  20898530.55249
 -25367511.63049 -19766847.40548         0.00041  20510345.18548  20510343.71149
  -5352862.27508  -4171051.47508  23721408.02208  23721412.32408         0.00001
  -7941965.31948  -6188531.17446         0.00041  23814201.34046  23814199.67148
  -9411206.53248  -7333390.45646         0.00041  23406457.71246  23406455.73848
 -23053766.89749 -17963951.15847         0.00041  21171994.10847  21171992.22149
 94 02 20 00 42 00.0000000  0  6 02 07 13 15 19 27
 -12194885.82949  -9502490.88948         0.00041  20900212.53048  20900210.83249
 -25398432.91149 -19790941.88048         0.00041  20504461.14748  20504459.40649
  -5469118.37408  -4261640.52708  23699285.09808  23699289.48708         0.00001
  -7946380.22748  -6191971.30846         0.00041  23813362.70346  23813358.21048
  -9324113.75748  -7265525.99646         0.00041  23423031.95146  23423029.01748
 -22990413.48149 -17914584.86347         0.00041  21184049.46247  21184048.04849
 94 02 20 00 42 30.0000000  0  6 02 07 13 15 19 27
 -12185856.57349  -9495455.09448         0.00041  20901930.74748  20901929.18749
 -25428846.52249 -19814640.76348         0.00041  20498673.60948  20498671.79649
  -5585197.40108  -4352091.60308  23677195.90308  23677200.35508         0.00001
  -7950247.03948  -6194984.36646         0.00041  23812625.35546  23812624.01248
  -9236785.88448  -7197478.34246         0.00041  23439650.04446  23439646.93248
 -22926647.41249 -17864897.02147         0.00041  21196183.81747  21196182.43549
 94 02 20 00 43 00.0000000  0  6 02 07 13 15 19 27
 -12176659.43749  -9488288.48348         0.00041  20903680.79748  20903678.96349
 -25458757.42949 -19837947.93348         0.00041  20492981.56448  20492979.95849
  -5701116.77908  -4442418.28308  23655137.03208  23655141.46208         0.00001
  -7953585.17748  -6197585.50046         0.00041  23811990.83346  23811987.16248
  -9149256.23248  -7129273.45546         0.00041  23456305.94546  23456302.74848
 -22862495.47449 -17814908.50847         0.00041  21208391.85147  21208390.10749
 94 02 20 00 43 30.0000000  0  6 02 07 13 15 19 27
 -12167293.06349  -9480989.99848         0.00041  20905463.26048  20905461.45349
 -25488130.08949 -19860835.68748         0.00041  20487391.98348  20487390.28049
  -5816854.99508  -4532603.79108  23633112.65008  23633117.11808         0.00001
  -7956375.21448  -6199759.49345         0.00041  23811459.84845  23811457.75648
  -9061523.33148  -7060910.18646         0.00041  23473001.77046  23472997.59548
 -22797951.59349 -17764614.58447         0.00041  21220673.86947  21220672.43049
 94 02 20 00 44 00.0000000  0  7 02 07 13 15 19 26 27
 -12157766.38749  -9473566.60748         0.00041  20907276.21148  20907274.50449
 -25516953.53849 -19883295.48848         0.00041  20481906.85348  20481905.25749
  -5932413.63208  -4622649.35908  23611122.29508  23611126.90308         0.00001
  -7958621.05148  -6201509.51445         0.00041  23811031.93845  23811028.53548
  -8973585.17548  -6992386.99146         0.00041  23489736.15446  23489732.07448
        -0.33858        -0.15456         0.00051  22374659.78156  22374658.13658
 -22733018.19349 -17714017.13447         0.00041  21233030.54047  21233028.76549
 94 02 20 00 44 30.0000000  0  7 02 07 13 15 19 26 27
 -12148078.49449  -9466017.59348         0.00041  20909119.67448  20909117.89749
 -25545251.66449 -19905345.94848         0.00041  20476522.11348  20476520.62049
  -6047796.33908  -4712557.83808  23589165.58608  23589170.23108         0.00001
  -7960328.44948  -6202839.93245         0.00041  23810707.95145  23810705.10848
  -8885440.08648  -6923702.53146         0.00041  23506508.97246  23506505.28248
    -21056.44048    -16407.46246         0.00041  22370653.08446  22370651.38748
 -22667696.13149 -17663116.82747         0.00041  21245460.57347  21245459.26849
 94 02 20 00 45 00.0000000  0  7 02 07 13 15 19 26 27
 -12138237.71749  -9458349.44648         0.00041  20910992.26448  20910990.40549
 -25573051.11349 -19927007.82848         0.00041  20471232.20548  20471230.45449
  -6163008.58408  -4802333.48908  23567241.41408  23567246.09008         0.00001
  -7961505.17148  -6203756.83545         0.00041  23810484.88045  23810479.20648
  -8797101.55748  -6854867.35146         0.00041  23523319.95146  23523315.87248
    -41583.33748    -32402.42046         0.00041  22366746.71946  22366745.24548
 -22601997.98349 -17611923.46947         0.00041  21257962.85847  21257960.99949
 94 02 20 00 45 30.0000000  0  7 02 07 13 15 19 26 27
 -12128194.37949  -9450523.45948         0.00041  20912903.32548  20912901.58549
 -25600327.38649 -19948262.03748         0.00041  20466041.68648  20466039.85649
  -6278016.37708  -4891949.82408  23545356.10808  23545360.61708         0.00001
  -7962119.70248  -6204235.69545         0.00041  23810366.32045  23810364.36048
  -8708522.98948  -6785845.12946         0.00041  23540175.62946  23540171.64148
    -61541.18048    -47953.96246         0.00041  22362948.97046  22362947.18848
 -22535879.31949 -17560402.44547         0.00041  21270544.31447  21270543.17949
 94 02 20 00 46 00.0000000  0  7 02 07 13 15 19 26 27
 -12117958.19549  -9442547.20248         0.00041  20914851.40248  20914849.64749
 -25627103.60949 -19969126.59948         0.00041  20460946.27748  20460944.66549
  -6392833.12908  -4981417.29808  23523507.19008  23523511.53608         0.00001
  -7962187.52348  -6204288.50545         0.00041  23810356.08245  23810350.15448
  -8619713.66148  -6716643.08846         0.00041  23557074.96446  23557071.72148
    -80941.19448    -63070.83146         0.00041  22359257.08546  22359255.73148
 -22469342.74149 -17508555.76547         0.00041  21283206.27547  21283204.62049
 94 02 20 00 46 30.0000000  0  7 02 07 13 15 19 26 27
 -12107553.98049  -9434440.01348         0.00041  20916831.06448  20916829.35349
 -25653406.31949 -19989622.18848         0.00041  20455940.87148  20455939.27249
  -6507469.27108  -5070744.04208  23501692.73108  23501696.91508         0.00001
  -7961721.51648  -6203925.38545         0.00041  23810441.57045  23810439.79948
  -8530695.86948  -6647278.63446         0.00041  23574014.83046  23574011.54548
    -99791.13748    -77759.06746         0.00041  22355670.81746  22355669.18748
 -22402406.68249 -17456397.81447         0.00041  21295944.00047  21295942.01949
 94 02 20 00 47 00.0000000  0  7 02 07 13 15 19 26 27
 -12096990.90449  -9426209.03448         0.00041  20918841.26648  20918839.35249
 -25679224.87849 -20009740.51648         0.00041  20451027.79948  20451026.15849
  -6621917.40608  -5159924.29208  23479913.95708  23479917.99608         0.00001
  -7960716.44748  -6203142.17646         0.00041  23810633.58046  23810629.61248
  -8441472.04748  -6577753.61446         0.00041  23590993.70446  23590990.17348
   -118093.72748    -92020.79846         0.00041  22352187.21946  22352186.02748
 -22335069.36349 -17403927.18247         0.00041  21308757.42747  21308755.99749
 94 02 20 00 47 30.0000000  0  7 02 07 13 15 19 26 27
 -12086282.05549  -9417864.46348         0.00041  20920879.11448  20920877.38549
 -25704552.43049 -20029476.24348         0.00041  20446207.92248  20446206.48049
  -6736174.57908  -5248955.74708  23458171.37608  23458175.35608         0.00001
  -7959171.85748  -6201938.60246         0.00041  23810928.46546  23810925.18948
  -8352040.47548  -6508066.71646         0.00041  23608011.66646  23608008.31348
   -135867.86548   -105870.75446         0.00041  22348805.31646  22348803.66548
 -22267332.94349 -17351145.57047         0.00041  21321647.34847  21321645.55649
 94 02 20 00 48 00.0000000  0  7 02 07 13 15 19 26 27
 -12075440.35149  -9409416.37348         0.00041  20922942.15748  20922940.42749
 -25729384.86649 -20048826.16348         0.00041  20441482.63648  20441481.19149
  -6850236.93308  -5337835.39308  23436465.99108  23436469.91508         0.00001
  -7957086.29548  -6200313.47845         0.00041  23811324.15645  23811321.20948
  -8262403.79348  -6438219.96046         0.00041  23625068.64146  23625065.59948
   -153127.29648   -119319.63847         0.00041  22345520.89247  22345519.52148
 -22199219.55849 -17298070.21847         0.00041  21334609.21247  21334607.15849
 94 02 20 00 48 30.0000000  0  7 02 07 13 15 19 26 27
 -12064448.66849  -9400851.41248         0.00041  20925033.62248  20925032.08449
 -25753710.64249 -20067781.28348         0.00041  20436853.64648  20436851.90549
  -6964091.77608  -5426553.33908  23414800.20408  23414803.98008         0.00001
  -7954449.50748  -6198258.81645         0.00041  23811826.09745  23811823.40148
  -8172544.60348  -6368199.86346         0.00041  23642169.63146  23642165.14748
   -169873.78748   -132368.83746         0.00041  22342333.92046  22342332.34248
 -22130725.96949 -17244698.61347         0.00041  21347642.90947  21347641.15449
 94 02 20 00 49 00.0000000  0  7 02 07 13 15 19 26 27
 -12053292.27249  -9392158.10348         0.00041  20927156.66848  20927154.98449
 -25777520.40349 -20086334.31348         0.00041  20432322.56648  20432321.00049
  -7077736.74108  -5515107.74308  23393174.12008  23393177.93608         0.00001
  -7951261.12248  -6195774.36145         0.00041  23812431.76545  23812429.28548
  -8082448.86248  -6297995.42946         0.00041  23659312.78146  23659309.63048
   -186117.26948   -145026.08246         0.00041  22339242.71646  22339241.29048
 -22061848.39049 -17191027.77547         0.00041  21360750.11547  21360748.21449
 94 02 20 00 49 30.0000000  0  7 02 07 13 15 19 26 27
 -12042128.41349  -9383458.98048         0.00041  20929281.18648  20929279.56249
 -25800975.44849 -20104610.94548         0.00041  20427859.25048  20427857.73249
  -7191342.80608  -5603631.83408  23371555.58008  23371559.19008         0.00001
  -7947694.48048  -6192995.15146         0.00041  23813112.41546  23813108.86148
  -7992294.01248  -6227744.92446         0.00041  23676469.21446  23676465.72048
   -202020.30548   -157418.04346         0.00041  22336216.44546  22336215.06848
 -21992768.42249 -17137199.24047         0.00041  21373895.63047  21373893.69249
 94 02 20 00 50 00.0000000  0  7 02 07 13 15 19 26 27
 -12030989.57049  -9374779.34348         0.00041  20931400.85248  20931399.14849
 -25824111.62449 -20122639.10348         0.00041  20423456.74748  20423455.18049
  -7304947.23908  -5692154.66208  23349937.35408  23349940.86308         0.00001
  -7943789.65748  -6189952.39046         0.00041  23813854.41146  23813851.56348
  -7902130.39548  -6157487.62946         0.00041  23693627.03346  23693623.46348
   -217603.48048   -169560.77046         0.00041  22333251.54946  22333249.85148
 -21923521.77249 -17083240.82747         0.00041  21387072.62647  21387070.84449
 94 02 20 00 50 30.0000000  0  7 02 07 13 15 19 26 27
 -12019370.38049  -9365725.41448         0.00041  20933611.55648  20933610.00649
 -25846435.28449 -20140034.13348         0.00041  20419208.65048  20419207.06949
  -7418045.95208  -5780283.42408  23328415.11208  23328418.77008         0.00001
  -7939045.35448  -6186255.55746         0.00041  23814757.17946  23814754.60448
  -7811463.27748  -6086837.96546         0.00041  23710880.68946  23710877.09648
   -232353.47148   -181054.25146         0.00041  22330444.49146  22330442.95448
 -21853596.03849 -17028753.25547         0.00041  21400379.12047  21400377.26349
 94 02 20 00 51 00.0000000  0  7 02 07 13 15 19 26 27
 -12007435.71349  -9356425.65848         0.00041  20935882.80748  20935881.18349
 -25868097.68549 -20156913.89848         0.00041  20415086.35348  20415084.84349
  -7530787.98908  -5868134.26108  23306960.92408  23306964.56308         0.00001
  -7933612.71848  -6182022.28946         0.00041  23815790.69046  23815788.17548
  -7720460.97448  -6015927.11746         0.00041  23728198.10546  23728194.12548
   -246410.00448   -192007.38046         0.00041  22327769.38546  22327767.90248
 -21783153.47049 -16973862.95347         0.00041  21413783.83447  21413782.01049
 94 02 20 00 51 30.0000000  0  7 02 07 13 15 19 26 27
 -11995273.11649  -9346948.29448         0.00041  20938197.41848  20938195.67549
 -25889175.22949 -20173337.93148         0.00041  20411075.15148  20411073.73849
  -7643244.40008  -5955762.53308  23285561.09808  23285564.72308         0.00001
  -7927565.33948  -6177309.96545         0.00041  23816940.08945  23816938.68848
  -7629219.65348  -5944830.08646         0.00041  23745560.15646  23745556.46348
   -259838.06448   -202470.78846         0.00041  22325214.27246  22325212.62548
 -21712271.47749 -16918630.24347         0.00041  21427272.42947  21427270.63249
 94 02 20 00 52 00.0000000  0  6 02 07 13 15 19 27
 -11982954.29349  -9337349.20048         0.00041  20940541.49848  20940539.94149
 -25909742.75149 -20189364.54648         0.00041  20407161.27048  20407159.60749
  -7755475.50408  -6043215.24308  23264204.23408  23264207.81208         0.00001
  -7920965.85748  -6172167.54546         0.00041  23818197.11246  23818194.61548
  -7537794.11348  -5873589.43846         0.00041  23762958.81046  23762954.44448
 -21641001.13449 -16863094.92447         0.00041  21440834.50247  21440832.90449
 94 02 20 00 52 30.0000000  0  6 02 07 13 15 19 27
 -11970476.18049  -9327625.98448         0.00041  20942916.04548  20942914.39249
 -25929809.56649 -20205000.99748         0.00041  20403342.75348  20403341.28949
  -7867483.49808  -6130494.10408  23242889.78008  23242893.34708         0.00001
  -7913819.80448  -6166599.17145         0.00041  23819558.92445  23819554.41048
  -7446178.28448  -5802200.54246         0.00041  23780391.29346  23780388.48748
 -21569352.33449 -16807264.69647         0.00041  21454468.48947  21454467.04649
 94 02 20 00 53 00.0000000  0  6 02 07 13 15 19 27
 -11957833.93949  -9317774.87448         0.00041  20945321.72648  20945320.18549
 -25949358.34949 -20220233.78948         0.00041  20399622.78748  20399621.33549
  -7979266.08608  -6217597.32008  23221618.06008  23221621.77108         0.00001
  -7906127.19648  -6160604.89946         0.00041  23821019.88946  23821018.70548
  -7354377.27448  -5730667.32046         0.00041  23797860.50546  23797857.63748
 -21497326.23949 -16751140.47347         0.00041  21468175.01947  21468173.01449
 94 02 20 00 53 30.0000000  0  6 02 07 13 15 19 27
 -11945025.91049  -9307794.58048         0.00041  20947759.19948  20947757.41349
 -25968406.35349 -20235076.36748         0.00041  20395997.91048  20395996.41849
  -8090828.31008  -6304528.81408  23200388.33208  23200392.14908         0.00001
  -7897895.69148  -6154190.70945         0.00041  23822589.01245  23822584.42248
  -7262383.56848  -5658983.99446         0.00041  23815366.88546  23815363.39348
 -21424917.26749 -16694717.90447         0.00041  21481954.07047  21481952.27749
 94 02 20 00 54 00.0000000  0  6 02 07 13 15 19 27
 -11932046.07549  -9297680.41348         0.00041  20950228.94148  20950227.34249
 -25986966.93749 -20249539.13848         0.00041  20392466.08348  20392464.72249
  -8202171.27308  -6391289.45108  23179200.34808  23179204.17308         0.00001
  -7889128.93848  -6147359.43746         0.00041  23824257.14346  23824253.36548
  -7170180.22848  -5587137.26946         0.00041  23832914.13146  23832909.10148
 -21352137.61149 -16638006.49947         0.00041  21495803.47747  21495801.79349
 94 02 20 00 54 30.0000000  0  6 02 07 13 15 19 27
 -11918888.43649  -9287427.69848         0.00041  20952732.74748  20952731.09649
 -26005030.39649 -20263614.53848         0.00041  20389028.62148  20389027.08149
  -8313288.67008  -6477874.32508  23158055.32108  23158058.99008         0.00001
  -7879823.03748  -6140108.03746         0.00041  23826025.39946  23826023.56148
  -7077768.66148  -5515128.31246         0.00041  23850498.66746  23850494.41548
 -21278997.57449 -16581014.26947         0.00041  21509721.34647  21509719.90049
 94 02 20 00 55 00.0000000  0  6 02 07 13 15 19 27
 -11905563.59649  -9277044.70148         0.00041  20955268.48048  20955266.79149
 -26022599.55149 -20277304.77148         0.00041  20385685.28448  20385683.73349
  -8424176.80608  -6564280.55708  23136953.87908  23136957.60808         0.00001
  -7869977.21948  -6132435.98545         0.00041  23827902.56445  23827897.98148
  -6985156.68648  -5442963.18346         0.00041  23868123.32146  23868118.45148
 -21205491.38048 -16523736.72847         0.00041  21523709.50847  21523707.32148
 94 02 20 00 55 30.0000000  0  6 02 07 13 15 19 27
 -11892093.34749  -9266548.39148         0.00041  20957831.69748  20957829.93549
 -26039702.07649 -20290631.39548         0.00041  20382430.76448  20382429.43349
  -8534843.40208  -6650514.16108  23115894.66108  23115898.40008         0.00001
  -7859601.85148  -6124351.24345         0.00041  23829874.91945  23829871.33148
  -6892354.74848  -5370650.00846         0.00041  23885780.51346  23885777.88748
 -21131634.40848 -16466185.84947         0.00041  21537763.78447  21537761.99948
 94 02 20 00 56 00.0000000  0  6 02 07 13 15 19 27
 -11878477.55949  -9255938.67948         0.00041  20960422.78448  20960420.92549
 -26056326.10449 -20303585.16948         0.00041  20379267.31748  20379266.05149
  -8645282.57808  -6736570.55608  23094878.77308  23094882.45808         0.00001
  -7848693.48948  -6115851.23045         0.00041  23831950.35345  23831948.33148
  -6799381.75548  -5298203.55445         0.00041  23903473.65445  23903470.11348
 -21057428.45949 -16408363.03947         0.00041  21551884.31847  21551883.13049
 94 02 20 00 56 30.0000000  0  6 02 07 13 15 19 27
 -11864688.35849  -9245193.84048         0.00041  20963046.73448  20963044.93449
 -26072431.54749 -20316134.84448         0.00041  20376202.52248  20376201.05549
  -8755456.42608  -6822420.19808  23073913.34408  23073916.84508         0.00001
  -7837217.27248  -6106908.66545         0.00041  23834136.07145  23834131.32648
  -6706218.49148  -5225608.87046         0.00041  23921200.81646  23921198.63748
 -20982824.36849 -16350229.98847         0.00041  21566081.29547  21566079.68949
 94 02 20 00 57 00.0000000  0  6 02 07 13 15 19 27
 -11850763.98549  -9234343.67048         0.00041  20965696.51548  20965694.82549
 -26088053.68749 -20328307.92348         0.00041  20373229.71648  20373228.20649
  -8865385.74008  -6908079.30008  23052994.34608  23052997.87008         0.00001
  -7825196.58648  -6097541.85745         0.00041  23836422.91545  23836419.44348
  -6612895.80748  -5152889.97246         0.00041  23938960.35446  23938957.79948
 -20907847.15449 -16291806.19647         0.00041  21580349.09247  21580347.51249
 94 02 20 00 57 30.0000000  0  6 02 07 13 15 19 27
 -11836701.84649  -9223386.14848         0.00041  20968372.36248  20968370.69349
 -26103190.64449 -20340102.93948         0.00041  20370349.00548  20370347.70049
  -8975063.45608  -6993542.34408  23032123.13208  23032126.76808         0.00001
  -7812627.23948  -6087747.53645         0.00041  23838812.89745  23838810.85448
  -6519411.85748  -5080045.35346         0.00041  23956750.22146  23956746.97348
 -20832506.45548 -16233099.17147         0.00041  21594685.84847  21594684.26248
 94 02 20 00 58 00.0000000  0  6 02 07 13 15 19 27
 -11822479.37849  -9212303.69948         0.00041  20971078.74048  20971076.96549
 -26117810.64249 -20351495.12848         0.00041  20367566.92348  20367565.50649
  -9084465.64408  -7078790.68508  23011304.53408  23011308.14608         0.00001
  -7799488.31948  -6077509.38945         0.00041  23841315.50245  23841311.56648
  -6425743.75348  -5007057.27446         0.00041  23974574.49446  23974571.67748
 -20756776.90049 -16174089.14247         0.00041  21609096.69447  21609095.42049
 94 02 20 00 58 30.0000000  0  6 02 07 13 15 19 27
 -11808121.91349  -9201116.05648         0.00041  20973811.05448  20973809.13949
 -26131937.91149 -20362503.36948         0.00041  20364878.53748  20364877.14749
  -9193611.17408  -7163839.03608  22990534.90408  22990538.39108         0.00001
  -7785801.73548  -6066844.52745         0.00041  23843917.04045  23843915.41848
  -6331906.30748  -4933937.25246         0.00041  23992431.09646  23992428.32148
 -20680684.83048 -16114796.63647         0.00041  21623576.76747  21623575.01548
 94 02 20 00 59 00.0000000  0  6 02 07 13 15 19 27
 -11793623.41349  -9189818.51948         0.00041  20976569.97948  20976568.21649
 -26145574.69749 -20373129.41548         0.00041  20362283.69648  20362282.38749
  -9302497.14908  -7248685.14008  22969814.55408  22969817.95308         0.00001
  -7771566.84048  -6055752.21546         0.00041  23846627.53646  23846624.52848
  -6237889.68548  -4860677.62146         0.00041  24010322.62446  24010319.25948
 -20604238.77948 -16055228.30147         0.00041  21638123.80747  21638122.31548
 94 02 20 00 59 30.0000000  0  6 02 07 13 15 19 27
 -11778959.02249  -9178391.71548         0.00041  20979360.45048  20979358.66849
 -26158709.06549 -20383363.96848         0.00041  20359784.29148  20359782.95049
  -9411115.77908  -7333322.92808  22949144.98608  22949148.34408         0.00001
  -7756778.91348  -6044229.31146         0.00041  23849441.71046  23849438.21248
  -6143668.23348  -4787258.33946         0.00041  24028252.99246  24028248.39348
 -20527418.11548 -15995368.05847         0.00041  21652742.50947  21652740.53448
 94 02 20 01 00 00.0000000  0  6 02 07 13 15 19 27
 -11764105.57649  -9166817.60048         0.00041  20982186.87448  20982185.17449
 -26171327.84749 -20393196.76748         0.00041  20357383.23048  20357381.73449
  -9519450.49808  -7417739.48408  22928529.40608  22928532.71508         0.00001
  -7741424.06448  -6032264.48145         0.00041  23852363.80545  23852360.48048
  -6049220.46048  -4713662.72346         0.00041  24046224.18046  24046221.32948
 -20450192.31748 -15935192.12747         0.00041  21667438.23347  21667436.32248
 94 02 20 01 00 30.0000000  0  6 02 07 13 15 19 27
 -11749088.91149  -9155116.29648         0.00041  20985044.49348  20985042.89249
 -26183471.13549 -20402659.04648         0.00041  20355072.40148  20355070.98149
  -9627528.93908  -7501956.34008  22907962.64808  22907966.08208         0.00001
  -7725532.97648  -6019881.82745         0.00041  23855388.08545  23855384.20848
  -5954571.15848  -4639910.05846         0.00041  24064235.17046  24064232.71348
 -20372603.52648 -15874733.34747         0.00041  21682202.89047  21682200.87748
 94 02 20 01 01 00.0000000  0  6 02 07 13 15 19 27
 -11733910.16649  -9143288.69548         0.00041  20987932.96948  20987931.09349
 -26195121.06949 -20411736.89648         0.00041  20352855.30048  20352854.03049
  -9735343.45208  -7585967.54108  22887446.36008  22887449.51408         0.00001
  -7709100.94248  -6007077.60745         0.00041  23858512.78445  23858510.57048
  -5859719.28048  -4565999.56746         0.00041  24082283.70546  24082282.01848
 -20294653.62948 -15813993.17847         0.00041  21697036.16147  21697034.21348
 94 02 20 01 01 30.0000000  0  6 02 07 13 15 19 27
 -11718580.44749  -9131343.45248         0.00041  20990850.07948  20990848.28049
 -26206279.02349 -20420431.38348         0.00041  20350731.97648  20350730.53349
  -9842895.54408  -7669774.26808  22866979.91508  22866983.06508         0.00001
  -7692132.24648  -5993855.21945         0.00041  23861742.25545  23861740.10448
  -5764695.85348  -4491955.39746         0.00041  24100367.47746  24100364.59248
 -20216348.57248 -15752976.27047         0.00041  21711937.62847  21711935.36648
 94 02 20 01 02 00.0000000  0  6 02 07 13 15 19 27
 -11703077.55149  -9119263.26448         0.00041  20993799.99648  20993798.73849
 -26216916.29549 -20428720.14448         0.00041  20348707.76648  20348706.38249
  -9950156.21208  -7753353.90908  22846568.77008  22846571.91408         0.00001
  -7674600.88748  -5980194.38445         0.00041  23865078.98045  23865076.16248
  -5669506.47348  -4417781.93646         0.00041  24118483.08546  24118478.57448
 -20137691.33348 -15691684.92947         0.00041  21726905.16047  21726903.26248
 94 02 20 01 02 30.0000000  0  6 02 07 13 15 19 27
 -11687364.90249  -9107019.63348         0.00041  20996789.97848  20996788.40449
 -26226991.92049 -20436571.25948         0.00041  20346790.44048  20346789.13749
 -10057089.62408  -7836678.54408  22826219.78108  22826223.12408         0.00001
  -7656474.09248  -5966069.63445         0.00041  23868528.65345  23868526.00548
  -5574129.98548  -4343462.65046         0.00041  24136632.32746  24136628.65748
 -20058667.09548 -15630107.62047         0.00041  21741942.74347  21741941.04648
 94 02 20 01 03 00.0000000  0  6 02 07 13 15 19 27
 -11671466.86849  -9094631.54648         0.00041  20999815.33948  20999813.70149
 -26236542.63749 -20444013.35548         0.00041  20344972.92948  20344971.62349
 -10163719.78508  -7919766.88208  22805928.62508  22805931.84308         0.00001
  -7637778.94148  -5951502.00245         0.00041  23872085.60845  23872082.85148
  -5478597.18648  -4269021.53046         0.00041  24154811.33446  24154808.22948
 -19979283.85448 -15568250.56047         0.00041  21757049.24747  21757047.29248
 94 02 20 01 03 30.0000000  0  6 02 07 13 15 19 27
 -11655399.78849  -9082111.73648         0.00041  21002872.91548  21002871.17749
 -26245621.40249 -20451087.69848         0.00041  20343244.97148  20343243.72949
 -10270073.14608  -8002639.53908  22785690.19508  22785693.40008         0.00001
  -7618545.07348  -5936514.50345         0.00041  23875746.48245  23875743.15548
  -5382935.90348  -4194480.31746         0.00041  24173016.02846  24173011.69548
 -19899563.67448 -15506130.95747         0.00041  21772218.87647  21772217.59348
 94 02 20 01 04 00.0000000  0  6 02 07 13 15 19 27
 -11639156.21349  -9069454.39248         0.00041  21005963.64448  21005962.07749
 -26254229.89849 -20457795.59448         0.00041  20341606.93148  20341605.62249
 -10376145.72908  -8085293.41208  22765505.28508  22765508.45008         0.00001
  -7598771.16848  -5921106.27045         0.00041  23879511.08045  23879506.06448
  -5287119.20748  -4119817.98546         0.00041  24191247.36046  24191244.93148
 -19819494.45348 -15443739.37047         0.00041  21787456.37447  21787454.39648
 94 02 20 01 04 30.0000000  0  6 02 07 13 15 19 27
 -11622729.67649  -9056654.48848         0.00041  21009089.86948  21009088.28249
 -26262352.66949 -20464125.00748         0.00041  20340061.12948  20340059.91249
 -10481915.82208  -8167711.57708  22745377.83008  22745381.01008         0.00001
  -7578438.62748  -5905262.72945         0.00041  23883376.65845  23883375.54148
  -5191121.91948  -4045014.97645         0.00041  24209517.47345  24209512.52348
 -19739035.67548 -15381044.23947         0.00041  21802767.34847  21802765.31348
 94 02 20 01 05 00.0000000  0  6 02 07 13 15 19 27
 -11606137.77649  -9043725.72848         0.00041  21012247.03648  21012245.46449
 -26269992.01049 -20470077.72348         0.00041  20338607.57748  20338606.32649
 -10587382.67108  -8249893.44808  22725308.08008  22725311.22908         0.00001
  -7557550.08348  -5888985.93245         0.00041  23887352.42045  23887349.87048
  -5094948.41048  -3970074.61445         0.00041  24227818.79845  24227813.11148
 -19658185.87048 -15318044.40347         0.00041  21818152.25547  21818150.35948
 94 02 20 01 05 30.0000000  0  6 02 07 13 15 19 27
 -11589410.81549  -9030691.72448         0.00041  21015429.98348  21015428.22549
 -26277157.20449 -20475660.97548         0.00041  20337244.30048  20337242.97049
 -10692570.71008  -8331858.07208  22705291.30808  22705294.47708         0.00001
  -7536132.39548  -5872296.78145         0.00041  23891429.69445  23891426.13948
  -4998629.88248  -3895021.24645         0.00041  24246146.60945  24246141.89948
 -19576989.73648 -15254774.69547         0.00041  21833603.44447  21833601.51648
 94 02 20 01 06 00.0000000  0  6 02 07 13 15 19 27
 -11572547.04749  -9017551.11548         0.00041  21018639.19448  21018637.59149
 -26283817.97249 -20480851.16948         0.00041  20335976.83248  20335975.41349
 -10797463.45308  -8413592.59508  22685330.80808  22685334.04108         0.00001
  -7514172.54748  -5855185.18646         0.00041  23895608.59846  23895604.35048
  -4902147.33248  -3819840.06145         0.00041  24264507.52845  24264502.64848
 -19495444.87948 -15191233.27446         0.00041  21849120.83146  21849119.03048
 94 02 20 01 06 30.0000000  0  6 02 07 13 15 19 27
 -11555532.40049  -9004292.94648         0.00041  21021877.01948  21021875.22749
 -26289948.19749 -20485627.95448         0.00041  20334810.29548  20334808.89749
 -10902036.20608  -8495077.77608  22665431.32208  22665434.35208         0.00001
  -7491648.86348  -5837634.24845         0.00041  23899893.71245  23899890.81148
  -4805484.08748  -3744518.08645         0.00041  24282899.64445  24282896.89148
 -19413543.63648 -15127414.14246         0.00041  21864705.90046  21864704.39648
 94 02 20 01 07 00.0000000  0  6 02 07 13 15 19 27
 -11538368.66649  -8990918.59848         0.00041  21025143.15248  21025141.61949
 -26295556.74549 -20489998.24048         0.00041  20333742.83648  20333741.49549
 -11006290.53108  -8576314.83608  22645592.36508  22645595.21908         0.00001
  -7468566.47848  -5819647.99246         0.00041  23904286.13346  23904283.07848
  -4708631.90248  -3669048.86645         0.00041  24301330.71845  24301326.92348
 -19331297.38648 -15063326.17646         0.00041  21880357.03646  21880355.00348
 94 02 20 01 07 30.0000000  0  6 02 07 13 15 19 27
 -11521039.26849  -8977415.17348         0.00041  21028440.76848  21028439.13649
 -26300639.97349 -20493959.18648         0.00041  20332775.37448  20332774.06249
 -11110206.14008  -8657287.95908  22625817.73108  22625820.59408         0.00001
  -7444907.72448  -5801212.55345         0.00041  23908789.22145  23908785.31348
  -4611570.82048  -3593416.92245         0.00041  24319802.17645  24319797.00848
 -19248686.92148 -14998954.41446         0.00041  21896077.13946  21896075.35448
 94 02 20 01 08 00.0000000  0  6 02 07 13 15 19 27
 -11503554.86649  -8963790.97148         0.00041  21031767.87948  21031766.22349
 -26305222.86349 -20497530.26148         0.00041  20331903.40248  20331901.93349
 -11213794.58608  -8738006.14708  22606105.43708  22606108.53108         0.00001
  -7420687.58648  -5782339.70746         0.00041  23913397.04246  23913393.81148
  -4514321.67048  -3517638.35345         0.00041  24338305.89945  24338303.40448
 -19165726.32348 -14934309.82946         0.00041  21911864.05346  21911862.47648
 94 02 20 01 08 30.0000000  0  6 02 07 13 15 19 27
 -11485918.09049  -8950048.03348         0.00041  21035124.15648  21035122.69749
 -26309332.03549 -20500732.20848         0.00041  20331121.35248  20331120.06349
 -11317063.06208  -8818475.00608  22586454.03108  22586457.14408         0.00001
  -7395916.32648  -5763037.45545         0.00041  23918111.14645  23918107.81448
  -4416901.08248  -3441726.23845         0.00041  24356845.51345  24356842.05648
 -19082421.41148 -14869396.95146         0.00041  21927716.89346  21927715.05048
 94 02 20 01 09 00.0000000  0  6 02 07 13 15 19 27
 -11468123.30149  -8936181.97048         0.00041  21038510.22548  21038508.42349
 -26312987.41049 -20503580.54548         0.00041  20330425.81448  20330424.49549
 -11420015.83508  -8898697.86008  22566862.64508  22566865.67008         0.00001
  -7370601.53648  -5743311.65046         0.00041  23922927.17946  23922925.64148
  -4319320.15248  -3365689.21045         0.00041  24375413.82245  24375410.71948
 -18998782.21848 -14804223.58646         0.00041  21943632.68046  21943630.92048
 94 02 20 01 09 30.0000000  0  6 02 07 13 15 19 27
 -11450156.75449  -8922182.06748         0.00041  21041929.19448  21041927.64049
 -26316184.48749 -20506071.76648         0.00041  20329817.13348  20329816.07849
 -11522651.75508  -8978673.82108  22547331.66708  22547334.63908         0.00001
  -7344745.30448  -5723163.95846         0.00041  23927850.55146  23927845.29648
  -4221592.76948  -3289538.02645         0.00041  24394008.76645  24394007.88848
 -18914806.72148 -14738788.17246         0.00041  21959612.59346  21959610.88648
 94 02 20 01 10 00.0000000  0  6 02 07 13 15 19 27
 -11431992.19849  -8908027.87348         0.00041  21045385.85948  21045384.36349
 -26318896.83449 -20508185.27448         0.00041  20329301.31448  20329300.16849
 -11624958.40508  -9058393.21108  22527863.30408  22527866.31708         0.00001
  -7318338.34948  -5702587.08545         0.00041  23932876.15645  23932870.83548
  -4123711.71148  -3213267.15145         0.00041  24412638.26345  24412634.72848
 -18830484.26948 -14673082.40046         0.00041  21975658.44146  21975656.94448
 94 02 20 01 10 30.0000000  0  6 02 07 13 15 19 27
 -11413627.68149  -8893717.86848         0.00041  21048880.46348  21048878.70249
 -26321111.87449 -20509911.27148         0.00041  20328879.87848  20328878.40449
 -11726927.61908  -9137849.66608  22508459.09308  22508462.20308         0.00001
  -7291375.75448  -5681577.27546         0.00041  23938004.29546  23938001.19848
  -4025671.78348  -3136872.44445         0.00041  24431292.62445  24431291.07648
 -18745803.75548 -14607097.62746         0.00041  21991772.96946  21991771.06048
 94 02 20 01 11 00.0000000  0  6 02 07 13 15 19 27
 -11395085.68949  -8879269.56648         0.00041  21052408.88948  21052407.29349
 -26322844.31749 -20511261.21848         0.00041  20328550.08348  20328548.69049
 -11828577.72008  -9217057.46108  22489115.57408  22489118.73708         0.00001
  -7263879.30448  -5660151.46145         0.00041  23943235.37445  23943233.52648
  -3927503.94448  -3060378.05745         0.00041  24449973.90245  24449970.99848
 -18660780.23748 -14540845.56746         0.00041  22007952.07446  22007950.53048
 94 02 20 01 11 30.0000000  0  6 02 07 13 15 19 27
 -11376376.16049  -8864690.72148         0.00041  21055969.20848  21055967.58949
 -26324084.47749 -20512227.56648         0.00041  20328313.93448  20328312.69549
 -11929906.35008  -9296014.75408  22469833.34408  22469836.50608         0.00001
  -7235849.67348  -5638310.18946         0.00041  23948570.24546  23948567.35748
  -3829213.49948  -2983788.14345         0.00041  24468679.18745  24468675.14448
 -18575411.56548 -14474324.54946         0.00041  22024196.99046  22024195.48948
 94 02 20 01 12 00.0000000  0  6 02 07 13 15 19 27
 -11357505.87349  -8849986.60148         0.00041  21059560.09148  21059558.43949
 -26324831.06749 -20512809.31448         0.00041  20328171.74548  20328170.44149
 -12030903.51208  -9374713.77108  22450614.27808  22450617.24608         0.00001
  -7207279.97248  -5616048.10245         0.00041  23954008.13845  23954004.84348
  -3730788.44348  -2907093.34945         0.00041  24487409.00945  24487404.91248
 -18489710.59148 -14407544.60846         0.00041  22040506.12446  22040504.01648
 94 02 20 01 12 30.0000000  0  6 02 07 13 15 19 27
 -11338479.33049  -8835160.72248         0.00041  21063180.73248  21063179.07649
 -26325084.42749 -20513006.72748         0.00041  20328123.76248  20328122.24649
 -12131554.50808  -9453143.05808  22431461.04808  22431463.90108         0.00001
  -7178159.03948  -5593356.45646         0.00041  23959551.12746  23959545.85348
  -3632213.99448  -2830282.13245         0.00041  24506169.58045  24506162.96148
 -18403672.20848 -14340501.73646         0.00041  22056878.38546  22056876.62548
 94 02 20 01 13 00.0000000  0  6 02 07 13 15 19 27
 -11319286.46549  -8820205.24448         0.00041  21066832.94748  21066831.38749
 -26324834.01949 -20512811.59648         0.00041  20328171.36648  20328170.00049
 -12231839.04908  -9531286.80008  22412377.42408  22412380.37108         0.00001
  -7148470.14948  -5570222.25046         0.00041  23965200.36546  23965195.84648
  -3533470.38048  -2753339.15145         0.00041  24524955.87045  24524952.92448
 -18317285.81748 -14273187.70846         0.00041  22073317.35446  22073315.53148
 94 02 20 01 13 30.0000000  0  6 02 07 13 15 19 27
 -11299940.25649  -8805130.28148         0.00041  21070514.48648  21070513.03849
 -26324082.54449 -20512226.02348         0.00041  20328314.35748  20328313.05849
 -12331769.96308  -9609154.98308  22393361.09508  22393364.15408         0.00001
  -7118229.02848  -5546657.74746         0.00041  23970955.54846  23970950.31948
  -3434567.36548  -2676271.90044         0.00041  24543780.05844  24543773.70148
 -18230578.30248 -14205623.44746         0.00041  22089817.53746  22089815.27148
 94 02 20 01 14 00.0000000  0  6 02 07 13 15 19 27
 -11280436.98249  -8789932.92448         0.00041  21074225.71448  21074224.21449
 -26322829.19449 -20511249.37548         0.00041  20328552.81048  20328551.75149
 -12431334.81208  -9686737.92308  22374414.58208  22374417.44208         0.00001
  -7087426.75748  -5522655.97846         0.00041  23976813.36246  23976811.92048
  -3335495.02948  -2599072.75145         0.00041  24562631.92945  24562626.87148
 -18143526.66148 -14137791.04046         0.00041  22106382.64846  22106380.52348
 94 02 20 01 14 30.0000000  0  6 02 07 13 15 19 27
 -11260781.64149  -8774617.07948         0.00041  21077966.11048  21077964.50949
 -26321079.01049 -20509885.58848         0.00041  20328885.80048  20328884.55149
 -12530535.36608  -9764037.00708  22355537.31008  22355540.09008         0.00001
  -7056068.37748  -5498220.84846         0.00041  23982782.98646  23982778.98148
  -3236258.45148  -2521745.58145         0.00041  24581515.04245  24581511.51948
 -18056115.99348 -14069678.85946         0.00041  22123016.60946  22123014.39748
 94 02 20 01 15 00.0000000  0  6 02 07 13 15 19 27
 -11240979.82649  -8759187.10048         0.00041  21081734.39148  21081732.81349
 -26318844.53949 -20508144.43248         0.00041  20329311.03848  20329309.63649
 -12629382.66908  -9841060.83208  22336727.31608  22336729.98908         0.00001
  -7024168.52048  -5473363.80046         0.00041  23988852.37746  23988850.33248
  -3136871.73848  -2444301.50945         0.00041  24600427.33045  24600424.11348
 -17968357.28448 -14001295.49846         0.00041  22139716.95346  22139714.51648
 94 02 20 01 15 30.0000000  0  6 02 07 13 15 19 27
 -11221019.58749  -8743633.67448         0.00041  21085532.54348  21085531.00049
 -26316124.47949 -20506024.89548         0.00041  20329828.70148  20329827.42649
 -12727867.86308  -9917802.50208  22317986.19808  22317988.86208         0.00001
  -6991721.59448  -5448080.53045         0.00041  23995025.99345  23995023.27848
  -3037333.43648  -2366739.14845         0.00041  24619368.83245  24619365.46248
 -17880251.51748 -13932641.70246         0.00041  22156482.52846  22156480.42248
 94 02 20 01 16 00.0000000  0  6 02 07 13 15 19 27
 -11200926.48249  -8727976.71548         0.00041  21089356.21848  21089354.53349
 -26312965.90949 -20503563.66348         0.00041  20330429.72548  20330428.67449
 -12826012.37808  -9994278.70608  22299309.80208  22299312.57308         0.00001
  -6958752.54848  -5422390.35046         0.00041  24001299.79846  24001297.74448
  -2937661.43448  -2289072.73945         0.00041  24638337.60445  24638332.39648
 -17791824.64048 -13863737.67546         0.00041  22173309.35146  22173307.38548
 94 02 20 01 16 30.0000000  0  6 02 07 13 15 19 27
 -11180660.12749  -8712184.75048         0.00041  21093212.94448  21093211.25749
 -26309332.39049 -20500732.33848         0.00041  20331121.22348  20331119.99449
 -12923786.88108 -10070466.58308  22280703.89308  22280706.60008         0.00001
  -6925235.37148  -5396273.07646         0.00041  24007676.40946  24007675.18948
  -2837841.01748  -2211290.61045         0.00041  24657331.49245  24657327.42348
 -17703078.93648 -13794585.20946         0.00041  22190197.50446  22190195.25048
 94 02 20 01 17 00.0000000  0  6 02 07 13 15 19 27
 -11160208.75849  -8696248.62348         0.00041  21097104.65848  21097102.83649
 -26305228.60949 -20497534.57948         0.00041  20331902.12848  20331900.97949
 -13021191.49008 -10146366.23508  22262168.46408  22262171.09508         0.00001
  -6891173.61648  -5369731.46045         0.00041  24014160.42545  24014157.64048
  -2737889.08348  -2133406.00845         0.00041  24676351.86645  24676348.22548
 -17614026.44948 -13725193.70746         0.00041  22207143.69646  22207141.45448
 94 02 20 01 17 30.0000000  0  6 02 07 13 15 19 27
 -11139565.37149  -8680162.86948         0.00041  21101032.76348  21101031.28449
 -26300640.62549 -20493959.51948         0.00041  20332775.29048  20332773.99549
 -13118206.60908 -10221962.38708  22243707.00708  22243709.71208         0.00001
  -6856551.24948  -5342752.97545         0.00041  24020748.14945  24020744.92248
  -2637785.92248  -2055403.59345         0.00041  24695399.22045  24695396.51848
 -17524653.58748 -13655552.55446         0.00041  22224150.67746  22224148.59248
 94 02 20 01 18 00.0000000  0  6 02 07 13 15 19 27
 -11118731.53049  -8663928.71048         0.00041  21104997.40148  21104995.96649
 -26295554.08249 -20489995.96948         0.00041  20333743.09748  20333741.89649
 -13214831.53308 -10297254.48708  22225319.77608  22225322.46808         0.00001
  -6821370.83948  -5315339.65846         0.00041  24027443.44246  24027440.29048
  -2537529.43748  -1977281.69945         0.00041  24714477.74145  24714474.31148
 -17434955.12048 -13585657.68246         0.00041  22241219.83446  22241217.40148
 94 02 20 01 18 30.0000000  0  6 02 07 13 15 19 27
 -11097733.71249  -8647566.78048         0.00041  21108993.24748  21108991.61849
 -26289993.43249 -20485662.98448         0.00041  20334801.38548  20334800.12649
 -13311096.82208 -10372266.35108  22207001.12408  22207003.73708         0.00001
  -6785666.73848  -5287518.28845         0.00041  24034237.68745  24034234.69848
  -2437166.69548  -1899077.02045         0.00041  24733577.59045  24733572.95148
 -17344961.81348 -13515533.06846         0.00041  22258345.30746  22258342.60948
 94 02 20 01 19 00.0000000  0  6 02 07 13 15 19 27
 -11076582.49349  -8631085.31448         0.00041  21113017.97348  21113016.68349
 -26283970.44149 -20480969.73648         0.00041  20335947.38848  20335946.20849
 -13407008.34408 -10447002.55308  22188749.82108  22188752.28508         0.00001
  -6749447.80448  -5259295.74745         0.00041  24041132.07445  24041127.31948
  -2336690.73448  -1820784.09945         0.00041  24752700.33745  24752693.56448
 -17254665.49648 -13445172.34746         0.00041  22275527.86246  22275525.62448
 94 02 20 01 19 30.0000000  0  5 02 07 13 19 27
 -11055259.80249  -8614470.23248         0.00041  21117075.55548  21117073.99249
 -26277458.92949 -20475895.82448         0.00041  20337186.63548  20337185.21749
 -13502544.36308 -10521446.15208  22170569.85008  22170572.43108         0.00001
  -2236082.14248  -1742387.86845         0.00041  24771843.45145  24771838.60548
 -17164057.53248 -13374568.77746         0.00041  22292769.31946  22292767.82648
 94 02 20 01 20 00.0000000  0  5 02 07 13 19 27
 -11033740.65949  -8597702.07448         0.00041  21121170.93948  21121169.21349
 -26270451.26949 -20470435.30148         0.00041  20338520.08048  20338518.78849
 -13597693.33708 -10595588.15208  22152463.48008  22152466.21208         0.00001
  -2135358.69448  -1663902.10244         0.00041  24791009.96344  24791004.69148
 -17073132.30548 -13303717.99646         0.00041  22310072.11046  22310070.50348
 94 02 20 01 20 30.0000000  0  5 02 07 13 19 27
 -11012028.51249  -8580783.51948         0.00041  21125302.19748  21125300.70749
 -26262968.21549 -20464604.34648         0.00041  20339943.82148  20339942.62449
 -13692451.60208 -10669425.70808  22134431.48108  22134434.23508         0.00001
  -2034525.78647  -1585331.04444         0.00041  24810196.78244  24810191.82747
 -16981893.50348 -13232622.88546         0.00041  22327434.31146  22327432.72748
 94 02 20 01 21 00.0000000  0  5 02 07 13 19 27
 -10990161.94249  -8563744.63648         0.00041  21129463.59548  21129461.83949
 -26255033.79049 -20458421.67048         0.00041  20341453.71748  20341452.50649
 -13786839.18008 -10742974.41508  22116470.13108  22116472.77608         0.00001
  -1933598.21748  -1506686.16845         0.00041  24829401.23845  24829399.59648
 -16890370.53748 -13161306.31746         0.00041  22344850.58346  22344848.89348
 94 02 20 01 21 30.0000000  0  6 02 07 12 13 19 27
 -10968131.07749  -8546577.73448         0.00041  21133655.86548  21133654.14549
 -26246633.17449 -20451875.73448         0.00041  20343052.23148  20343051.15249
        -0.70916        -0.83516  25113652.07516  25113657.76216         0.00011
 -13880831.24508 -10816214.93208  22098583.99608  22098586.68908         0.00001
  -1832554.24248  -1427950.68644         0.00041  24848630.41344  24848628.27348
 -16798543.81848 -13089753.06246         0.00041  22362324.79446  22362322.94548
 94 02 20 01 22 00.0000000  0  6 02 07 12 13 19 27
 -10945963.17349  -8529304.04148         0.00041  21137874.05748  21137872.63349
 -26237780.03049 -20444977.17848         0.00041  20344737.13148  20344735.87649
    -87095.80206    -67866.97206  25097079.24406  25097084.19006         0.00001
 -13974434.42108 -10889152.41708  22080771.80008  22080774.49408         0.00001
  -1731381.90748  -1349115.12945         0.00041  24867882.70545  24867879.87948
 -16706409.58848 -13017960.18946         0.00041  22379856.92446  22379855.55148
 94 02 20 01 22 30.0000000  0  6 02 07 12 13 19 27
 -10923671.82849  -8511934.16348         0.00041  21142116.05748  21142114.36349
 -26228481.91149 -20437731.88848         0.00041  20346506.56348  20346505.27549
   -174289.00906   -135809.58406  25080486.99306  25080491.98806         0.00001
 -14067661.66908 -10961796.96508  22063031.18308  22063033.92908         0.00001
  -1630071.19148  -1270171.65944         0.00041  24887163.62544  24887158.15248
 -16613983.27048 -12945939.70946         0.00041  22397445.82146  22397443.76248
 94 02 20 01 23 00.0000000  0  5 02 07 13 19 27
 -10901231.36349  -8494448.09048         0.00041  21146386.23548  21146384.73849
 -26218708.31849 -20430116.09848         0.00041  20348366.44648  20348365.14649
 -14160493.98908 -11034133.77908  22045365.75508  22045368.44008         0.00001
  -1528606.16647  -1191108.06844         0.00041  24906468.18744  24906465.55047
 -16521244.97748 -12873676.14746         0.00041  22415093.35946  22415091.04948
 94 02 20 01 23 30.0000000  0  5 02 07 13 19 27
 -10878644.25649  -8476847.75048         0.00041  21150684.49748  21150682.85549
 -26208477.15949 -20422143.76548         0.00041  20350313.14748  20350312.03649
 -14252945.58308 -11106173.92808  22027772.75408  22027775.24808         0.00001
  -1427009.72348  -1111942.04245         0.00041  24925803.12645  24925799.39748
 -16428202.39548 -12801175.46646         0.00041  22432799.16846  22432796.48048
 94 02 20 01 24 00.0000000  0  5 02 07 13 19 27
 -10855909.66649  -8459132.49048         0.00041  21155010.60348  21155009.10349
 -26197797.57049 -20413822.01148         0.00041  20352345.31048  20352343.98449
 -14345028.65908 -11177926.92608  22010249.88708  22010252.45008         0.00001
  -1325313.36548  -1032698.11645         0.00041  24945152.33745  24945151.75148
 -16334875.34748 -12728453.12346         0.00041  22450558.79246  22450555.86748
 94 02 20 01 24 30.0000000  0  4 02 07 13 27
 -10833021.86349  -8441297.84048         0.00041  21159365.93348  21159364.33949
 -26186679.45449 -20405158.54448         0.00041  20354461.39848  20354459.87149
 -14436747.44008 -11249396.04908  21992796.29208  21992798.88908         0.00001
 -16241281.09848 -12655522.57846         0.00041  22468369.04546  22468366.53948
 94 02 20 01 25 00.0000000  0  4 02 07 13 27
 -10809953.34549  -8423322.37448         0.00041  21163755.93348  21163754.02449
 -26175088.77249 -20396126.84648         0.00041  20356666.89648  20356665.62449
 -14528053.23008 -11320543.35308  21975421.28208  21975423.96608         0.00001
 -16147378.63048 -12582351.84846         0.00041  22486237.93946  22486235.80648
 94 02 20 01 25 30.0000000  0  6 02 07 12 13 26 27
 -10786664.28849  -8405175.06348         0.00041  21168187.68248  21168185.92649
 -26162984.84949 -20386695.21948         0.00041  20358970.01348  20358968.78849
         0.27816         0.22616  24980567.34916  24980572.43416         0.00011
 -14618894.04308 -11391328.34008  21958134.85808  21958137.41808         0.00001
        -0.72258        -0.19956         0.00051  22389451.31356  22389449.55858
 -16053124.88848 -12508907.42346         0.00041  22504173.60146  22504171.57848
 94 02 20 01 26 00.0000000  0  6 02 07 12 13 26 27
 -10763198.20049  -8386889.80248         0.00041  21172652.90148  21172651.57749
 -26150399.28849 -20376888.28748         0.00041  20361365.11548  20361363.83249
    -87732.64307    -68363.03206  24963872.47907  24963878.04106         0.00001
 -14709296.75008 -11461771.94508  21940931.69008  21940934.29708         0.00001
     22904.48948     17848.01246         0.00041  22393809.64446  22393808.11748
 -15958560.11348 -12435220.62346         0.00041  22522168.69746  22522166.64848
 94 02 20 01 26 30.0000000  0  6 02 07 12 13 26 27
 -10739506.97149  -8368429.11248         0.00041  21177161.61648  21177159.92249
 -26137281.34349 -20366666.50948         0.00041  20363861.29948  20363860.17149
   -175456.50807   -136719.24806  24947179.36407  24947184.70506         0.00001
 -14799203.60708 -11531829.17008  21923822.97008  21923825.54008         0.00001
     46360.81848     36125.69946         0.00041  22398273.17346  22398271.67448
 -15863628.17248 -12361247.70946         0.00041  22540234.61446  22540231.76948
 94 02 20 01 27 00.0000000  0  6 02 07 12 13 26 27
 -10715633.73149  -8349826.59548         0.00041  21181704.47448  21181702.91149
 -26123687.15549 -20356073.63248         0.00041  20366448.23048  20366447.06649
   -263217.51107   -205104.37106  24930478.45907  24930484.41506         0.00001
 -14888659.50208 -11601535.00008  21906800.06008  21906802.63708         0.00001
     70328.04948     54801.42146         0.00041  22402834.44746  22402832.84048
 -15768370.44048 -12287020.91246         0.00041  22558360.82946  22558358.61148
 94 02 20 01 27 30.0000000  0  6 02 07 12 13 26 27
 -10691599.14549  -8331098.35048         0.00041  21186278.16848  21186276.51949
 -26109646.76149 -20345133.05948         0.00041  20369119.94548  20369118.75049
   -351046.57807   -273542.55606  24913765.39107  24913770.90206         0.00001
 -14977693.61308 -11670912.16208  21889857.44708  21889859.97108         0.00001
     94774.13748     73850.32246         0.00041  22407486.17546  22407484.97448
 -15672809.95848 -12212558.24246         0.00041  22576544.78246  22576543.20648
 94 02 20 01 28 00.0000000  0  6 02 07 12 13 26 27
 -10667387.06149  -8312231.79848         0.00041  21190885.49748  21190883.70149
 -26095154.29649 -20333840.22348         0.00041  20371877.76548  20371876.40749
   -438931.48707   -342024.17906  24897041.81407  24897046.08506         0.00001
 -15066292.49908 -11739950.19108  21872997.56508  21873000.10508         0.00001
    119717.40248     93286.62546         0.00041  22412232.53246  22412231.05648
 -15576933.90548 -12137849.66546         0.00041  22594789.73146  22594787.64648
 94 02 20 01 28 30.0000000  0  6 02 07 12 13 26 27
 -10643001.82249  -8293230.31848         0.00041  21195525.62148  21195524.26049
 -26080235.31149 -20322215.03948         0.00041  20374716.76848  20374715.31949
   -526897.01807   -410568.63306  24880302.17207  24880306.79206         0.00001
 -15154479.69308 -11808667.42708  21856216.13708  21856218.50408         0.00001
    145141.42748    113097.55446         0.00041  22417070.68546  22417069.10148
 -15480770.49448 -12062917.16246         0.00041  22613089.35446  22613087.00748
 94 02 20 01 29 00.0000000  0  6 02 07 12 13 26 27
 -10618460.69849  -8274107.37048         0.00041  21200195.71448  21200193.91949
 -26064914.94049 -20310277.08248         0.00041  20377632.29748  20377631.00449
   -614957.38407   -479186.98006  24863544.82707  24863549.55006         0.00001
 -15242267.62708 -11877073.55708  21839510.56108  21839512.97608         0.00001
    171025.62548    133267.05046         0.00041  22421996.41546  22421994.92948
 -15384341.94248 -11987778.06146         0.00041  22631438.86546  22631437.03648
 94 02 20 01 29 30.0000000  0  6 02 07 12 13 26 27
 -10593759.90849  -8254860.00548         0.00041  21204896.22048  21204894.74149
 -26049185.01749 -20298019.99748         0.00041  20380625.61348  20380624.45149
   -703102.64107   -547871.50006  24846771.10207  24846776.02406         0.00001
 -15329645.20608 -11945159.92808  21822883.10508  21822885.56408         0.00001
    197380.08948    153802.99746         0.00041  22427011.61046  22427009.96948
 -15287644.74248 -11912429.63946         0.00041  22649839.57446  22649837.87148
 94 02 20 01 30 00.0000000  0  6 02 07 12 13 26 27
 -10568887.25449  -8235478.72448         0.00041  21209629.26248  21209627.63949
 -26033027.53049 -20285429.74448         0.00041  20383700.26048  20383698.85749
   -791324.50007   -616615.69507  24829982.74607  24829988.05007         0.00001
 -15416602.98708 -12012919.18308  21806335.55808  21806338.02608         0.00001
    224218.74048    174716.21946         0.00041  22432118.44546  22432117.23848
 -15190686.48748 -11836877.77546         0.00041  22668290.64146  22668288.23448
 94 02 20 01 30 30.0000000  0  6 02 07 12 13 26 27
 -10543857.87449  -8215975.31748         0.00041  21214392.35648  21214390.70449
 -26016441.55149 -20272505.60648         0.00041  20386856.39948  20386855.21349
   -879633.75607   -685427.99607  24813177.74507  24813182.93407         0.00001
 -15503150.25008 -12080358.55808  21789866.07808  21789868.57708         0.00001
    251537.72848    196003.74146         0.00041  22437317.21846  22437315.80948
 -15093482.76748 -11761134.64646         0.00041  22686788.62146  22686785.37148
 94 02 20 01 31 00.0000000  0  6 02 07 12 13 26 27
 -10518680.81249  -8196356.83048         0.00041  21219183.28748  21219181.59649
 -25999406.54849 -20259231.57748         0.00041  20390097.97748  20390096.83149
   -968008.09007   -754290.98507  24796360.74807  24796365.69607         0.00001
 -15589263.35008 -12147459.62708  21773479.26208  21773481.63608         0.00001
    279346.96948    217673.26946         0.00041  22442609.24446  22442608.15648
 -14996003.71748 -11685176.98046         0.00041  22705338.13846  22705335.33148
 94 02 20 01 31 30.0000000  0  6 02 07 12 13 26 27
 -10493354.94649  -8176622.38748         0.00041  21224002.54548  21224001.07249
 -25981901.85349 -20245591.55348         0.00041  20393428.74348  20393427.68749
  -1056445.35007   -823203.01907  24779531.78207  24779536.53207         0.00001
 -15674938.94208 -12214219.78008  21757175.69008  21757178.13708         0.00001
    307651.87548    239729.03946         0.00041  22447995.69346  22447994.35448
 -14898245.73548 -11609001.96546         0.00041  22723940.54246  22723938.05248
 94 02 20 01 32 00.0000000  0  6 02 07 12 13 26 27
 -10467880.47949  -8156772.15648         0.00041  21228850.07648  21228848.57849
 -25963918.95949 -20231578.90948         0.00041  20396850.91948  20396849.64649
  -1144944.30707   -892163.12007  24762691.04807  24762695.88307         0.00001
 -15760174.82708 -12280637.30708  21740955.84008  21740958.21208         0.00001
    336450.31848    262169.38346         0.00041  22453475.42346  22453474.01048
 -14800210.11648 -11532610.60546         0.00041  22742596.04746  22742593.61348
 94 02 20 01 32 30.0000000  0  6 02 07 12 13 26 27
 -10442262.01449  -8136809.72048         0.00041  21233725.35148  21233723.72549
 -25945486.28849 -20217215.79048         0.00041  20400358.70448  20400357.39649
  -1233508.34407   -961173.95107  24745838.14807  24745842.71307         0.00001
 -15844972.80008 -12346713.60608  21724819.39108  21724821.67908         0.00001
    365722.28948    284978.70346         0.00041  22459045.30746  22459044.08748
 -14701907.86648 -11456011.48946         0.00041  22761302.64346  22761299.58948
 94 02 20 01 33 00.0000000  0  6 02 07 12 13 26 27
 -10416486.44949  -8116724.85848         0.00041  21238630.13448  21238628.53149
 -25926616.68949 -20202512.20548         0.00041  20403949.38148  20403948.19349
  -1322135.87907  -1030234.26307  24728972.56807  24728977.40507         0.00001
 -15929330.29108 -12412446.67708  21708766.70708  21708768.96508         0.00001
    395459.10648    308150.25646         0.00041  22464704.31946  22464703.00348
 -14603347.61648 -11379211.32846         0.00041  22780057.80846  22780055.35048
 94 02 20 01 33 30.0000000  0  6 02 07 12 13 26 27
 -10390511.25349  -8096484.45248         0.00041  21243573.12348  21243571.32049
 -25907293.13449 -20187454.89148         0.00041  20407626.81148  20407625.38349
  -1410811.38807  -1099331.97007  24712097.79807  24712103.00507         0.00001
 -16013230.82808 -12477823.67908  21692800.90608  21692803.14608         0.00001
    425679.92348    331698.94046         0.00041  22470455.11146  22470454.12048
 -14504521.99648 -11302204.38046         0.00041  22798863.56646  22798861.18848
 94 02 20 01 34 00.0000000  0  6 02 07 12 13 26 27
 -10364321.35549  -8076076.73848         0.00041  21248556.88948  21248555.48749
 -25887524.82549 -20172051.01548         0.00041  20411388.33448  20411387.21249
  -1499521.41007  -1168456.58007  24695216.37307  24695221.66507         0.00001
 -16096659.63008 -12542833.10008  21676924.91708  21676927.14508         0.00001
    456388.32548    355627.55646         0.00041  22476298.71146  22476297.79048
 -14405426.25548 -11224986.95146         0.00041  22817720.63646  22817718.52948
 94 02 20 01 34 30.0000000  0  6 02 07 12 13 26 27
 -10337939.27749  -8055519.27348         0.00041  21253577.15148  21253575.66949
 -25867340.32249 -20156322.83148         0.00041  20415229.41348  20415228.10549
  -1588286.41708  -1237624.03407  24678325.12708  24678329.96307         0.00001
 -16179636.13508 -12607490.08508  21661135.01608  21661137.28008         0.00001
    487553.54048    379912.14046         0.00041  22482228.76446  22482227.97148
 -14306080.79048 -11147574.93446         0.00041  22836625.60946  22836623.35448
 94 02 20 01 35 00.0000000  0  6 02 07 12 13 26 27
 -10311355.70449  -8034804.80348         0.00041  21258635.94748  21258634.41549
 -25846707.60849 -20140245.39248         0.00041  20419155.75848  20419154.35049
  -1677087.10808  -1306819.28707  24661427.22408  24661431.40807         0.00001
 -16262140.04108 -12671778.81008  21645435.00608  21645437.23508         0.00001
    519205.74848    404576.18446         0.00041  22488253.02746  22488251.42748
 -14206446.57648 -11069937.93146         0.00041  22855585.53446  22855583.53948
 94 02 20 01 35 30.0000000  0  6 02 07 12 13 26 27
 -10284580.00049  -8013940.61848         0.00041  21263731.42848  21263729.68149
 -25825634.34649 -20123824.66848         0.00041  20423165.83948  20423164.51549
  -1765928.49508  -1376046.26607  24644521.33208  24644525.52807         0.00001
 -16344175.13608 -12735702.22708  21629824.15508  21629826.42208         0.00001
    551333.44248    429610.75046         0.00041  22494366.66646  22494365.24348
 -14106518.06948 -10992071.62346         0.00041  22874601.26746  22874599.28848
 94 02 20 01 36 00.0000000  0  6 02 07 12 13 26 27
 -10257626.33149  -7992937.76548         0.00041  21268860.35448  21268858.70449
 -25804141.06049 -20107076.65248         0.00041  20427255.95148  20427254.57549
  -1854825.90008  -1445316.91807  24627604.59008  24627609.04107         0.00001
 -16425755.98308 -12799271.69108  21614299.85308  21614302.00708         0.00001
    583916.76748    455000.35046         0.00041  22500566.91146  22500565.56648
 -14006310.55548 -10913987.88746         0.00041  22893670.41946  22893667.96848
 94 02 20 01 36 30.0000000  0  6 02 07 12 13 26 27
 -10230472.87349  -7971779.23248         0.00041  21274027.48548  21274025.83449
 -25782203.01549 -20089982.07348         0.00041  20431430.50948  20431429.20549
  -1943764.05908  -1514619.33707  24610680.06508  24610685.01407         0.00001
 -16506866.26608 -12862474.48408  21598865.09808  21598867.28608         0.00001
    616974.64948    480759.72646         0.00041  22506857.57046  22506856.27748
 -13905801.53848 -10835669.18846         0.00041  22912796.19246  22912793.80148
 94 02 20 01 37 00.0000000  0  6 02 07 12 13 26 27
 -10203157.09649  -7950494.21248         0.00041  21279225.32148  21279223.86549
 -25759847.76049 -20072562.39548         0.00041  20435684.48948  20435683.21249
  -2032774.86508  -1583978.36808  24593741.82608  24593746.73908         0.00001
 -16587537.03508 -12925334.79608  21583513.92408  21583516.12608         0.00001
    650483.03548    506870.15146         0.00041  22513233.82146  22513232.41848
 -13805029.48948 -10757145.52546         0.00041  22931973.18146  22931970.21448
 94 02 20 01 37 30.0000000  0  6 02 07 12 13 26 27
 -10175685.67149  -7929087.90948         0.00041  21284452.88548  21284451.20649
 -25737079.15449 -20054820.62648         0.00041  20440017.29048  20440015.95049
  -2121861.11208  -1653396.16408  24576789.27508  24576794.02308         0.00001
 -16667769.80808 -12987853.81608  21568246.10008  21568248.23508         0.00001
    684428.19348    533320.92546         0.00041  22519693.71146  22519692.51548
 -13704018.74948 -10678435.90546         0.00041  22951194.20646  22951192.03448
 94 02 20 01 38 00.0000000  0  6 02 07 12 13 26 27
 -10148045.11949  -7907549.82048         0.00041  21289713.02148  21289711.38449
 -25713868.86749 -20036734.68948         0.00041  20444434.08748  20444432.70849
  -2210995.81608  -1722851.69608  24559827.51408  24559831.95308         0.00001
 -16747537.05208 -13050010.08408  21553066.86208  21553069.03308         0.00001
    718838.25548    560133.93446         0.00041  22526241.57046  22526240.04948
 -13602764.03248 -10599536.14146         0.00041  22970462.75046  22970460.08248
 94 02 20 01 38 30.0000000  0  6 02 07 12 13 26 27
 -10120260.84749  -7885899.74448         0.00041  21295000.31048  21294998.74249
 -25690217.57149 -20018305.10848         0.00041  20448934.68348  20448933.41249
  -2300172.82008  -1792340.17108  24542857.49808  24542861.91108         0.00001
 -16826831.79908 -13111798.17508  21537977.54708  21537979.77008         0.00001
    753718.01248    587312.96946         0.00041  22532879.16246  22532877.56348
 -13501275.49748 -10520454.19846         0.00041  22989775.50246  22989772.92748
 94 02 20 01 39 00.0000000  0  6 02 07 12 13 26 27
 -10092347.22249  -7864148.87248         0.00041  21300311.88348  21300310.52249
 -25666147.99949 -19999549.60148         0.00041  20453514.84148  20453513.71749
  -2389400.95808  -1861868.47808  24525877.83508  24525882.28708         0.00001
 -16905662.01408 -13173224.29708  21522976.63608  21522978.76608         0.00001
    789044.06348    614839.75046         0.00041  22539601.46746  22539599.97548
 -13399575.13848 -10441207.21146         0.00041  23009127.61846  23009125.74648
 94 02 20 01 39 30.0000000  0  6 02 07 12 13 26 27
 -10064269.77649  -7842270.34548         0.00041  21305655.02048  21305653.42649
 -25641659.44949 -19980467.61548         0.00041  20458174.80748  20458173.83349
  -2478667.47208  -1931426.69308  24508890.93808  24508895.45708         0.00001
 -16984014.01208 -13234277.77708  21508066.65108  21508068.95908         0.00001
    824814.45448    642712.77846         0.00041  22546408.17146  22546406.38348
 -13297649.66648 -10361784.79446         0.00041  23028523.05146  23028521.34448
 94 02 20 01 40 00.0000000  0  6 02 07 12 13 26 27
 -10036007.49549  -7820247.78748         0.00041  21311033.02948  21311031.40649
 -25616751.31149 -19961058.67848         0.00041  20462914.90148  20462913.61249
  -2567958.17408  -2001003.75008  24491899.57008  24491904.01908         0.00001
 -17061872.97008 -13294947.06708  21493250.63508  21493252.88508         0.00001
    861039.77848    670940.30346         0.00041  22553301.44146  22553300.09848
 -13195478.81548 -10282171.17246         0.00041  23047966.60746  23047963.77548
 94 02 20 01 40 30.0000000  0  6 02 07 12 13 26 27
 -10007538.31049  -7798064.00648         0.00041  21316450.61748  21316448.96449
 -25591420.13049 -19941320.09848         0.00041  20467735.29148  20467733.78649
  -2657265.78508  -2070593.97508  24474904.79508  24474909.09508         0.00001
 -17139230.83408 -13355225.90008  21478529.83508  21478532.09908         0.00001
    897728.52748    699528.93646         0.00041  22560283.61346  22560282.14148
 -13093035.57148 -10202345.30046         0.00041  23067460.88746  23067458.52548
 94 02 20 01 41 00.0000000  0  6 02 07 12 13 26 27
  -9978830.75249  -7775694.48548         0.00041  21321913.45348  21321911.79749
 -25565656.80049 -19921244.77548         0.00041  20472637.85448  20472636.46649
  -2746586.44508  -2140194.35508  24457907.39908  24457911.91208         0.00001
 -17216082.88108 -13415110.59008  21463905.32508  21463907.58308         0.00001
    934878.86248    728477.24146         0.00041  22567352.88046  22567351.21248
 -12990299.39848 -10122291.17246         0.00041  23087010.21446  23087008.72448
 94 02 20 01 41 30.0000000  0  6 02 07 12 13 26 27
  -9949897.23149  -7753148.88248         0.00041  21327419.25048  21327417.82249
 -25539468.90649 -19900838.62548         0.00041  20477621.14548  20477620.02949
  -2835926.98408  -2209810.21908  24440906.20308  24440910.65108         0.00001
 -17292435.61708 -13474606.20508  21449375.89908  21449378.16708         0.00001
    972489.96248    757784.58446         0.00041  22574509.81046  22574508.16648
 -12887271.70048 -10042009.88046         0.00041  23106615.80146  23106614.25148
 94 02 20 01 42 00.0000000  0  6 02 07 12 13 26 27
  -9920798.08549  -7730474.21848         0.00041  21332956.67448  21332955.18149
 -25512883.77449 -19880122.93748         0.00041  20482680.38648  20482679.01149
  -2925320.31607  -2279467.22208  24423894.85407  24423899.52108         0.00001
 -17368320.94008 -13533737.60208  21434935.36608  21434937.61508         0.00001
   1010538.41448    787432.71846         0.00041  22581750.26646  22581749.19848
 -12783989.56048  -9961530.30146         0.00041  23126270.31146  23126268.36948
 94 02 20 01 42 30.0000000  0  6 02 07 12 13 26 27
  -9891551.54349  -7707684.70348         0.00041  21338522.10448  21338520.49249
 -25485907.38649 -19859102.37648         0.00041  20487813.79348  20487812.33449
  -3014774.86707  -2349171.93208  24406872.27307  24406876.87808         0.00001
 -17443746.84508 -13592511.01008  21420582.29408  21420584.54808         0.00001
   1049012.23848    817412.31046         0.00041  22589071.78346  22589070.27548
 -12680476.31848  -9880870.66246         0.00041  23145968.00646  23145966.12648
 94 02 20 01 43 00.0000000  0  6 02 07 12 13 26 27
  -9862152.29449  -7684776.19548         0.00041  21344116.55648  21344115.22849
 -25458522.69349 -19837763.65748         0.00041  20493024.89548  20493023.48249
  -3104269.65207  -2418907.99008  24389842.22807  24389846.58308         0.00001
 -17518691.62708 -13650909.51508  21406320.81108  21406323.03808         0.00001
   1087919.74848    847729.83446         0.00041  22596475.70446  22596473.89248
 -12576725.96548  -9800026.24846         0.00041  23165711.41346  23165709.14848
 94 02 20 01 43 30.0000000  0  6 02 07 12 13 26 27
  -9832626.54449  -7661769.11148         0.00041  21349734.95648  21349733.40849
 -25430739.09749 -19816114.10248         0.00041  20498311.86148  20498310.58049
  -3193810.48107  -2488679.92708  24372802.90107  24372807.45608         0.00001
 -17593160.55408 -13708937.22408  21392149.80208  21392152.07908         0.00001
   1127254.27548    878380.10646         0.00041  22603960.87046  22603959.58048
 -12472756.17748  -9719010.85346         0.00041  23185495.16646  23185493.73848
 94 02 20 01 44 00.0000000  0  6 02 07 12 13 26 27
  -9803157.62649  -7638806.31648         0.00041  21355342.79548  21355341.20949
 -25402744.75549 -19794300.32948         0.00041  20503638.95248  20503637.63049
  -3283586.98008  -2558635.50607  24355719.01708  24355723.35507         0.00001
 -17667342.75008 -13766741.50608  21378033.30008  21378035.56708         0.00001
   1166826.13248    909215.30346         0.00041  22611490.95546  22611489.68548
 -12368769.32148  -9637982.16546         0.00041  23205284.05246  23205281.73048
 94 02 20 01 44 30.0000000  0  6 02 07 12 13 26 27
  -9773712.52749  -7615862.07448         0.00041  21360945.94748  21360944.38049
 -25374539.27249 -19772322.03248         0.00041  20509006.35348  20509004.86349
  -3373592.57108  -2628769.61207  24338591.36908  24338595.53107         0.00001
 -17741231.26608 -13824316.94708  21363972.75808  21363975.02108         0.00001
   1206626.38148    940228.47546         0.00041  22619065.10346  22619063.52948
 -12264753.53448  -9556930.95346         0.00041  23225079.09846  23225075.64048
 94 02 20 01 45 00.0000000  0  6 02 07 12 13 26 27
  -9743756.63049  -7592519.81448         0.00041  21366646.30848  21366644.83549
 -25345604.42449 -19749775.39848         0.00041  20514512.42148  20514511.04349
  -3463310.41008  -2698679.50907  24321518.28608  24321522.37207         0.00001
 -17814308.45208 -13881260.18308  21350066.64808  21350068.88708         0.00001
   1247169.50048    971820.51346         0.00041  22626780.09446  22626778.86648
 -12160174.34448  -9475440.70346         0.00041  23244978.77346  23244976.51448
 94 02 20 01 45 30.0000000  0  6 02 07 12 13 26 27
  -9713458.94549  -7568911.22548         0.00041  21372411.93048  21372410.33849
 -25316132.47449 -19726810.24048         0.00041  20520120.85548  20520119.55249
  -3552925.35608  -2768509.23807  24304465.26808  24304468.89007         0.00001
 -17886759.21308 -13937715.29408  21336279.71108  21336281.92708         0.00001
   1288268.96448   1003846.06146         0.00041  22634600.83446  22634599.57048
 -12055224.15248  -9393661.35246         0.00041  23264950.04546  23264947.97448
 94 02 20 01 46 00.0000000  0  6 02 07 12 13 26 27
  -9682904.08249  -7545102.23647         0.00041  21378226.44347  21378224.67649
 -25286230.07049 -19703509.67248         0.00041  20525811.00148  20525809.75649
  -3642535.06408  -2838334.88407  24287413.11208  24287416.84007         0.00001
 -17958680.47108 -13993757.80608  21322593.49008  21322595.70208         0.00001
   1329828.62848   1036230.20246         0.00041  22642509.63446  22642507.86848
 -11950004.67448  -9311672.20046         0.00041  23284972.63646  23284970.20448
 94 02 20 01 46 30.0000000  0  6 02 07 12 13 26 27
  -9652155.53249  -7521142.32547         0.00041  21384077.51447  21384075.84449
 -25255937.05449 -19679904.72548         0.00041  20531575.61748  20531574.36849
  -3732187.43108  -2908193.78507  24270352.81908  24270356.57807         0.00001
 -18030119.81808 -14049424.80208  21308998.99908  21309001.19808         0.00001
   1371788.08648   1068925.88246         0.00041  22650494.08146  22650492.62748
 -11844570.04348  -9229515.37746         0.00041  23305035.16646  23305033.58548
 94 02 20 01 47 00.0000000  0  6 02 07 12 13 26 27
  -9621247.20749  -7497057.90647         0.00041  21389959.14247  21389957.72849
 -25225260.55549 -19656000.96548         0.00041  20537413.21848  20537411.80749
  -3821879.68008  -2978083.77807  24253285.07108  24253288.96507         0.00001
 -18101074.13108 -14104713.85508  21295496.83308  21295498.97708         0.00001
   1414155.04948   1101939.10246         0.00041  22658555.63446  22658554.15148
 -11738945.22148  -9147210.32546         0.00041  23325135.95846  23325133.21048
 94 02 20 01 47 30.0000000  0  6 02 07 12 13 26 27
  -9590195.72749  -7472861.93747         0.00041  21395867.84447  21395866.61749
 -25194201.49749 -19631799.10748         0.00041  20543323.46548  20543322.10649
  -3911604.35108  -3047999.04307  24236210.76308  24236214.94307         0.00001
 -18171535.60008 -14159618.87108  21282088.41808  21282090.63508         0.00001
   1456941.75648   1135279.37946         0.00041  22666698.08546  22666696.15548
 -11633140.97748  -9064765.50946         0.00041  23345269.24146  23345267.09948
 94 02 20 01 48 00.0000000  0  6 02 07 12 13 26 27
  -9559006.74949  -7448558.84648         0.00041  21401803.09748  21401801.59249
 -25162740.12149 -19607283.74948         0.00041  20549310.57748  20549309.17949
  -4001348.71208  -3117929.65707  24219132.82308  24219137.18707         0.00001
 -18241491.27408 -14214129.76108  21268776.28808  21268778.55008         0.00001
   1500164.11148   1168959.13546         0.00041  22674922.91646  22674921.63348
 -11527142.21348  -8982169.09346         0.00041  23365440.19646  23365438.53248
 94 02 20 01 48 30.0000000  0  6 02 07 12 13 26 27
  -9527698.55249  -7424162.84247         0.00041  21407761.03347  21407759.18849
 -25130889.05849 -19582464.74148         0.00041  20555371.46448  20555370.19349
  -4091123.31408  -3187883.84407  24202049.16508  24202053.58807         0.00001
 -18310951.49908 -14268254.58708  21255558.38408  21255560.64308         0.00001
   1543795.00748   1202957.23946         0.00041  22683226.27546  22683224.10248
 -11420959.79848  -8899429.56446         0.00041  23385646.38446  23385644.41548
 94 02 20 01 49 00.0000000  0  5 02 07 12 13 27
  -9496254.43449  -7399660.92447         0.00041  21413744.76647  21413743.18149
 -25098680.17949 -19557366.91448         0.00041  20561500.55848  20561499.36549
  -4180932.97708  -3257865.35008  24184958.95208  24184963.32108         0.00001
 -18379920.76808 -14321996.84908  21242434.01408  21242436.16308         0.00001
 -11314579.06048  -8816535.50246         0.00041  23405890.60346  23405888.14048
 94 02 20 01 49 30.0000000  0  5 02 07 12 13 27
  -9464596.94449  -7374992.74147         0.00041  21419768.73847  21419767.09849
 -25066074.83149 -19531960.14848         0.00041  20567705.19148  20567704.00549
  -4270739.89508  -3327844.70508  24167869.37508  24167873.43808         0.00001
 -18448361.27208 -14375327.08908  21229410.17508  21229412.37608         0.00001
 -11207942.85348  -8733442.37646         0.00041  23426182.85446  23426180.25948
 94 02 20 01 50 00.0000000  0  5 02 07 12 13 27
  -9432720.80049  -7350154.18247         0.00041  21425834.60247  21425832.89049
 -25033098.38249 -19506264.21348         0.00041  20573980.31148  20573979.20549
  -4360564.60908  -3397837.91808  24150776.17108  24150780.14808         0.00001
 -18516293.10008 -14428260.95808  21216483.14308  21216485.38008         0.00001
 -11101084.49448  -8650176.17146         0.00041  23446517.09646  23446514.31448
 94 02 20 01 50 30.0000000  0  5 02 07 12 13 27
  -9400618.55249  -7325139.43547         0.00041  21431943.21247  21431941.71749
 -24999763.99849 -19480289.36548         0.00041  20580323.59748  20580322.40449
  -4450408.03208  -3467845.70008  24133679.41908  24133683.33408         0.00001
 -18583717.36408 -14480799.32508  21203652.76108  21203654.97908         0.00001
 -10994012.04548  -8566743.12546         0.00041  23466891.65046  23466889.71748
 94 02 20 01 51 00.0000000  0  5 02 07 12 13 27
  -9368306.49149  -7299961.19447         0.00041  21438091.75347  21438090.42349
 -24966083.09349 -19454044.50748         0.00041  20586732.93648  20586731.50049
  -4540283.03708  -3537878.09608  24116576.68908  24116580.58308         0.00001
 -18650646.66608 -14532952.00608  21190916.53408  21190918.75508         0.00001
 -10886747.03448  -8483160.03146         0.00041  23487305.51246  23487301.62448
 94 02 20 01 51 30.0000000  0  5 02 07 12 13 27
  -9335803.00749  -7274633.79747         0.00041  21444277.55947  21444275.80849
 -24932033.37649 -19427512.25248         0.00041  20593212.26048  20593210.99849
  -4630185.62308  -3607931.98408  24099468.70408  24099472.74708         0.00001
 -18717076.94808 -14584715.84308  21178275.19608  21178277.34608         0.00001
 -10779313.75248  -8399445.84446         0.00041  23507747.10146  23507745.70648
 94 02 20 01 52 00.0000000  0  5 02 07 12 13 27
  -9303151.34849  -7249190.93747         0.00041  21450490.68547  21450489.19349
 -24897619.29049 -19400696.07848         0.00041  20599761.15048  20599759.93149
  -4720117.87508  -3678008.98008  24082355.05508  24082359.27808         0.00001
 -18783010.38408 -14636092.52908  21165728.47708  21165730.66508         0.00001
 -10671721.14348  -8315607.48646         0.00041  23528223.05146  23528219.91948
 94 02 20 01 52 30.0000000  0  5 02 07 12 13 27
  -9270345.13149  -7223627.63847         0.00041  21456733.27647  21456731.92249
 -24862805.36949 -19373568.34248         0.00041  20606385.93648  20606384.81049
  -4810048.14507  -3748084.42108  24065241.88407  24065246.03608         0.00001
 -18848415.12808 -14687057.24708  21153282.36608  21153284.54508         0.00001
 -10563915.51348  -8231603.12446         0.00041  23548736.87346  23548734.64348
 94 02 20 01 53 00.0000000  0  5 02 07 12 13 27
  -9237387.22549  -7197946.14447         0.00041  21463005.28847  21463003.52349
 -24827596.40749 -19346132.78248         0.00041  20613085.99148  20613084.68849
  -4899982.56907  -3818163.08108  24048127.68407  24048132.02508         0.00001
 -18913297.63508 -14737615.02808  21140935.62808  21140937.83108         0.00001
 -10455904.47648  -8147438.70846         0.00041  23569290.94346  23569288.49048
 94 02 20 01 53 30.0000000  0  5 02 07 12 13 27
  -9204260.37549  -7172133.00147         0.00041  21469308.98547  21469307.44649
 -24791992.17749 -19318389.22148         0.00041  20619861.32048  20619859.98949
  -4989914.58707  -3888239.85608  24031014.17907  24031018.43308         0.00001
 -18977651.35208 -14787760.76508  21128689.56008  21128691.74008         0.00001
 -10347680.89848  -8063108.67746         0.00041  23589885.09046  23589883.11548
 94 02 20 01 54 00.0000000  0  5 02 07 12 13 27
  -9170956.98649  -7146182.29647         0.00041  21475646.48447  21475645.01049
 -24756005.97849 -19290348.02048         0.00041  20626709.27748  20626708.03049
  -5079849.08908  -3958318.57008  24013900.13108  24013904.37308         0.00001
 -19041481.17908 -14837498.27408  21116543.10708  21116545.23108         0.00001
 -10239239.30148  -7978608.74946         0.00041  23610520.26746  23610518.73248
 94 02 20 01 54 30.0000000  0  5 02 07 12 13 27
  -9137437.88449  -7120063.50447         0.00041  21482025.02947  21482023.38349
 -24719633.20749 -19262005.59448         0.00041  20633630.74248  20633629.35049
  -5169776.08208  -4028391.44708  23996787.72308  23996791.65208         0.00001
 -19104777.20908 -14886819.83608  21104498.24508  21104500.36808         0.00001
 -10130590.98348  -7893947.75046         0.00041  23631196.11746  23631193.85948
 94 02 20 01 55 00.0000000  0  5 02 07 12 13 27
  -9103689.45549  -7093766.02047         0.00041  21488447.28647  21488445.61449
 -24682882.54749 -19233368.71048         0.00041  20640624.23348  20640622.79149
  -5259693.00608  -4098456.48908  23979677.16108  23979680.81908         0.00001
 -19167537.14808 -14935723.66608  21092555.43008  21092557.53508         0.00001
 -10021756.55148  -7809141.75846         0.00041  23651906.46146  23651904.51648
 94 02 20 01 55 30.0000000  0  5 02 07 12 13 27
  -9069740.80549  -7067312.51447         0.00041  21494907.23847  21494905.53649
 -24645783.97849 -19204460.73148         0.00041  20647683.88548  20647682.45749
  -5349617.82108  -4168527.69008  23962564.97608  23962568.64108         0.00001
 -19229779.16308 -14984223.92008  21080711.08908  21080713.26808         0.00001
  -9912755.58048  -7724205.95346         0.00041  23672648.81046  23672646.65748
 94 02 20 01 56 00.0000000  0  5 02 07 12 13 27
  -9035588.99349  -7040700.70447         0.00041  21501405.91447  21501404.40149
 -24608326.73549 -19175273.26348         0.00041  20654811.51148  20654810.32349
  -5439531.81408  -4238590.46508  23945454.89308  23945458.36708         0.00001
 -19291484.82608 -15032306.23508  21068968.86508  21068971.01408         0.00001
  -9803575.21648  -7639130.36146         0.00041  23693424.34746  23693423.14548
 94 02 20 01 56 30.0000000  0  5 02 07 12 13 27
  -9001240.66149  -7013935.76247         0.00041  21507942.24847  21507940.73549
 -24570515.89349 -19145810.26548         0.00041  20662006.57248  20662005.28049
  -5529430.15408  -4308641.04108  23928347.59308  23928351.31008         0.00001
 -19352649.46408 -15079966.97408  21057329.63308  21057331.76508         0.00001
  -9694214.65448  -7553914.35546         0.00041  23714235.20746  23714233.72648
 94 02 20 01 57 00.0000000  0  5 02 07 12 13 27
  -8966728.06649  -6987042.81847         0.00041  21514510.14447  21514508.35649
 -24532357.74249 -19116076.63848         0.00041  20669267.96248  20669266.68549
  -5619324.97408  -4378688.87808  23911241.09308  23911244.89608         0.00001
 -19413285.44608 -15127215.77208  21045791.04208  21045793.11208         0.00001
  -9584669.53648  -7468554.57645         0.00041  23735082.28645  23735079.27648
 94 02 20 01 57 30.0000000  0  5 02 07 12 13 27
  -8932060.73249  -6960029.30647         0.00041  21521106.90747  21521105.35249
 -24493841.77949 -19086064.19448         0.00041  20676597.28148  20676596.11949
  -5709213.98408  -4448732.18808  23894135.77608  23894139.25208         0.00001
 -19473390.96508 -15174051.21908  21034353.35808  21034355.39608         0.00001
  -9474931.83848  -7383044.69645         0.00041  23755965.55245  23755961.44948
 94 02 20 01 58 00.0000000  0  5 02 07 12 13 27
  -8897217.13149  -6932878.44247         0.00041  21527737.51547  21527735.78449
 -24454947.43249 -19055756.90948         0.00041  20683998.50848  20683997.46049
  -5799080.31708  -4518757.82808  23877034.62308  23877038.38008         0.00001
 -19532949.42509 -15220460.38908  21023019.73509  21023021.77308         0.00001
  -9364999.54948  -7297383.16945         0.00041  23776882.36745  23776881.15548
 94 02 20 01 58 30.0000000  0  5 02 07 12 13 27
  -8862202.38549  -6905594.21847         0.00041  21534400.27747  21534398.87849
 -24415693.97549 -19025169.79548         0.00041  20691468.35648  20691467.08249
  -5888944.32008  -4588781.65208  23859934.05608  23859937.66008         0.00001
 -19591981.79809 -15266459.62308  21011786.24909  21011788.27908         0.00001
  -9254897.88148  -7211589.66645         0.00041  23797832.48145  23797833.11248
 94 02 20 01 59 00.0000000  0  5 02 07 12 13 27
  -8827000.51749  -6878164.18347         0.00041  21541098.93447  21541097.52449
 -24376073.61549 -18994296.78648         0.00041  20699007.86648  20699006.25449
  -5978801.50908  -4658800.16608  23842834.83708  23842838.26008         0.00001
 -19650483.76809 -15312045.55508  21000653.67509  21000655.69008         0.00001
  -9144628.40348  -7125665.40745         0.00041  23818817.23345  23818816.40648
 94 02 20 01 59 30.0000000  0  5 02 07 12 13 27
  -8791593.63049  -6850574.39247         0.00041  21547836.93347  21547835.36149
 -24336099.46949 -18963148.09948         0.00041  20706614.51348  20706613.29849
  -6068650.18408  -4728812.05208  23825737.14708  23825740.52208         0.00001
 -19708454.17109 -15357217.27908  20989622.23609  20989624.23408         0.00001
  -9034198.74148  -7039616.33245         0.00041  23839831.22345  23839830.06948
 94 02 20 02 00 00.0000000  0  5 02 07 12 13 27
  -8755964.55849  -6822811.47047         0.00041  21554616.79947  21554615.26349
 -24295783.18949 -18931732.81748         0.00041  20714286.58948  20714285.41149
  -6158488.95708  -4798816.22708  23808641.25808  23808644.74608         0.00001
 -19765892.32909 -15401974.26708  20978692.04809  20978694.11408         0.00001
  -8923619.70848  -6953450.87045         0.00041  23860877.80245  23860872.44448
 94 02 20 02 00 30.0000000  0  5 02 07 12 13 27
  -8720117.06049  -6794878.35047         0.00041  21561438.61247  21561436.72949
 -24255121.42149 -18900048.32148         0.00041  20722024.21448  20722022.87449
  -6248315.54608  -4868810.90408  23791547.80608  23791551.29708         0.00001
 -19822796.18709 -15446314.91508  20967863.59609  20967865.65308         0.00001
  -8812877.58648  -6867158.32745         0.00041  23881946.54145  23881945.93048
 94 02 20 02 01 00.0000000  0  5 02 07 12 13 27
  -8684070.84149  -6766790.38047         0.00041  21568297.69347  21568295.97649
 -24214120.16749 -18868099.29148         0.00041  20729826.49348  20729825.21549
  -6338131.93508  -4938797.63908  23774456.26708  23774459.65408         0.00001
 -19879168.60909 -15490241.45808  20957136.27509  20957138.35108         0.00001
  -8701977.24548  -6780742.48645         0.00041  23903056.22945  23903049.79948
 94 02 20 02 01 30.0000000  0  5 02 07 12 13 27
  -8647827.67049  -6738548.93847         0.00041  21575194.68947  21575192.99349
 -24172789.73349 -18835893.75848         0.00041  20737691.34848  20737690.20449
  -6427927.73908  -5008768.33308  23757368.72108  23757372.20308         0.00001
 -19934999.61809 -15533746.12308  20946512.04109  20946514.00508         0.00001
  -8590921.17148  -6694205.34945         0.00041  23924185.73045  23924182.91648
 94 02 20 02 02 00.0000000  0  5 02 07 12 13 27
  -8611385.27449  -6710152.25647         0.00041  21582129.42047  21582127.84149
 -24131109.97949 -18803416.02748         0.00041  20745622.69548  20745621.50249
  -6517682.50508  -5078707.05008  23740288.91008  23740292.17408         0.00001
 -19990269.57809 -15576813.60608  20935994.53709  20935996.48308         0.00001
  -8479694.18648  -6607534.99245         0.00041  23945353.09145  23945349.11248
 94 02 20 02 02 30.0000000  0  5 02 07 12 13 27
  -8574768.72349  -6681619.86847         0.00041  21589097.33047  21589095.66149
 -24089090.38149 -18770673.48148         0.00041  20753618.87548  20753617.63849
  -6607408.63308  -5148623.45408  23723214.49308  23723217.64308         0.00001
 -20044991.30509 -15619453.89308  20925581.29709  20925583.27108         0.00001
  -8368295.64048  -6520730.95945         0.00041  23966550.64245  23966547.39948
 94 02 20 02 03 00.0000000  0  6 02 05 07 12 13 27
  -8537966.12949  -6652942.51447         0.00041  21596100.45847  21596099.04949
        -0.26358         0.17854         0.00051  25386262.01154  25386256.82658
 -24046725.03349 -18737661.51848         0.00041  20761680.70948  20761679.57649
  -6697100.69808  -5218513.32007  23706146.61208  23706149.76607         0.00001
 -20099160.38409 -15661663.54508  20915273.21909  20915275.23308         0.00001
  -8256722.55548  -6433790.79645         0.00041  23987777.50745  23987778.84048
 94 02 20 02 03 30.0000000  0  6 02 05 07 12 13 27
  -8500949.86549  -6624098.65947         0.00041  21603144.51247  21603142.88149
    -76824.07248    -59862.46745         0.00041  25371640.65145  25371637.75148
 -24003991.85449 -18704362.93248         0.00041  20769812.54548  20769811.26049
  -6786739.37608  -5288361.58408  23689088.80308  23689092.10008         0.00001
 -20152758.04809 -15703427.93908  20905073.89709  20905075.92908         0.00001
  -8144956.37748  -6346700.36044         0.00041  24009046.91344  24009047.88048
 94 02 20 02 04 00.0000000  0  5 02 07 12 13 27
  -8463729.00949  -6595095.37947         0.00041  21610227.12847  21610225.57949
 -23960874.03649 -18670764.62748         0.00041  20778017.65348  20778016.29849
  -6876331.62908  -5358173.67708  23672040.09008  23672043.30008         0.00001
 -20205792.17209 -15744753.21208  20894981.79709  20894983.78708         0.00001
  -8032993.60948  -6259456.67844         0.00041  24030359.92044  24030353.67348
 94 02 20 02 04 30.0000000  0  6 02 05 07 12 13 27
  -8426358.01449  -6565975.10647         0.00041  21617338.77547  21617336.97449
        -1.14558        -0.29954         0.00051  25342390.79954  25342388.00458
 -23917433.44249 -18636914.80848         0.00041  20786284.17548  20786282.92249
  -6965931.18608  -5427991.46208  23654989.77208  23654993.01208         0.00001
 -20258316.96109 -15785681.59808  20884986.67809  20884988.66108         0.00001
  -7920895.68948  -6172107.63545         0.00041  24051687.12445  24051685.25148
 94 02 20 02 05 00.0000000  0  6 02 05 07 12 13 27
  -8388827.64549  -6536730.65347         0.00041  21624480.64947  21624478.91849
    -76949.39148    -59959.92644         0.00041  25327749.07744  25327744.40348
 -23873677.38249 -18602819.17148         0.00041  20794610.52248  20794609.37849
  -7055522.79108  -5497803.04908  23637941.03608  23637944.42708         0.00001
 -20310318.30509 -15826202.10608  20875091.11409  20875093.13108         0.00001
  -7808674.96848  -6084662.95145         0.00041  24073044.19445  24073040.68748
 94 02 20 02 05 30.0000000  0  6 02 05 07 12 13 27
  -8351138.70249  -6507362.63347         0.00041  21631652.81647  21631651.03649
   -153979.50348   -119983.43044         0.00041  25313090.12244  25313086.75348
 -23829624.53149 -18568492.26848         0.00041  20802993.36048  20802992.18549
  -7145098.30108  -5567602.09308  23620895.33308  23620898.72208         0.00001
 -20361788.73009 -15866308.90708  20865296.55409  20865298.65808         0.00001
  -7696348.99748  -5997136.24045         0.00041  24094418.44445  24094415.44248
 94 02 20 02 06 00.0000000  0  6 02 05 07 12 13 27
  -8313274.98049  -6477858.42047         0.00041  21638857.83547  21638856.12449
   -231067.50348   -180051.84344         0.00041  25298423.41144  25298418.71848
 -23785273.51849 -18533933.03048         0.00041  20811433.11248  20811431.78849
  -7234640.07708  -5637374.85108  23603856.01008  23603859.49208         0.00001
 -20412711.85309 -15905989.24408  20855606.25409  20855608.25608         0.00001
  -7583907.87848  -5909519.80845         0.00041  24115815.41445  24115812.63548
 94 02 20 02 06 30.0000000  0  6 02 05 07 12 13 27
  -8275203.47049  -6448192.29247         0.00041  21646102.38047  21646100.68949
   -308189.69748   -240146.84444         0.00041  25283752.87344  25283741.95748
 -23740615.67049 -18499134.69748         0.00041  20819931.19348  20819929.88149
  -7324127.27208  -5707105.07608  23586827.12308  23586830.56208         0.00001
 -20463067.55309 -15945227.43308  20846023.84809  20846025.91408         0.00001
  -7471338.97548  -5821803.79145         0.00041  24137234.47345  24137233.17048
 94 02 20 02 07 00.0000000  0  6 02 05 07 12 13 27
  -8236898.88049  -6418344.55747         0.00041  21653391.83847  21653390.06349
   -385327.15148   -300253.91444         0.00041  25269065.82044  25269063.08748
 -23695626.59449 -18464078.26548         0.00041  20828492.60848  20828491.28049
  -7413543.07908  -5776779.66308  23569811.72408  23569815.25308         0.00001
 -20512839.99609 -15984011.13608  20836552.43109  20836554.45408         0.00001
  -7358633.70948  -5733981.52644         0.00041  24158686.18144  24158679.97348
 94 02 20 02 07 30.0000000  0  6 02 05 07 12 13 27
  -8198360.21649  -6388314.41547         0.00041  21660725.61547  21660723.77349
   -462466.39848   -360362.33144         0.00041  25254389.07944  25254385.90748
 -23650288.14849 -18428749.59648         0.00041  20837119.92048  20837118.97249
  -7502890.71608  -5846401.12108  23552809.40808  23552812.88808         0.00001
 -20562033.57809 -16022343.78008  20827191.18809  20827193.23708         0.00001
  -7245783.31448  -5646046.16445         0.00041  24180157.02945  24180153.89948
 94 02 20 02 08 00.0000000  0  6 02 05 07 12 13 27
  -8159599.54549  -6358111.28347         0.00041  21668101.08247  21668099.58449
   -539597.33548   -420464.32144         0.00041  25239711.16344  25239708.65748
 -23604588.76549 -18393139.67648         0.00041  20845816.11948  20845815.16949
  -7592175.62708  -5915973.70408  23535819.09408  23535822.48808         0.00001
 -20610654.61709 -16060230.28608  20817938.87409  20817940.92208         0.00001
  -7132770.92247  -5557984.62144         0.00041  24201662.38644  24201658.80747
 94 02 20 02 08 30.0000000  0  6 02 05 07 12 13 27
  -8120645.38049  -6327757.38547         0.00041  21675513.74847  21675512.18349
   -616740.70448   -480575.98144         0.00041  25225030.91644  25225027.83248
 -23558548.44749 -18357264.09148         0.00041  20854577.35348  20854576.24749
  -7681413.63308  -5985509.74708  23518837.72208  23518840.99508         0.00001
 -20658720.11209 -16097683.89808  20808792.28609  20808794.37908         0.00001
  -7019610.69948  -5469807.85545         0.00041  24223193.76245  24223193.48848
 94 02 20 02 09 00.0000000  0  6 02 05 07 12 13 27
  -8081524.33349  -6297273.44547         0.00041  21682958.51547  21682956.95149
   -693914.09448   -540710.98445         0.00041  25210347.15245  25210341.07548
 -23512190.58649 -18321141.07648         0.00041  20863398.99048  20863397.68249
  -7770614.08008  -6055016.52908  23501863.39008  23501866.59908         0.00001
 -20706240.70609 -16134712.90908  20799749.38809  20799751.48608         0.00001
  -6906301.50448  -5381515.00144         0.00041  24244762.29544  24244756.54548
 94 02 20 02 09 30.0000000  0  6 02 05 07 12 13 27
  -8042228.92749  -6266653.64147         0.00041  21690436.19247  21690434.70249
   -771114.78848   -600867.27144         0.00041  25195655.57444  25195649.97548
 -23465515.14749 -18284770.59248         0.00041  20872281.08348  20872279.85149
  -7859771.55608  -6124489.82608  23484897.09208  23484900.30908         0.00001
 -20753211.90709 -16171313.82508  20790811.12609  20790813.16508         0.00001
  -6792816.73448  -5293085.33544         0.00041  24266359.98144  24266351.48348
 94 02 20 02 10 00.0000000  0  6 02 05 07 12 13 27
  -8002741.71649  -6235884.38047         0.00041  21697950.20147  21697948.62849
   -848344.25248   -661046.05945         0.00041  25180958.26045  25180953.76148
 -23418536.85549 -18248164.12048         0.00041  20881220.75648  20881219.53849
  -7948881.52408  -6193926.10108  23467939.88408  23467943.13108         0.00001
 -20799630.42409 -16207484.08008  20781977.95209  20781979.97208         0.00001
  -6679156.32148  -5204518.76044         0.00041  24287986.50444  24287979.94748
 94 02 20 02 10 30.0000000  0  6 02 05 07 12 13 27
  -7963052.01649  -6204957.33547         0.00041  21705503.21947  21705501.37549
   -925620.14548   -721261.01745         0.00041  25166250.33645  25166248.48348
 -23371268.76649 -18211331.83148         0.00041  20890215.83248  20890214.45849
  -8037947.27508  -6263327.91608  23450991.16608  23450994.53408         0.00001
 -20845500.79309 -16243227.20808  20773249.08009  20773251.17308         0.00001
  -6565343.55248  -5115833.49944         0.00041  24309639.87944  24309637.99448
 94 02 20 02 11 00.0000000  0  6 02 05 07 12 13 27
  -7923149.42449  -6173864.39647         0.00041  21713096.04547  21713094.44749
  -1002956.72648   -781523.21944         0.00041  25151537.28344  25151531.76048
 -23323709.95549 -18174273.00348         0.00041  20899265.82348  20899264.51849
  -8126970.37108  -6332696.48308  23434050.73108  23434053.93508         0.00001
 -20890825.92709 -16278545.47708  20764624.00109  20764626.03908         0.00001
  -6451401.56348  -5027047.55344         0.00041  24331323.05844  24331321.65848
 94 02 20 02 11 30.0000000  0  6 02 05 07 12 13 27
  -7883042.27749  -6142612.06547         0.00041  21720728.31347  21720726.76449
  -1080357.19348   -841835.31344         0.00041  25136808.95444  25136802.37348
 -23275872.45249 -18136997.01548         0.00041  20908368.80248  20908367.38449
  -8215967.11108  -6402044.51608  23417115.22808  23417118.34508         0.00001
 -20935623.21809 -16313452.44208  20756099.34109  20756101.34708         0.00001
  -6337374.63648  -4938195.43344         0.00041  24353017.94744  24353021.07548
 94 02 20 02 12 00.0000000  0  6 02 05 07 12 13 27
  -7842761.20449  -6111224.21347         0.00041  21728393.31847  21728392.03749
  -1157835.41448   -902207.89845         0.00041  25122063.82245  25122058.71348
 -23227771.03349 -18099515.37848         0.00041  20917522.02348  20917520.74949
  -8304947.03408  -6471379.44808  23400182.85208  23400186.03408         0.00001
 -20979903.77009 -16347956.75208  20747673.00609  20747675.01908         0.00001
  -6223299.82748  -4849306.03345         0.00041  24374727.91945  24374728.05448
 94 02 20 02 12 30.0000000  0  6 02 05 07 12 13 27
  -7802289.48749  -6079687.80447         0.00041  21736094.57847  21736093.51049
  -1235363.24748   -962619.20545         0.00041  25107308.97445  25107305.79948
 -23179358.86649 -18061791.59948         0.00041  20926734.73248  20926733.60949
  -8393867.70208  -6540668.20608  23383261.75108  23383264.99608         0.00001
 -21023626.31109 -16382026.24908  20739352.83009  20739354.88508         0.00001
  -6109150.40648  -4760358.42644         0.00041  24396453.26944  24396449.18348
 94 02 20 02 13 00.0000000  0  6 02 05 07 12 13 27
  -7761595.72149  -6047978.36347         0.00041  21743838.48247  21743837.21149
  -1312907.48348  -1023043.21545         0.00041  25092553.59645  25092550.86948
 -23130601.60449 -18023798.91848         0.00041  20936012.91148  20936011.74249
  -8482698.17208  -6609886.67408  23366357.66708  23366360.87708         0.00001
 -21066761.38009 -16415637.97608  20731144.53709  20731146.55808         0.00001
  -5994896.16048  -4671329.13744         0.00041  24418195.94244  24418191.12448
 94 02 20 02 13 30.0000000  0  6 02 05 07 12 13 27
  -7720696.27149  -6016108.64947         0.00041  21751621.57247  21751619.95649
  -1390471.57648  -1083482.71945         0.00041  25077795.36745  25077790.91348
 -23081511.05749 -17985546.53248         0.00041  20945354.29548  20945353.40549
  -8571448.39508  -6679042.61008  23349468.89208  23349472.18708         0.00001
 -21109320.43309 -16448800.85908  20723045.82809  20723047.84108         0.00001
  -5880531.76548  -4582214.10944         0.00041  24439957.68344  24439954.08548
 94 02 20 02 14 00.0000000  0  6 02 05 07 12 13 27
  -7679588.65149  -5984076.73347         0.00041  21759444.19247  21759442.56749
  -1468075.80448  -1143953.48745         0.00041  25063026.97345  25063022.83848
 -23032102.19449 -17947046.10648         0.00041  20954756.53548  20954755.70249
  -8660118.77808  -6748136.33108  23332595.42208  23332598.58308         0.00001
 -21151305.31209 -16481516.33208  20715056.32809  20715058.30208         0.00001
  -5766056.01348  -4493012.25644         0.00041  24461741.13144  24461738.01748
 94 02 20 02 14 30.0000000  0  6 02 05 07 12 13 27
  -7638254.15249  -5951868.02447         0.00041  21767309.75947  21767308.34549
  -1545714.97048  -1204451.47645         0.00041  25048253.90145  25048248.45848
 -22982388.29349 -17908307.98848         0.00041  20964217.01748  20964215.79549
  -8748706.09408  -6817165.32808  23315737.83308  23315740.85808         0.00001
 -21192714.05209 -16513782.86608  20707176.49709  20707178.50608         0.00001
  -5651456.18948  -4403713.72445         0.00041  24483547.13045  24483545.96848
 94 02 20 02 15 00.0000000  0  6 02 05 07 12 13 27
  -7596677.09849  -5919470.31147         0.00041  21775221.57547  21775220.02849
  -1623356.52348  -1264951.33545         0.00041  25033476.10045  25033472.93948
 -22932374.12249 -17869335.90048         0.00041  20973734.31448  20973732.89549
  -8837200.93608  -6886122.27208  23298897.86108  23298900.73208         0.00001
 -21233539.23209 -16545594.67908  20699407.74009  20699409.70708         0.00001
  -5536709.95148  -4314301.04845         0.00041  24505383.29045  24505380.92948
 94 02 20 02 15 30.0000000  0  6 02 05 07 12 13 27
  -7554890.00549  -5886908.92847         0.00041  21783173.23747  21783171.95149
  -1701003.99448  -1325455.78445         0.00041  25018703.15945  25018697.36648
 -22882097.82149 -17830159.55348         0.00041  20983301.41648  20983300.23649
  -8925620.57508  -6955020.62008  23282072.20308  23282075.16308         0.00001
 -21273799.38909 -16576966.21308  20691746.45009  20691748.42608         0.00001
  -5421844.23248  -4224795.31544         0.00041  24527242.00044  24527239.45548
 94 02 20 02 16 00.0000000  0  6 02 05 07 12 13 27
  -7512891.14149  -5854182.53147         0.00041  21791165.81647  21791164.05149
  -1778647.02248  -1385956.75245         0.00041  25003925.60645  25003922.57848
 -22831563.30749 -17790782.00448         0.00041  20992917.94648  20992916.79249
  -9013958.48008  -7023855.27608  23265262.02208  23265264.89108         0.00001
 -21313489.64709 -16607893.66908  20684193.67609  20684195.56308         0.00001
  -5306866.73348  -4135202.51344         0.00041  24549124.71944  24549119.14048
 94 02 20 02 16 30.0000000  0  6 02 05 07 12 13 27
  -7470701.85149  -5821307.75547         0.00041  21799193.95247  21799192.21249
  -1856281.68148  -1446451.20646         0.00041  24989153.10946  24989149.56848
 -22780768.62449 -17751201.72548         0.00041  21002583.87848  21002582.56949
  -9102225.79708  -7092634.92308  23248465.21408  23248468.16008         0.00001
 -21352622.93309 -16638387.12308  20676746.84509  20676748.76008         0.00001
  -5191791.28548  -4045533.31045         0.00041  24571015.46645  24571016.94148
 94 02 20 02 17 00.0000000  0  6 02 05 07 12 13 27
  -7428325.13549  -5788286.93447         0.00041  21807257.81647  21807256.36149
  -1933918.86448  -1506947.59345         0.00041  24974381.33445  24974376.04348
 -22729698.19549 -17711406.58248         0.00041  21012302.40248  21012300.99849
  -9190427.45108  -7161363.39908  23231680.91108  23231683.85008         0.00001
 -21391205.68909 -16668451.58708  20669404.68809  20669406.72408         0.00001
  -5076643.16548  -3955807.51745         0.00041  24592931.32545  24592928.92648
 94 02 20 02 17 30.0000000  0  6 02 05 07 12 13 27
  -7385761.24549  -5755120.26047         0.00041  21815357.39847  21815356.09449
  -2011597.43348  -1567476.27245         0.00041  24959597.09445  24959593.26448
 -22678342.83349 -17671389.41048         0.00041  21022075.15548  21022073.58849
  -9278564.27408  -7230041.35708  23214908.96608  23214911.92508         0.00001
 -21429240.54909 -16698089.12108  20662166.90709  20662168.86808         0.00001
  -4961435.09548  -3866035.01444         0.00041  24614852.95944  24614852.44148
 94 02 20 02 18 00.0000000  0  6 02 05 07 12 13 27
  -7343001.76449  -5721801.18247         0.00041  21823494.51747  21823493.05049
  -2089333.31148  -1628049.57645         0.00041  24944803.96045  24944801.02548
 -22626681.89749 -17631134.12948         0.00041  21031905.57748  21031904.21749
  -9366626.97008  -7298661.55108  23198150.98108  23198153.99708         0.00001
 -21466719.94809 -16727293.82908  20655034.78809  20655036.74008         0.00001
  -4846161.25248  -3776211.19445         0.00041  24636789.25245  24636788.23448
 94 02 20 02 18 30.0000000  0  6 02 05 07 12 13 27
  -7300031.12549  -5688317.55147         0.00041  21831671.30147  21831670.03549
  -2167128.97348  -1688669.42245         0.00041  24930001.02345  24929997.43248
 -22574707.61349 -17590634.68248         0.00041  21041795.94648  21041794.68649
  -9454606.39508  -7367216.86008  23181408.97708  23181411.95008         0.00001
 -21503636.46409 -16756059.92708  20648009.80009  20648011.74008         0.00001
  -4730812.96348  -3686329.52445         0.00041  24658738.60545  24658738.05348
 94 02 20 02 19 00.0000000  0  6 02 05 07 12 13 27
  -7256847.85549  -5654668.24247         0.00041  21839888.98047  21839887.45449
  -2244990.77248  -1749340.89045         0.00041  24915182.70045  24915181.47248
 -22522429.48749 -17549898.47148         0.00041  21051744.22148  21051743.05949
  -9542493.93408  -7435700.57508  23164684.57408  23164687.33908         0.00001
 -21539983.34409 -16784382.15308  20641093.24909  20641095.19808         0.00001
  -4615379.81148  -3596381.55845         0.00041  24680709.43345  24680704.29948
 94 02 20 02 19 30.0000000  0  6 02 05 07 12 13 27
  -7213450.17549  -5620851.86947         0.00041  21848147.03447  21848145.68549
  -2322897.75048  -1810047.50845         0.00041  24900360.40945  24900356.47948
 -22469860.35149 -17508935.50348         0.00041  21061747.82748  21061746.51049
  -9630276.66808  -7504102.62308  23147980.03308  23147982.80808         0.00001
 -21575749.63509 -16812251.97108  20634287.13609  20634289.08908         0.00001
  -4499839.05348  -3506349.82845         0.00041  24702695.67345  24702691.14048
 94 02 20 02 20 00.0000000  0  6 02 05 07 12 13 27
  -7169836.63249  -5586867.28347         0.00041  21856446.45947  21856445.28549
  -2400826.67548  -1870771.09946         0.00041  24885527.14946  24885525.89148
 -22417017.00549 -17467758.86448         0.00041  21071803.54548  21071802.40249
  -9717955.07208  -7572423.37908  23131295.35908  23131298.03208         0.00001
 -21610937.61409 -16839671.15708  20627591.02309  20627593.01208         0.00001
  -4384190.51348  -3416234.15545         0.00041  24724701.13745  24724698.35648
 94 02 20 02 20 30.0000000  0  6 02 05 07 12 13 27
  -7125997.63549  -5552707.01947         0.00041  21864788.80747  21864787.49149
  -2478761.91648  -1931499.86845         0.00041  24870696.61345  24870695.55848
 -22363897.30649 -17426366.88348         0.00041  21081911.81848  21081910.76549
  -9805522.83408  -7640657.91908  23114631.73108  23114634.49308         0.00001
 -21645542.79409 -16866636.21308  20621005.87309  20621007.88708         0.00001
  -4268409.22448  -3326015.00645         0.00041  24746733.72745  24746730.87748
 94 02 20 02 21 00.0000000  0  6 02 05 07 12 13 27
  -7081951.24649  -5518385.14947         0.00041  21873170.69847  21873169.01549
  -2556704.99048  -1992234.60945         0.00041  24855865.15245  24855862.91248
 -22310513.14049 -17384768.82248         0.00041  21092070.41048  21092069.22649
  -9892988.73408  -7708813.09108  23097987.46508  23097990.21408         0.00001
 -21679575.97309 -16893155.55708  20614529.61809  20614531.52708         0.00001
  -4152513.58948  -3235706.74845         0.00041  24768787.93245  24768785.42648
 94 02 20 02 21 30.0000000  0  6 02 05 07 12 13 27
  -7037698.62848  -5483902.58447         0.00041  21881591.45347  21881589.89848
  -2634661.74548  -2052980.00645         0.00041  24841031.98345  24841026.63548
 -22256868.08849 -17342967.47348         0.00041  21102278.65248  21102277.55349
  -9980359.81708  -7776894.38308  23081361.15708  23081364.00308         0.00001
 -21713046.20509 -16919236.23708  20608160.38009  20608162.34308         0.00001
  -4036525.74848  -3145326.63445         0.00041  24790862.50745  24790857.38848
 94 02 20 02 22 00.0000000  0  6 02 05 07 12 13 27
  -6993251.24249  -5449268.25747         0.00041  21890049.74647  21890048.18449
  -2712654.32548  -2113753.35645         0.00041  24826186.01945  24826184.09848
 -22202964.25149 -17300964.47548         0.00041  21112536.36548  21112535.23649
 -10067650.26708  -7844912.84608  23064750.25108  23064753.03508         0.00001
 -21745969.63909 -16944890.84308  20601895.25009  20601897.21208         0.00001
  -3920471.26148  -3054894.58246         0.00041  24812944.77746  24812941.97248
 94 02 20 02 22 30.0000000  0  6 02 05 07 12 13 27
  -6948608.30749  -5414481.55747         0.00041  21898545.14247  21898543.59149
  -2790680.03948  -2174552.50245         0.00041  24811340.75545  24811336.09048
 -22148797.25349 -17258756.41348         0.00041  21122843.96948  21122843.00749
 -10154855.69808  -7912865.06508  23048155.54908  23048158.36208         0.00001
 -21778343.98409 -16970117.58708  20595734.60509  20595736.55308         0.00001
  -3804355.96548  -2964415.16645         0.00041  24835040.32545  24835037.63848
 94 02 20 02 23 00.0000000  0  6 02 05 07 12 13 27
  -6903759.47249  -5379534.40447         0.00041  21907079.35347  21907077.90949
  -2868735.31548  -2235374.66445         0.00041  24796488.19845  24796483.63648
 -22094365.06849 -17216341.71348         0.00041  21133201.89248  21133200.84149
 -10241964.54708  -7980742.02908  23031579.33508  23031581.97308         0.00001
 -21810159.81109 -16994909.12308  20589680.27209  20589682.18108         0.00001
  -3688199.57948  -2873903.74945         0.00041  24857143.86545  24857141.48948
 94 02 20 02 23 30.0000000  0  6 02 05 07 12 13 27
  -6858686.68648  -5344412.74547         0.00041  21915656.39147  21915655.01948
  -2946814.88348  -2296215.78545         0.00041  24781630.55645  24781625.63648
 -22039652.59849 -17173708.61048         0.00041  21143613.50148  21143612.36249
 -10328959.40808  -8048530.17808  23015024.77308  23015027.44508         0.00001
 -21841401.84309 -17019253.54408  20583735.09509  20583736.99208         0.00001
  -3571980.47248  -2783343.49445         0.00041  24879260.52845  24879257.23548
 94 02 20 02 24 00.0000000  0  6 02 05 07 12 13 27
  -6813417.10448  -5309137.74047         0.00041  21924271.08447  21924269.41548
  -3024934.61548  -2357088.15045         0.00041  24766763.43845  24766759.75148
 -21984690.20249 -17130880.76248         0.00041  21154072.72548  21154071.53349
 -10415861.66608  -8116246.16708  22998487.73008  22998490.45108         0.00001
 -21872093.57509 -17043169.16008  20577894.64409  20577896.52008         0.00001
  -3455708.97248  -2692742.43145         0.00041  24901384.56645  24901383.19048
 94 02 20 02 24 30.0000000  0  6 02 05 07 12 13 27
  -6767944.01948  -5273704.16547         0.00041  21932924.28347  21932922.53948
  -3103087.51948  -2417986.37645         0.00041  24751892.63345  24751888.16248
 -21929468.87849 -17087851.15248         0.00041  21164580.58548  21164579.50549
 -10502649.46908  -8183872.96408  22981972.49208  22981975.22008         0.00001
 -21902215.24509 -17066640.57408  20572162.63709  20572164.54608         0.00001
  -3339367.35048  -2602086.70945         0.00041  24923523.95545  24923521.91648
 94 02 20 02 25 00.0000000  0  6 02 05 07 12 13 27
  -6722279.26948  -5238121.24247         0.00041  21941614.13847  21941612.22948
  -3181289.83148  -2478923.06545         0.00041  24737008.65845  24737005.61848
 -21873986.33849 -17044617.99648         0.00041  21175138.70748  21175137.70549
 -10589324.53608  -8251411.90908  22965478.74008  22965481.44608         0.00001
 -21931770.87409 -17089670.91608  20566538.39709  20566540.21808         0.00001
  -3222971.33048  -2511388.36745         0.00041  24945673.17245  24945670.79948
 94 02 20 02 25 30.0000000  0  6 02 05 07 12 13 27
  -6676431.03848  -5202395.34947         0.00041  21950338.74747  21950336.99148
  -3259540.53548  -2539897.71845         0.00041  24722119.25045  24722113.99148
 -21818250.52549 -17001187.48248         0.00041  21185744.82748  21185743.77449
 -10675886.55008  -8318862.76408  22949006.53008  22949009.17008         0.00001
 -21960762.49809 -17112261.77308  20561021.46409  20561023.27608         0.00001
  -3106514.17448  -2420642.50145         0.00041  24967834.83945  24967831.88348
 94 02 20 02 26 00.0000000  0  6 02 05 07 12 13 27
  -6630374.51048  -5166507.13347         0.00041  21959102.44847  21959101.19548
  -3337820.77248  -2600894.93746         0.00041  24707221.21446  24707218.73848
 -21762254.80049 -16957554.44348         0.00041  21196400.39248  21196399.16349
 -10762314.92908  -8386209.49808  22932559.72508  22932562.35508         0.00001
 -21989171.90009 -17134398.95108  20555615.35409  20555617.12908         0.00001
  -2989985.22748  -2329840.73445         0.00041  24990006.36845  24990007.14448
 94 02 20 02 26 30.0000000  0  6 02 05 07 12 13 27
  -6584090.42948  -5130441.61747         0.00041  21967910.40947  21967908.79648
  -3416130.13048  -2661915.26145         0.00041  24692319.72545  24692316.98248
 -21705991.44449 -16913712.86448         0.00041  21207106.90648  21207105.73449
 -10848597.06408  -8453442.27808  22916140.73708  22916143.30008         0.00001
 -22016988.68209 -17156074.34708  20550321.96309  20550323.80808         0.00001
  -2873384.98748  -2238983.47445         0.00041  25012197.27445  25012195.78048
 94 02 20 02 27 00.0000000  0  6 02 05 07 12 13 27
  -6537579.94748  -5094199.68047         0.00041  21976761.04347  21976759.61148
  -3494470.56048  -2722959.57445         0.00041  24677411.29245  24677409.42948
 -21649490.52649 -16869686.16648         0.00041  21217858.84848  21217857.65749
 -10934750.67708  -8520574.90708  22899746.13208  22899748.80108         0.00001
 -22044232.82809 -17177303.53108  20545137.58709  20545139.39708         0.00001
  -2756725.64548  -2148080.07345         0.00041  25034400.37545  25034394.65148
 94 02 20 02 27 30.0000000  0  6 02 05 07 12 13 27
  -6490827.50048  -5057769.19947         0.00041  21985657.42147  21985656.15348
  -3572837.37048  -2784024.48145         0.00041  24662500.96845  24662497.51948
 -21592764.72849 -16825484.23748         0.00041  21228653.21148  21228652.09449
 -11020774.95808  -8587606.75208  22883376.11808  22883378.95108         0.00001
 -22070905.85909 -17198087.69308  20540061.84809  20540063.69508         0.00001
  -2639990.55648  -2057117.65644         0.00041  25056611.21444  25056607.80448
 94 02 20 02 28 00.0000000  0  6 02 05 07 12 13 27
  -6443811.42948  -5021133.30847         0.00041  21994604.47647  21994603.00848
  -3651213.09048  -2845096.48645         0.00041  24647586.10945  24647583.15248
 -21535786.14449 -16781085.33648         0.00041  21239495.99448  21239494.90749
 -11106653.74008  -8654525.21908  22867033.89908  22867036.70508         0.00001
 -22096994.18709 -17218416.23808  20535097.39109  20535099.19308         0.00001
  -2523170.37348  -1966088.98844         0.00041  25078840.14944  25078837.84248
 94 02 20 02 28 30.0000000  0  6 02 05 07 12 13 27
  -6396552.77248  -4984308.37847         0.00041  22003597.39247  22003596.12448
  -3729604.56148  -2906180.60345         0.00041  24632668.54545  24632665.75848
 -21478557.41449 -16736491.51448         0.00041  21250386.17048  21250385.03749
 -11192399.63808  -8721340.14808  22850717.15108  22850719.68408         0.00001
 -22122512.88509 -17238300.91708  20530241.30209  20530243.09108         0.00001
  -2406290.94348  -1875014.10845         0.00041  25101083.92245  25101080.69648
 94 02 20 02 29 00.0000000  0  6 02 05 07 12 13 27
  -6349074.51348  -4947312.32447         0.00041  22012632.07247  22012631.02048
  -3808026.30348  -2967288.37345         0.00041  24617747.65645  24617742.05148
 -21421091.28449 -16691712.70448         0.00041  21261321.76248  21261320.51949
 -11278033.35508  -8788067.67008  22834421.55408  22834423.98908         0.00001
 -22147485.29809 -17257759.91908  20525489.20509  20525491.00208         0.00001
  -2289381.98048  -1783916.26045         0.00041  25123328.34345  25123328.36848
 94 02 20 02 29 30.0000000  0  6 02 05 07 12 13 27
  -6301382.03748  -4910149.36846         0.00041  22021708.00346  22021706.40748
  -3886472.45648  -3028415.19245         0.00041  24602817.54145  24602815.23548
 -21363370.64349 -16646735.57648         0.00041  21272305.49148  21272304.37049
 -11363548.06908  -8854702.46108  22818148.46808  22818150.90508         0.00001
 -22171906.82709 -17276789.66208  20520841.92709  20520843.75608         0.00001
  -2172454.41248  -1692803.84945         0.00041  25145582.52845  25145577.83148
 94 02 20 02 30 00.0000000  0  6 02 05 07 12 13 27
  -6253494.41848  -4872834.33746         0.00041  22030820.19346  22030818.87248
  -3964937.46948  -3089556.65545         0.00041  24587886.37645  24587883.30948
 -21305408.63249 -16601570.36548         0.00041  21283335.27948  21283334.25249
 -11448948.95608  -8921248.55208  22801897.13508  22801899.56308         0.00001
 -22195785.43009 -17295396.34308  20516297.97209  20516299.81008         0.00001
  -2055530.05948  -1601694.02945         0.00041  25167829.05645  25167827.29848
 94 02 20 02 30 30.0000000  0  6 02 05 07 12 13 27
  -6205398.82248  -4835357.24846         0.00041  22039972.91146  22039971.35648
  -4043418.43248  -3150710.59445         0.00041  24572951.24745  24572947.94748
 -21247217.63249 -16556226.72248         0.00041  21294408.63948  21294407.57749
 -11534227.28408  -8987699.14108  22785669.27108  22785671.54508         0.00001
 -22219114.79609 -17313575.04708  20511858.53409  20511860.35608         0.00001
  -1938599.13148  -1510579.05244         0.00041  25190084.39544  25190078.35548
 94 02 20 02 31 00.0000000  0  6 02 05 07 12 13 27
  -6157087.20648  -4797711.84047         0.00041  22049166.51047  22049164.73048
  -4121904.23148  -3211868.29945         0.00041  24558017.91845  24558013.55848
 -21188791.42249 -16510699.79748         0.00041  21305526.94248  21305525.64549
 -11619366.92608  -9054041.66808  22769467.73408  22769470.11108         0.00001
 -22241881.45109 -17331315.27608  20507526.14309  20507527.96208         0.00001
  -1821633.68948  -1419437.04244         0.00041  25212340.02844  25212336.40148
 94 02 20 02 31 30.0000000  0  6 02 05 07 12 13 27
  -6108555.57548  -4759894.98747         0.00041  22058401.28047  22058400.47548
  -4200385.09248  -3273022.19345         0.00041  24543083.46645  24543078.97648
 -21130128.55349 -16464988.46848         0.00041  21316689.78448  21316688.64249
 -11704347.62308  -9120260.34308  22753296.43708  22753298.88608         0.00001
 -22264067.87409 -17348603.37708  20503304.22809  20503306.01508         0.00001
  -1704610.56048  -1328250.25444         0.00041  25234607.47344  25234605.84448
 94 02 20 02 32 00.0000000  0  6 02 05 07 12 13 27
  -6059815.52148  -4721915.73246         0.00041  22067676.53446  22067674.94848
  -4278887.06648  -3334192.50845         0.00041  24528143.66345  24528139.91348
 -21071250.84449 -16419109.72748         0.00041  21327893.90748  21327892.86649
 -11789184.12208  -9186366.64908  22737152.43508  22737155.01108         0.00001
 -22285691.36409 -17365452.83008  20499189.41409  20499191.19808         0.00001
  -1587536.61648  -1237023.77144         0.00041  25256881.32944  25256883.70148
 94 02 20 02 32 30.0000000  0  6 02 05 07 12 13 27
  -6010884.97748  -4683788.04046         0.00041  22076988.05446  22076986.03348
  -4357456.88348  -3395415.66545         0.00041  24513194.63345  24513188.74348
 -21012173.65649 -16373075.54648         0.00041  21339135.64248  21339134.91849
 -11873897.06708  -9252376.67208  22721031.84808  22721034.62808         0.00001
 -22306775.38709 -17381881.91808  20495177.20309  20495179.01208         0.00001
  -1470432.87548  -1145774.08244         0.00041  25279168.75144  25279167.81148
 94 02 20 02 33 00.0000000  0  6 02 05 07 12 13 27
  -5961755.22248  -4645505.12246         0.00041  22086336.83146  22086335.16348
  -4436073.01348  -3456674.95045         0.00041  24498233.03345  24498228.87648
 -20952869.98249 -16326864.88348         0.00041  21350420.94248  21350420.08549
 -11958464.22208  -9318273.08908  22704939.19208  22704941.96108         0.00001
 -22327300.46909 -17397875.46908  20491271.38809  20491273.15508         0.00001
  -1353290.87448  -1054494.61645         0.00041  25301459.61345  25301459.31948
 94 02 20 02 33 30.0000000  0  6 02 05 07 12 13 27
  -5912402.84048  -4607048.71946         0.00041  22095728.21246  22095726.65448
  -4514732.55348  -3517968.03445         0.00041  24483263.34145  24483260.43748
 -20893334.27149 -16280473.41347         0.00041  21361750.39147  21361749.41449
 -12042875.59008  -9384048.11808  22688876.35108  22688878.85508         0.00001
 -22347259.37209 -17413427.84108  20487473.28009  20487475.08708         0.00001
  -1236107.46748   -963182.80344         0.00041  25323763.12444  25323758.89648
 94 02 20 02 34 00.0000000  0  6 02 05 07 12 13 27
  -5862795.51648  -4568393.66046         0.00041  22105168.26146  22105166.76348
  -4593413.51148  -3579277.81545         0.00041  24468290.34245  24468287.20848
 -20833539.84249 -16233880.34647         0.00041  21373129.17847  21373128.01849
 -12127110.88408  -9449685.95408  22672846.95508  22672849.42308         0.00001
 -22366634.58409 -17428525.39008  20483786.32209  20483788.12108         0.00001
  -1118868.89548   -871828.10744         0.00041  25346076.44344  25346068.32348
 94 02 20 02 34 30.0000000  0  6 02 05 07 12 13 27
  -5812962.14048  -4529562.46046         0.00041  22114650.72446  22114649.33048
  -4672131.87048  -3640616.74145         0.00041  24453311.96845  24453308.02248
 -20773513.18649 -16187106.31847         0.00041  21384551.60647  21384550.41349
 -12211188.75808  -9515201.12508  22656847.44308  22656849.87608         0.00001
 -22385447.60309 -17443184.86608  20480206.32409  20480208.06608         0.00001
  -1001603.23248   -780452.25645         0.00041  25368384.00845  25368382.95048
 94 02 20 02 35 00.0000000  0  6 02 05 07 12 13 27
  -5762917.61348  -4490566.71946         0.00041  22124173.88646  22124172.67348
  -4750876.76048  -3701976.33245         0.00041  24438325.56145  24438323.26148
 -20713263.14649 -16140158.22847         0.00041  21396016.90847  21396015.90249
 -12295108.88208  -9580593.37208  22640877.93308  22640880.27908         0.00001
 -22403701.27909 -17457408.49008  20476732.70409  20476734.51208         0.00001
   -884311.68348   -689056.21444         0.00041  25390705.59344  25390702.91548
 94 02 20 02 35 30.0000000  0  6 02 05 07 12 13 27
  -5712656.70048  -4451402.39046         0.00041  22133738.40046  22133736.90248
  -4829649.06048  -3763357.30545         0.00041  24423333.95445  24423332.78448
 -20652791.02849 -16093037.09047         0.00041  21407524.12847  21407523.16149
 -12378868.16908  -9645860.28808  22624938.99908  22624941.30208         0.00001
 -22421394.83109 -17471195.65708  20473365.77709  20473367.53608         0.00001
   -766990.62948   -597637.24245         0.00041  25413031.48345  25413028.46048
 94 02 20 02 36 00.0000000  0  6 02 05 07 12 13 27
  -5662214.90748  -4412097.10446         0.00041  22143337.29546  22143335.92348
  -4908460.89648  -3824769.02746         0.00041  24408339.43146  24408336.25148
 -20592127.52049 -16045766.81247         0.00041  21419068.04847  21419066.88549
 -12462484.65508  -9711015.93208  22609027.27708  22609029.59308         0.00001
 -22438549.45409 -17484562.87608  20470101.34709  20470103.08608         0.00001
   -649673.13648   -506221.05944         0.00041  25435358.26344  25435353.92248
 94 02 20 02 36 30.0000000  0  6 02 05 07 12 13 27
  -5611578.21048  -4372639.94746         0.00041  22152973.14746  22152971.75148
  -4987304.45448  -3886205.48145         0.00041  24393334.33445  24393332.86348
 -20531267.28449 -15998343.24547         0.00041  21430649.37447  21430648.35849
 -12545943.75508  -9776048.93708  22593145.50608  22593147.88108         0.00001
 -22455153.83009 -17497501.33308  20466941.63009  20466943.38408         0.00001
   -532345.89248   -414797.24444         0.00041  25457679.52044  25457681.30348
 94 02 20 02 37 00.0000000  0  6 02 05 07 12 13 27
  -5560730.22148  -4333018.13246         0.00041  22162649.05346  22162647.72348
  -5066178.28248  -3947665.53745         0.00041  24378324.98345  24378322.43948
 -20470205.90349 -15950762.93647         0.00041  21442269.05447  21442267.84549
 -12629234.95808  -9840951.11108  22577295.61908  22577298.10008         0.00001
 -22471200.18109 -17510004.96808  20463888.07909  20463889.85608         0.00001
   -415008.38048   -323365.45245         0.00041  25480012.74745  25480010.26648
 94 02 20 02 37 30.0000000  0  6 02 05 07 12 13 27
  -5509635.60348  -4293204.14346         0.00041  22172372.15746  22172370.87948
  -5145059.07148  -4009130.99545         0.00041  24363315.44445  24363312.19548
 -20408931.44449 -15903016.59547         0.00041  21453928.91547  21453927.90649
 -12712336.32708  -9905705.35808  22561481.89008  22561484.32808         0.00001
 -22486669.59409 -17522059.03808  20460944.31609  20460946.03008         0.00001
   -297657.93948   -231923.68345         0.00041  25502341.68345  25502340.99348
 94 02 20 02 38 00.0000000  0  6 02 05 07 12 13 27
  -5458302.34148  -4253204.19346         0.00041  22182140.76046  22182139.20348
  -5223951.92148  -4070605.86045         0.00041  24348302.93745  24348299.74248
 -20347455.93649 -15855113.59247         0.00041  21465627.74047  21465626.50949
 -12795255.97808  -9970318.00908  22545702.71308  22545705.14008         0.00001
 -22501573.43509 -17533672.40308  20458108.20909  20458109.93408         0.00001
   -180301.18748   -140476.70645         0.00041  25524675.11845  25524673.33148
 94 02 20 02 38 30.0000000  0  6 02 05 07 12 13 27
  -5406738.02948  -4213024.21846         0.00041  22191952.77646  22191951.35648
  -5302871.78848  -4132101.80545         0.00041  24333283.96745  24333282.05448
 -20285779.15649 -15807053.75847         0.00041  21477364.21847  21477363.37649
 -12878004.95408 -10034797.67308  22529956.08208  22529958.50308         0.00001
 -22515925.63509 -17544855.91608  20455377.06509  20455378.79308         0.00001
    -62945.34748    -49030.65944         0.00041  25547009.55944  25547004.76048
 94 02 20 02 39 00.0000000  0  6 02 05 07 12 13 27
  -5354951.15048  -4172670.80346         0.00041  22201807.70846  22201806.30848
  -5381808.80548  -4193611.07246         0.00041  24318263.59546  24318261.30848
 -20223907.67249 -15758842.20247         0.00041  21489138.19847  21489136.99849
 -12960582.79608 -10099143.98508  22514241.99608  22514244.45808         0.00001
 -22529728.72009 -17555611.54608  20452750.42209  20452752.13708         0.00001
     54394.43248     42403.05344         0.00041  25569335.37844  25569333.85748
 94 02 20 02 39 30.0000000  0  6 02 05 07 12 13 27
  -5302939.27348  -4132142.07046         0.00041  22211705.71246  22211703.94748
  -5460748.99548  -4255122.84845         0.00041  24303243.35345  24303239.74848
 -20161827.08349 -15710467.71047         0.00041  21500951.45947  21500950.37049
 -13042984.71708 -10163353.21508  22498561.40608  22498563.83808         0.00001
 -22542981.29409 -17565938.20708  20450228.51409  20450230.22508         0.00001
    171722.21848    133827.38344         0.00041  25591659.26144  25591661.14848
 94 02 20 02 40 00.0000000  0  6 02 05 07 12 13 27
  -5250698.24948  -4091434.77446         0.00041  22221646.70546  22221645.16548
  -5539692.59448  -4316637.24546         0.00041  24288217.96946  24288216.60848
 -20099520.74149 -15661917.29847         0.00041  21512808.27547  21512806.86749
 -13125197.86608 -10227415.34908  22482916.80908  22482919.09308         0.00001
 -22555673.50509 -17575828.22408  20447813.22709  20447814.93808         0.00001
    289059.61348    225259.50644         0.00041  25613992.99444  25613989.87748
 94 02 20 02 40 30.0000000  0  6 02 05 07 12 13 27
  -5198209.58248  -4050534.51746         0.00041  22231634.12146  22231632.84848
  -5618628.40648  -4378145.59146         0.00041  24273197.77546  24273195.81648
 -20036980.49249 -15613184.62847         0.00041  21524708.99447  21524707.79349
 -13207206.28308 -10291317.95408  22467311.05908  22467313.25508         0.00001
 -22567792.85509 -17585271.85308  20445506.96809  20445508.67708         0.00001
    406404.36248    316697.76544         0.00041  25636323.07944  25636319.39748
 94 02 20 02 41 00.0000000  0  6 02 05 07 09 12 13
  -5145506.05648  -4009466.82946         0.00041  22241663.86546  22241662.32848
  -5697591.16248  -4439674.93646         0.00041  24258172.46046  24258170.12048
 -19974251.16849 -15564304.62447         0.00041  21536646.10047  21536644.87849
        -0.89759        -0.51057         0.00051  21675294.00757  21675293.09459
 -13289042.27308 -10355086.20008  22451738.16708  22451740.21908         0.00001
 -22579374.55309 -17594296.53308  20443303.02109  20443304.73008         0.00001
 94 02 20 02 41 30.0000000  0  6 02 05 07 09 12 13
  -5092587.41048  -3968231.51246         0.00041  22251733.92446  22251732.66848
  -5776594.83348  -4501236.11946         0.00041  24243136.59746  24243135.12348
 -19911332.89449 -15515277.39147         0.00041  21548619.07947  21548617.85949
    -62605.51249    -48783.29247         0.00041  21663381.12547  21663380.17949
 -13370704.93008 -10418719.38208  22436198.15508  22436200.25808         0.00001
 -22590421.13809 -17602904.24108  20441200.94609  20441202.62108         0.00001
 94 02 20 02 42 00.0000000  0  6 02 05 07 09 12 13
  -5039432.68448  -3926812.23546         0.00041  22261848.57546  22261847.50348
  -5855626.38248  -4562819.09246         0.00041  24228098.28046  24228096.15248
 -19848220.87849 -15466099.19147         0.00041  21560628.91147  21560627.73449
   -124779.16449    -97230.25947         0.00041  21651549.66447  21651548.68849
 -13452168.29308 -10482197.27208  22420696.09608  22420698.32808         0.00001
 -22600909.86109 -17611077.25008  20439204.96909  20439206.62708         0.00001
 94 02 20 02 42 30.0000000  0  6 02 05 07 09 12 13
  -4986076.80748  -3885236.23246         0.00041  22272002.45546  22272000.77248
  -5934706.22548  -4624439.66446         0.00041  24213051.85946  24213048.67248
 -19784949.72049 -15416796.97847         0.00041  21572668.87147  21572667.78449
   -186553.02449   -145365.70347         0.00041  21639794.34847  21639793.59149
 -13533462.88908 -10545543.65308  22405226.22008  22405228.47208         0.00001
 -22610874.73909 -17618842.06908  20437308.68209  20437310.40208         0.00001
 94 02 20 02 43 00.0000000  0  6 02 05 07 09 12 13
  -4932502.88348  -3843490.31746         0.00041  22282197.38146  22282195.53448
  -6013815.83748  -4686083.44246         0.00041  24197997.79946  24197993.98548
 -19721496.91749 -15367353.22447         0.00041  21584743.74147  21584742.53949
   -247893.76549   -193163.65247         0.00041  21628121.55447  21628120.46449
 -13614562.12208 -10608737.80908  22389793.46108  22389795.73208         0.00001
 -22620292.35909 -17626180.45508  20435516.58109  20435518.21408         0.00001
 94 02 20 02 43 30.0000000  0  6 02 05 07 09 12 13
  -4878707.73448  -3801572.01846         0.00041  22292433.68846  22292432.31048
  -6092960.70348  -4747754.70146         0.00041  24182936.62646  24182932.44648
 -19657861.54649 -15317767.21047         0.00041  21596853.03147  21596851.76949
   -308784.60549   -240611.02247         0.00041  21616534.37747  21616533.70249
 -13695456.59808 -10671772.41808  22374399.74508  22374402.05108         0.00001
 -22629156.83609 -17633087.81908  20433829.73409  20433831.41308         0.00001
 94 02 20 02 44 00.0000000  0  6 02 05 07 09 12 13
  -4824692.53348  -3759482.24246         0.00041  22302712.27346  22302711.36548
  -6172129.97048  -4809444.92546         0.00041  24167870.49746  24167867.48948
 -19594044.23749 -15268039.43047         0.00041  21608996.85947  21608995.73749
   -369220.98749   -287704.27247         0.00041  21605033.82147  21605033.01649
 -13776144.88608 -10734646.36508  22359045.21708  22359047.48008         0.00001
 -22637469.95109 -17639565.55108  20432247.81009  20432249.42408         0.00001
 94 02 20 02 44 30.0000000  0  6 02 05 07 09 12 13
  -4770443.18948  -3717210.02446         0.00041  22313036.03046  22313034.40648
  -6251299.51448  -4871135.42246         0.00041  24152805.00346  24152801.67948
 -19530026.07049 -15218155.13147         0.00041  21621178.97247  21621177.98349
   -429200.64149   -334441.62847         0.00041  21593619.87147  21593619.28449
 -13856608.85508 -10797345.51408  22343733.39008  22343735.70508         0.00001
 -22645217.02309 -17645602.20808  20430773.55609  20430775.17508         0.00001
 94 02 20 02 45 00.0000000  0  6 02 05 07 09 12 13
  -4715961.20348  -3674756.53346         0.00041  22323403.33546  22323401.95348
  -6330475.78548  -4932831.11346         0.00041  24137736.77546  24137734.88848
 -19465809.98749 -15168116.60847         0.00041  21633399.24847  21633398.16349
   -488730.21949   -380828.27547         0.00041  21582291.94547  21582291.14049
 -13936845.16408 -10859867.26308  22328464.92208  22328467.22108         0.00001
 -22652398.45909 -17651198.11108  20429406.94809  20429408.60508         0.00001
 94 02 20 02 45 30.0000000  0  6 02 05 07 09 12 13
  -4661254.12948  -3632127.63146         0.00041  22333814.10646  22333812.50348
  -6409654.78748  -4994528.95146         0.00041  24122669.14746  24122667.61748
 -19401396.12249 -15117923.96647         0.00041  21645656.50347  21645655.68949
   -547838.92449   -426886.97047         0.00041  21571043.59847  21571042.99249
 -14016861.20408 -10922217.36808  22313238.33608  22313240.65408         0.00001
 -22659024.77509 -17656361.45408  20428146.02509  20428147.62008         0.00001
 94 02 20 02 46 00.0000000  0  6 02 05 07 09 12 13
  -4606311.47948  -3589315.18146         0.00041  22344269.39746  22344267.52348
  -6488823.49948  -5056218.72246         0.00041  24107605.90146  24107601.98648
 -19336779.23849 -15067573.14047         0.00041  21657952.91447  21657951.72949
   -606536.95049   -472625.65647         0.00041  21559873.81347  21559872.99349
 -14096652.69708 -10984392.50208  22298054.46608  22298056.77108         0.00001
 -22665095.45109 -17661091.83208  20426990.75609  20426992.35908         0.00001
 94 02 20 02 46 30.0000000  0  6 02 05 07 09 12 13
  -4551129.31548  -3546316.09446         0.00041  22354770.61046  22354768.55748
  -6567983.89248  -5117902.04546         0.00041  24092540.34246  24092538.08748
 -19271954.67749 -15017060.47747         0.00041  21670288.41947  21670287.32449
   -664821.87049   -518042.44247         0.00041  21548782.21347  21548781.47049
 -14176217.93608 -11046391.33608  22282913.69308  22282915.85308         0.00001
 -22670612.03909 -17665390.45408  20425940.96609  20425942.59108         0.00001
 94 02 20 02 47 00.0000000  0  6 02 05 07 09 12 13
  -4495703.19248  -3503126.90946         0.00041  22365317.40346  22365315.61948
  -6647141.52448  -5179583.28146         0.00041  24077476.66946  24077474.55048
 -19206916.39949 -14966381.28947         0.00041  21682664.81947  21682663.85149
   -722681.05449   -563127.48847         0.00041  21537772.15947  21537771.36349
 -14255561.81508 -11108217.68308  22267814.94208  22267817.08008         0.00001
 -22675583.36109 -17669264.19108  20424994.93109  20424996.59208         0.00001
 94 02 20 02 47 30.0000000  0  6 02 05 07 09 12 13
  -4440020.48348  -3459737.79546         0.00041  22375913.41646  22375911.52448
  -6726301.40948  -5241266.09246         0.00041  24062412.02946  24062410.54948
 -19141675.35249 -14915544.08947         0.00041  21695079.99347  21695078.88749
   -780104.50049   -607872.99447         0.00041  21526844.64547  21526843.98749
 -14334688.04208 -11169874.43008  22252757.68808  22252759.89308         0.00001
 -22680016.40809 -17672718.49508  20424151.33109  20424152.99108         0.00001
 94 02 20 02 48 00.0000000  0  6 02 05 07 09 12 13
  -4384084.30648  -3416151.16846         0.00041  22386557.09346  22386555.93848
  -6805472.61148  -5302957.79946         0.00041  24047347.40246  24047344.27548
 -19076253.22049 -14864565.79247         0.00041  21707529.30647  21707528.26149
   -837073.75449   -652264.58747         0.00041  21516003.94247  21516003.04649
 -14413600.75208 -11231364.80008  22237741.11108  22237743.24308         0.00001
 -22683918.92409 -17675759.39508  20423408.73509  20423410.36708         0.00001
 94 02 20 02 48 30.0000000  0  6 02 05 07 09 12 13
  -4327922.55948  -3372388.76946         0.00041  22397244.94946  22397243.37548
  -6884673.29648  -5364672.51646         0.00041  24032275.80546  24032273.20248
 -19010673.48849 -14813464.68647         0.00041  21720008.61647  21720007.59749
   -893601.45049   -696312.11247         0.00041  21505247.04347  21505246.09549
 -14492318.10908 -11292702.94808  22222761.64508  22222763.70308         0.00001
 -22687312.98409 -17678404.09808  20422762.83409  20422764.45108         0.00001
 94 02 20 02 49 00.0000000  0  6 02 05 07 09 12 13
  -4271526.96548  -3328444.16546         0.00041  22407976.26746  22407975.19148
  -6963907.29548  -5426413.16346         0.00041  24017198.44046  24017195.91448
 -18944946.57049 -14762248.89047         0.00041  21732516.03847  21732514.84549
   -949685.05349   -740013.59447         0.00041  21494574.66047  21494574.12549
 -14570825.33108 -11353877.35608  22207822.29608  22207824.19808         0.00001
 -22690187.19809 -17680643.72508  20422215.89409  20422217.47408         0.00001
 94 02 20 02 49 30.0000000  0  6 02 05 07 09 12 13
  -4214934.13148  -3284345.85746         0.00041  22418745.80946  22418744.36548
  -7043199.01048  -5488198.79946         0.00041  24002109.20346  24002106.98548
 -18879119.02949 -14710954.68747         0.00041  21745042.33047  21745041.11949
  -1005348.83549   -783387.93947         0.00041  21483982.17147  21483981.65149
 -14649138.15208 -11414900.28308  22192919.81108  22192921.70408         0.00001
 -22692561.21309 -17682493.58708  20421764.08609  20421765.68008         0.00001
 94 02 20 02 50 00.0000000  0  6 02 05 07 09 12 13
  -4158154.11748  -3240101.68746         0.00041  22429550.93946  22429549.32848
  -7122531.40148  -5550016.14746         0.00041  23987013.19746  23987010.49648
 -18813172.57149 -14659567.81747         0.00041  21757591.63447  21757590.55749
  -1060592.17249   -826434.67047         0.00041  21473469.52647  21473469.16349
 -14727240.61808 -11475759.29608  22178057.32308  22178059.31508         0.00001
 -22694422.51409 -17683943.93108  20421409.83709  20421411.51308         0.00001
 94 02 20 02 50 30.0000000  0  6 02 05 07 09 12 13
  -4101176.52348  -3195703.56446         0.00041  22440393.18446  22440391.80748
  -7201891.28548  -5611854.88046         0.00041  23971910.38846  23971909.10848
 -18747089.03249 -14608074.13447         0.00041  21770166.90547  21770165.94949
  -1115394.32949   -869137.61947         0.00041  21463041.06947  21463040.59949
 -14805110.38908 -11536436.98608  22163239.19008  22163241.25608         0.00001
 -22695752.92509 -17684980.59508  20421156.65409  20421158.33408         0.00001
 94 02 20 02 51 00.0000000  0  6 02 05 07 09 12 13
  -4044006.76248  -3151155.69146         0.00041  22451272.26446  22451270.44848
  -7281281.90548  -5673717.61246         0.00041  23956803.78646  23956801.64548
 -18680872.78949 -14556477.05147         0.00041  21782767.29847  21782766.56749
  -1169748.49549   -911491.48647         0.00041  21452697.82047  21452697.34249
 -14882748.05108 -11596933.80908  22148465.13908  22148467.23108         0.00001
 -22696556.38109 -17685606.64508  20421003.77109  20421005.41408         0.00001
 94 02 20 02 51 30.0000000  0  6 02 05 07 09 12 13
  -3986616.86848  -3106436.30246         0.00041  22462192.79646  22462191.90948
  -7360662.91948  -5735572.83846         0.00041  23941698.16446  23941695.61748
 -18614482.86749 -14504744.62747         0.00041  21795400.55347  21795399.95049
  -1223611.55849   -953462.67447         0.00041  21442448.31547  21442447.46449
 -14960126.20408 -11657228.42408  22133740.55508  22133742.60008         0.00001
 -22696809.43609 -17685803.81008  20420955.63809  20420957.21708         0.00001
 94 02 20 02 52 00.0000000  0  6 02 05 07 09 12 13
  -3928999.81248  -3061539.89546         0.00041  22473157.26146  22473155.54748
  -7440036.34148  -5797422.16746         0.00041  23926591.91746  23926591.03748
 -18547911.41049 -14452870.75347         0.00041  21808069.02447  21808068.19649
  -1276975.95949   -995045.29747         0.00041  21432293.27847  21432292.27649
 -15037246.05108 -11717321.76308  22119064.98508  22119067.04708         0.00001
 -22696516.90009 -17685575.83908  20421011.29309  20421012.85608         0.00001
 94 02 20 02 52 30.0000000  0  6 02 05 07 09 12 13
  -3871131.20648  -3016447.48746         0.00041  22484169.13746  22484167.80248
  -7519402.10048  -5859265.48046         0.00041  23911490.41046  23911487.87448
 -18481151.98849 -14400850.41547         0.00041  21820772.47047  21820772.05949
  -1329829.25349  -1036229.65547         0.00041  21422235.42947  21422234.70649
 -15114099.76708 -11777207.72708  22104440.19408  22104442.19308         0.00001
 -22695674.98009 -17684919.77808  20421171.49009  20421173.05308         0.00001
 94 02 20 02 53 00.0000000  0  6 02 05 07 09 12 13
  -3812995.07648  -2971146.62146         0.00041  22495232.32746  22495230.82548
  -7598757.21448  -5921100.57046         0.00041  23896389.41646  23896387.54148
 -18414196.60848 -14348677.38247         0.00041  21833513.83047  21833512.98448
  -1382185.07549  -1077026.37347         0.00041  21412272.31147  21412271.76349
 -15190687.38408 -11836886.34408  22089866.01708  22089867.98208         0.00001
 -22694287.59109 -17683838.67608  20421435.47409  20421437.04108         0.00001
 94 02 20 02 53 30.0000000  0  6 02 05 07 09 12 13
  -3754615.50548  -2925656.04846         0.00041  22506341.63146  22506339.91248
  -7678141.11648  -5982958.07146         0.00041  23881283.62646  23881281.44048
 -18347083.52248 -14296381.46147         0.00041  21846285.27347  21846284.36248
  -1434092.69549  -1117473.84347         0.00041  21402394.54147  21402393.94449
 -15267043.85908 -11896384.85508  22075335.83808  22075337.77308         0.00001
 -22692393.44809 -17682362.70208  20421795.87409  20421797.45908         0.00001
 94 02 20 02 54 00.0000000  0  6 02 05 07 09 12 13
  -3695972.31248  -2879960.06946         0.00041  22517501.29046  22517499.37048
  -7757540.25748  -6044827.42846         0.00041  23866176.55246  23866172.59348
 -18279796.39348 -14243949.91847         0.00041  21859089.44947  21859088.66348
  -1485541.30549  -1157563.64147         0.00041  21392604.12847  21392603.76549
 -15343149.24908 -11955687.71408  22060853.35908  22060855.33808         0.00001
 -22689976.56809 -17680479.39808  20422255.74409  20422257.36208         0.00001
 94 02 20 02 54 30.0000000  0  6 02 05 07 09 12 13
  -3637047.13048  -2834044.35846         0.00041  22528713.88246  22528712.63848
  -7836938.43948  -6106696.05146         0.00041  23851065.70946  23851063.14748
 -18212331.18748 -14191379.61747         0.00041  21871927.82747  21871926.95548
  -1536527.38149  -1197293.02647         0.00041  21382901.88247  21382901.42049
 -15418992.64008 -12014786.41608  22046420.80908  22046422.72908         0.00001
 -22687029.91809 -17678183.28808  20422816.47109  20422818.08608         0.00001
 94 02 20 02 55 00.0000000  0  6 02 05 07 09 12 13
  -3577861.77048  -2787925.89346         0.00041  22539976.88946  22539975.21448
  -7916339.38548  -6168566.82946         0.00041  23835955.88646  23835953.69048
 -18144711.31948 -14138688.79847         0.00041  21884795.17647  21884794.18148
  -1587054.96949  -1236665.14347         0.00041  21373287.00847  21373286.42049
 -15494580.48608 -12073685.99608  22032037.04008  22032038.89708         0.00001
 -22683564.00409 -17675482.55608  20423476.00109  20423477.58308         0.00001
 94 02 20 02 55 30.0000000  0  7 02 04 05 07 09 12 13
  -3518450.16748  -2741631.13446         0.00041  22551282.03746  22551281.27148
        -0.67659        -0.05758         0.00051  21118802.22958  21118801.66959
  -7995751.68248  -6230446.45046         0.00041  23820843.66546  23820841.93548
 -18076963.54348 -14085898.31047         0.00041  21897687.33147  21897686.32148
  -1637135.33649  -1275688.77747         0.00041  21363757.18947  21363756.39649
 -15569926.68108 -12132397.27908  22017699.14708  22017700.99408         0.00001
 -22679596.64809 -17672391.09008  20424230.94709  20424232.56908         0.00001
 94 02 20 02 56 00.0000000  0  7 02 04 05 07 09 12 13
  -3458836.50948  -2695178.93846         0.00041  22562626.37246  22562625.20448
    -51907.51949    -40446.90848         0.00041  21108924.67648  21108924.26749
  -8075180.30948  -6292338.82346         0.00041  23805728.54146  23805726.32348
 -18009096.74348 -14033015.07447         0.00041  21910601.78347  21910600.95148
  -1686765.73649  -1314361.79047         0.00041  21354312.52247  21354311.92849
 -15645039.60508 -12190926.79308  22003405.59008  22003407.44108         0.00001
 -22675140.15309 -17668918.47508  20425078.96709  20425080.60608         0.00001
 94 02 20 02 56 30.0000000  0  7 02 04 05 07 09 12 13
  -3399026.34348  -2648573.60846         0.00041  22574007.86346  22574006.60148
   -103323.49849    -80511.27748         0.00041  21099140.30248  21099140.12749
  -8154614.15348  -6354235.25446         0.00041  23790612.87946  23790609.86948
 -17941116.92548 -13980043.76947         0.00041  21923537.91147  21923537.16648
  -1735949.28349  -1352686.60047         0.00041  21344952.90247  21344952.49449
 -15719912.73708 -12249269.45308  21989157.58808  21989159.49008         0.00001
 -22670192.04509 -17665062.78308  20426020.53709  20426022.14308         0.00001
 94 02 20 02 57 00.0000000  0  7 02 04 05 07 09 12 13
  -3339037.83448  -2601829.32146         0.00041  22585423.47346  22585422.20548
   -154229.63449   -120178.35948         0.00041  21089453.11148  21089452.85649
  -8234050.96848  -6416133.97546         0.00041  23775494.26846  23775492.43848
 -17873010.60748 -13926973.89847         0.00041  21936498.11647  21936497.46048
  -1784678.71149  -1390657.55748         0.00041  21335680.31948  21335679.51449
 -15794537.39208 -12307418.49508  21974956.96208  21974958.90408         0.00001
 -22664747.74209 -17660820.44608  20427056.56409  20427058.12208         0.00001
 94 02 20 02 57 30.0000000  0  7 02 04 05 07 09 12 13
  -3278852.34248  -2554931.52646         0.00041  22596875.80446  22596874.70948
   -204627.66549   -159449.52148         0.00041  21079862.80148  21079862.26449
  -8313486.27448  -6478031.55346         0.00041  23760378.76246  23760376.70048
 -17804761.03248 -13873792.39147         0.00041  21949485.51047  21949484.72548
  -1832939.59249  -1428263.40848         0.00041  21326496.31148  21326495.71849
 -15868896.94108 -12365360.96308  21960806.79708  21960808.71108         0.00001
 -22658794.58209 -17656181.59808  20428189.38209  20428190.96608         0.00001
 94 02 20 02 58 00.0000000  0  7 02 04 05 07 09 12 13
  -3218454.23948  -2507868.06546         0.00041  22608369.59846  22608368.28248
   -254519.63049   -198326.33948         0.00041  21070368.67448  21070368.03949
  -8392937.77748  -6539941.75046         0.00041  23745260.31346  23745259.02548
 -17736366.51148 -13820497.95047         0.00041  21962501.01647  21962499.86548
  -1880726.69949  -1465500.08448         0.00041  21317402.57748  21317402.02149
 -15942983.67308 -12423090.84608  21946708.45208  21946710.45608         0.00001
 -22652328.82909 -17651143.32808  20429419.77509  20429421.31808         0.00001
 94 02 20 02 58 30.0000000  0  7 02 04 05 07 09 12 13
  -3157856.91948  -2460649.36946         0.00041  22619900.79846  22619899.66148
   -303922.37149   -236821.94648         0.00041  21060967.60248  21060967.06149
  -8472433.99648  -6601886.78646         0.00041  23730134.13246  23730131.01548
 -17667851.94248 -13767109.95047         0.00041  21975539.06247  21975537.89648
  -1928063.17349  -1502385.61748         0.00041  21308395.28648  21308394.52749
 -16016809.40808 -12480617.34908  21932659.83408  21932661.78608         0.00001
 -22645366.43209 -17645718.06208  20430744.67409  20430746.17308         0.00001
 94 02 20 02 59 00.0000000  0  7 02 04 05 07 09 12 13
  -3097028.10848  -2413250.30946         0.00041  22631475.93346  22631474.64648
   -352813.01049   -274918.51448         0.00041  21051663.75048  21051663.50749
  -8551957.22448  -6663852.87546         0.00041  23715000.66646  23714998.28848
 -17599192.41348 -13713609.00147         0.00041  21988604.58347  21988603.29548
  -1974915.14749  -1538893.61748         0.00041  21299479.37548  21299478.78349
 -16090347.82808 -12537919.97608  21918666.02208  21918667.87808         0.00001
 -22637885.42409 -17639888.68408  20432168.21709  20432169.71008         0.00001
 94 02 20 02 59 30.0000000  0  7 02 04 05 07 09 12 13
  -3035937.58448  -2365647.30546         0.00041  22643101.01446  22643100.07848
   -401181.00249   -312607.82448         0.00041  21042459.69948  21042459.51149
  -8631495.33048  -6725830.53546         0.00041  23699864.50946  23699862.72748
 -17530378.55648 -13659987.80347         0.00041  22001698.76447  22001698.04748
  -2021273.95749  -1575017.33748         0.00041  21290657.33448  21290656.92649
 -16163584.04308 -12594987.11808  21904729.53808  21904731.45308         0.00001
 -22629874.81609 -17633646.62908  20433692.57009  20433694.07308         0.00001
 94 02 20 03 00 00.0000000  0  7 02 04 05 07 09 12 13
  -2974606.47248  -2317856.81846         0.00041  22654771.21146  22654770.66648
   -449028.13149   -349891.26848         0.00041  21033354.61748  21033354.32949
  -8711044.24848  -6787816.62546         0.00041  23684727.36846  23684725.97648
 -17461423.76948 -13606256.78147         0.00041  22014820.82847  22014819.78448
  -2067150.85649  -1610765.54548         0.00041  21281927.42948  21281926.82449
 -16236532.52208 -12651830.04908  21890847.85208  21890849.78608         0.00001
 -22621353.28909 -17627006.45708  20435314.19009  20435315.65508         0.00001
 94 02 20 03 00 30.0000000  0  7 02 04 05 07 09 12 13
  -2913019.18548  -2269866.73546         0.00041  22666491.86346  22666490.53748
   -496327.50549   -386747.89048         0.00041  21024354.12048  21024353.64849
  -8790545.97648  -6849765.94646         0.00041  23669599.58946  23669597.59048
 -17392305.01348 -13552397.99147         0.00041  22027973.80847  22027972.48548
  -2112508.81149  -1646109.37548         0.00041  21273296.00548  21273295.53249
 -16309167.18608 -12708428.44708  21877025.93508  21877027.87508         0.00001
 -22612299.01509 -17619951.15708  20437037.13709  20437038.59508         0.00001
 94 02 20 03 01 00.0000000  0  7 02 04 05 07 09 12 13
  -2851157.71948  -2221662.99046         0.00041  22678263.80546  22678262.20648
   -543079.46849   -423177.95048         0.00041  21015457.40348  21015456.96949
  -8869984.89748  -6911666.31846         0.00041  23654483.18746  23654480.45248
 -17323016.51648 -13498406.93747         0.00041  22041158.87847  22041157.69548
  -2157324.90849  -1681030.98048         0.00041  21264767.69948  21264767.24149
 -16381485.71608 -12764780.50208  21863264.11908  21863266.08708         0.00001
 -22602713.69109 -17612482.05408  20438861.15709  20438862.61908         0.00001
 94 02 20 03 01 30.0000000  0  7 02 04 05 07 09 12 13
  -2789052.87248  -2173269.61146         0.00041  22690082.02446  22690080.84548
   -589314.94949   -459205.56548         0.00041  21006659.05948  21006658.62449
  -8949396.79948  -6973545.62746         0.00041  23639370.80346  23639369.02948
 -17253594.22948 -13444311.63347         0.00041  22054369.40847  22054368.17148
  -2201620.18049  -1715546.74448         0.00041  21256338.48748  21256338.13349
 -16453517.41908 -12820909.05508  21849556.95908  21849558.87908         0.00001
 -22592630.92909 -17604625.33708  20440779.81509  20440781.28508         0.00001
 94 02 20 03 02 00.0000000  0  7 02 04 05 07 09 12 13
  -2726701.66848  -2124684.28546         0.00041  22701946.85346  22701946.00248
   -635031.80249   -494829.05248         0.00041  20997959.62248  20997958.90849
  -9028776.78748  -7035400.09446         0.00041  23624264.98346  23624263.20148
 -17184044.69848 -13390117.16947         0.00041  22067603.81847  22067602.88048
  -2245378.03949  -1749643.75448         0.00041  21248011.93548  21248011.36149
 -16525255.87108 -12876809.10108  21835905.59308  21835907.41908         0.00001
 -22582048.48009 -17596379.25508  20442793.55009  20442795.03608         0.00001
 94 02 20 03 02 30.0000000  0  7 02 04 05 07 09 12 13
  -2664110.46748  -2075911.92246         0.00041  22713857.66946  22713856.47848
   -680242.88649   -530058.43248         0.00041  20989355.99248  20989355.60549
  -9108156.31648  -7097254.17246         0.00041  23609156.95046  23609156.53748
 -17114376.52448 -13335830.26547         0.00041  22080861.83247  22080860.56848
  -2288613.92049  -1783334.02448         0.00041  21239784.44048  21239783.91349
 -16596709.84808 -12932487.48008  21822308.30608  21822310.10208         0.00001
 -22570979.21909 -17587753.83708  20444899.93909  20444901.43708         0.00001
 94 02 20 03 03 00.0000000  0  7 02 04 05 07 09 12 13
  -2601291.90448  -2026962.40246         0.00041  22725811.26746  22725810.14448
   -724943.40849   -564889.97448         0.00041  20980849.55648  20980849.26549
  -9187571.16848  -7159135.79546         0.00041  23594046.38746  23594044.28648
 -17044600.36748 -13281459.21747         0.00041  22094139.77047  22094138.47548
  -2331348.50549  -1816633.67848         0.00041  21231652.02848  21231651.55549
 -16667887.83508 -12987950.79908  21808763.54408  21808765.37008         0.00001
 -22559436.17109 -17578759.23908  20447096.53409  20447097.96008         0.00001
 94 02 20 03 03 30.0000000  0  7 02 04 05 07 09 12 13
  -2538256.55948  -1977843.97146         0.00041  22737806.89646  22737805.68348
   -769112.83649   -599307.67248         0.00041  20972444.51648  20972444.07049
  -9267020.83048  -7221044.52246         0.00041  23578927.29146  23578925.47948
 -16974718.58148 -13227005.86747         0.00041  22107437.87447  22107436.76448
  -2373605.21249  -1849560.96548         0.00041  21223610.97248  21223610.44949
 -16738777.98308 -13043189.82808  21795273.60108  21795275.41108         0.00001
 -22547411.62809 -17569389.44508  20449384.71809  20449386.09308         0.00001
 94 02 20 03 04 00.0000000  0  7 02 04 05 07 09 12 13
  -2475006.84748  -1928558.47646         0.00041  22749842.70746  22749841.64848
   -812733.73149   -633297.94648         0.00041  20964143.74248  20964143.30149
  -9346495.62148  -7282972.82646         0.00041  23563804.54946  23563802.65148
 -16904723.16248 -13172463.96646         0.00041  22120757.42846  22120756.45448
  -2415382.85349  -1882114.94448         0.00041  21215660.96848  21215660.40649
 -16809369.21008 -13098195.93308  21781840.47008  21781842.26408         0.00001
 -22534898.76109 -17559639.14108  20451765.82209  20451767.22708         0.00001
 94 02 20 03 04 30.0000000  0  7 02 04 05 07 09 12 13
  -2411557.70248  -1879117.58846         0.00041  22761916.04546  22761915.74248
   -855807.46149   -666861.85448         0.00041  20955946.53948  20955946.46849
  -9426004.66348  -7344927.84646         0.00041  23548674.23846  23548672.80748
 -16834622.71448 -13117840.21846         0.00041  22134096.94246  22134095.93148
  -2456698.78549  -1914309.15348         0.00041  21207798.83048  21207798.39749
 -16879668.26808 -13152974.37508  21768462.98708  21768464.71608         0.00001
 -22521908.54609 -17549516.87808  20454237.74709  20454239.14408         0.00001
 94 02 20 03 05 00.0000000  0  7 02 04 05 07 09 12 13
  -2347874.70148  -1829494.46646         0.00041  22774035.38746  22774034.42748
   -898307.29549   -699978.57148         0.00041  20947859.25248  20947858.98449
  -9505512.77548  -7406882.11946         0.00041  23533544.60946  23533542.54248
 -16764396.80748 -13063118.72146         0.00041  22147460.56046  22147459.51848
  -2497519.17249  -1946117.21848         0.00041  21200030.83848  21200030.40849
 -16949642.39608 -13207499.63108  21755147.33408  21755148.98208         0.00001
 -22508412.67509 -17539000.59708  20456805.93609  20456807.34908         0.00001
 94 02 20 03 05 30.0000000  0  7 02 04 05 07 09 12 13
  -2283942.58248  -1779677.24846         0.00041  22786200.78446  22786199.87048
   -940234.40649   -732649.01348         0.00041  20939880.79348  20939880.66549
  -9584997.87748  -7468818.46946         0.00041  23518418.65046  23518416.46648
 -16694028.67148 -13008286.39546         0.00041  22160851.20046  22160849.91048
  -2537813.65549  -1977515.49948         0.00041  21192363.04548  21192362.44849
 -17019277.91008 -13261761.03308  21741896.17908  21741897.70008         0.00001
 -22494401.90309 -17528083.09508  20459472.07009  20459473.52108         0.00001
 94 02 20 03 06 00.0000000  0  7 02 04 05 07 09 12 13
  -2219760.07348  -1729664.92546         0.00041  22798414.83946  22798413.11748
   -981586.04249   -764871.03648         0.00041  20932012.04348  20932011.83849
  -9664444.81448  -7530725.07546         0.00041  23503300.92446  23503298.56848
 -16623499.23748 -12953328.38446         0.00041  22174272.03746  22174271.18048
  -2577552.90649  -2008481.12848         0.00041  21184800.88548  21184800.20649
 -17088572.67308 -13315756.91808  21728709.77708  21728711.29608         0.00001
 -22479878.36109 -17516766.03308  20462235.85509  20462237.22308         0.00001
 94 02 20 03 06 30.0000000  0  7 02 04 05 07 09 12 13
  -2155330.24648  -1679459.87446         0.00041  22810675.43146  22810674.37148
  -1022377.49949   -796656.55448         0.00041  20924249.45548  20924249.42149
  -9743859.13148  -7592606.28646         0.00041  23488188.75646  23488187.05048
 -16552821.20848 -12898254.58546         0.00041  22187721.62046  22187720.92748
  -2616746.32449  -2039021.43448         0.00041  21177342.69448  21177342.01049
 -17157539.62008 -13369497.36008  21715585.71408  21715587.34108         0.00001
 -22464859.22309 -17505062.79208  20465093.91609  20465095.27608         0.00001
 94 02 20 03 07 00.0000000  0  7 02 04 05 07 09 12 13
  -2090667.49348  -1629073.31546         0.00041  22822980.33646  22822979.20148
  -1062626.10549   -828019.07748         0.00041  20916590.37448  20916590.26449
  -9823258.39648  -7654475.73346         0.00041  23473078.51046  23473077.11648
 -16482015.50048 -12843081.29646         0.00041  22201195.79646  22201194.99448
  -2655396.33449  -2069138.29848         0.00041  21169987.89148  21169987.28649
 -17226193.38308 -13422993.76108  21702521.22808  21702522.98908         0.00001
 -22449363.58109 -17492988.24908  20468042.62009  20468044.00608         0.00001
 94 02 20 03 07 30.0000000  0  7 02 04 05 07 09 12 13
  -2025783.44248  -1578514.31446         0.00041  22835327.52246  22835325.75548
  -1102328.65549   -858956.09848         0.00041  20909035.45748  20909034.89449
  -9902640.00248  -7716331.44246         0.00041  23457972.94446  23457971.30448
 -16411091.88848 -12787816.13046         0.00041  22214691.84446  22214690.99548
  -2693513.84249  -2098840.22848         0.00041  21162734.07348  21162733.55849
 -17294539.55608 -13476250.48308  21689515.34508  21689517.07108         0.00001
 -22433401.45309 -17480550.21008  20471080.08009  20471081.47508         0.00001
 94 02 20 03 08 00.0000000  0  7 02 04 05 07 09 12 13
  -1960641.02648  -1527754.00846         0.00041  22847723.69846  22847722.19948
  -1141455.37849   -889444.42348         0.00041  20901589.82148  20901589.39849
  -9981979.62348  -7778154.40646         0.00041  23442875.34746  23442873.65848
 -16340038.34048 -12732449.71546         0.00041  22228213.39346  22228211.76448
  -2731093.58649  -2128123.12048         0.00041  21155583.09148  21155582.48749
 -17362550.31208 -13529245.84408  21676573.33208  21676575.02308         0.00001
 -22416949.33609 -17467730.36308  20474210.77809  20474212.17008         0.00001
 94 02 20 03 08 30.0000000  0  7 02 04 05 07 09 12 13
  -1895241.35948  -1476793.23546         0.00041  22860168.97846  22860167.44048
  -1180023.29949   -919497.32048         0.00041  20894250.59848  20894250.13949
 -10061298.84748  -7839961.49646         0.00041  23427780.29246  23427779.74248
 -16268892.40048 -12677011.30846         0.00041  22241751.39246  22241750.67848
  -2768153.92849  -2157001.28948         0.00041  21148530.58348  21148529.91249
 -17430229.60008 -13581982.91708  21663694.34308  21663696.12708         0.00001
 -22400015.49909 -17454535.15008  20477433.11909  20477434.53508         0.00001
 94 02 20 03 09 00.0000000  0  7 02 04 05 07 09 12 13
  -1829594.97548  -1425640.21446         0.00041  22872660.67446  22872659.33548
  -1218047.83549   -949126.80148         0.00041  20887014.82448  20887014.43249
 -10140611.68948  -7901763.61546         0.00041  23412687.77746  23412686.65548
 -16197668.97048 -12621512.51746         0.00041  22255304.37046  22255303.83448
  -2804716.21149  -2185491.36248         0.00041  21141572.93848  21141572.12249
 -17497584.24508 -13634467.02008  21650877.17908  21650878.96508         0.00001
 -22382611.50609 -17440973.58208  20480745.03609  20480746.36008         0.00001
 94 02 20 03 09 30.0000000  0  7 02 04 05 07 09 12 13
  -1763709.05148  -1374300.56746         0.00041  22885198.90046  22885197.24148
  -1255534.58449   -978337.22748         0.00041  20879881.17848  20879880.89649
 -10219921.57448  -7963563.43546         0.00041  23397596.07546  23397594.11148
 -16126369.55248 -12565954.52046         0.00041  22268872.59446  22268871.58148
  -2840797.23349  -2213606.42248         0.00041  21134707.04748  21134706.22349
 -17564620.38308 -13686702.94008  21638120.63808  21638122.29808         0.00001
 -22364747.77509 -17427053.77408  20484144.44309  20484145.70808         0.00001
 94 02 20 03 10 00.0000000  0  7 02 04 05 07 09 12 13
  -1697602.76948  -1322789.18546         0.00041  22897778.33046  22897776.53848
  -1292507.38549  -1007147.17548         0.00041  20872845.38848  20872844.95049
 -10299251.31448  -8025378.70446         0.00041  23382500.03346  23382497.55748
 -16055003.36248 -12510344.49846         0.00041  22282452.97746  22282452.17848
  -2876401.78449  -2241350.20848         0.00041  21127931.56648  21127931.04549
 -17631346.45908 -13738697.26008  21625423.05508  21625424.63808         0.00001
 -22346437.13409 -17412785.72608  20487628.81109  20487630.06808         0.00001
 94 02 20 03 10 30.0000000  0  7 02 04 05 07 09 12 13
  -1631268.51748  -1271100.17546         0.00041  22910401.54146  22910399.65748
  -1328949.19149  -1035543.35848         0.00041  20865910.79048  20865910.44049
 -10378579.41348  -8087192.71546         0.00041  23367404.23246  23367402.15648
 -15983545.21648 -12454662.81346         0.00041  22296051.20446  22296050.40148
  -2911503.21349  -2268701.94748         0.00041  21121251.78748  21121251.34549
 -17697737.11008 -13790430.21008  21612789.36708  21612790.93008         0.00001
 -22327658.60609 -17398153.09008  20491202.20409  20491203.51908         0.00001
 94 02 20 03 11 00.0000000  0  7 02 04 05 07 09 12 13
  -1564703.09648  -1219230.98646         0.00041  22923067.65446  22923066.60548
  -1364848.75749  -1063517.01748         0.00041  20859079.28048  20859079.12649
 -10457894.39348  -8148996.49746         0.00041  23352311.03646  23352309.88948
 -15911967.57648 -12398888.01046         0.00041  22309672.15246  22309671.37448
  -2946090.60449  -2295653.13848         0.00041  21114670.13448  21114669.65149
 -17763787.77808 -13841898.24208  21600220.33508  21600221.92708         0.00001
 -22308412.33909 -17383155.98508  20494864.64609  20494865.91808         0.00001
 94 02 20 03 11 30.0000000  0  7 02 04 05 07 09 12 13
  -1497918.03948  -1167190.67846         0.00041  22935777.08846  22935775.32748
  -1400199.29349  -1091062.86248         0.00041  20852352.17148  20852352.07949
 -10537196.92948  -8210790.57846         0.00041  23337220.53246  23337219.24748
 -15840266.06048 -12343016.69246         0.00041  22323315.71946  22323315.23648
  -2980147.69049  -2322191.10948         0.00041  21108189.39248  21108188.94149
 -17829498.50208 -13893101.37808  21587715.90908  21587717.57908         0.00001
 -22288702.95009 -17367798.00208  20498615.16409  20498616.45008         0.00001
 94 02 20 03 12 00.0000000  0  7 02 04 05 07 09 12 13
  -1430925.43048  -1114988.66946         0.00041  22948525.05746  22948523.76048
  -1435007.80049  -1118186.34948         0.00041  20845728.28248  20845728.13449
 -10616506.48648  -8272590.13646         0.00041  23322128.13146  23322127.12248
 -15768457.83048 -12287062.22246         0.00041  22336980.75946  22336979.93048
  -3013684.45649  -2348323.63148         0.00041  21101807.42548  21101807.08249
 -17894880.09708 -13944048.05108  21575274.19708  21575275.83808         0.00001
 -22268545.42309 -17352090.82508  20502450.99609  20502452.26908         0.00001
 94 02 20 03 12 30.0000000  0  7 02 04 05 07 09 12 13
  -1363680.91148  -1062590.35546         0.00041  22961320.79546  22961320.35848
  -1469228.41349  -1144851.73648         0.00041  20839216.27448  20839216.06149
 -10695783.15548  -8334364.08246         0.00041  23307042.13046  23307040.97648
 -15696513.09848 -12231001.37746         0.00041  22350670.86846  22350670.61748
  -3046663.55849  -2374021.61648         0.00041  21095531.84248  21095531.33549
 -17959900.99908 -13994713.67208  21562901.08708  21562902.74708         0.00001
 -22247912.98809 -17336013.58508  20506377.23909  20506378.49808         0.00001
 94 02 20 03 13 00.0000000  0  7 02 04 05 07 09 12 13
  -1296198.04648  -1010006.31646         0.00041  22974164.04546  22974161.45748
  -1502877.45549  -1171071.73848         0.00041  20832813.23848  20832812.87949
 -10775044.83148  -8396126.34746         0.00041  23291958.03846  23291956.99048
 -15624449.17748 -12174847.64746         0.00041  22364384.80746  22364384.09148
  -3079097.20249  -2399294.56748         0.00041  21089359.87948  21089359.37749
 -18024579.96508 -14045112.84808  21550593.05408  21550594.74208         0.00001
 -22226828.78009 -17319584.31608  20510389.43309  20510390.70808         0.00001
 94 02 20 03 13 30.0000000  0  7 02 04 05 07 09 12 13
  -1228487.16248   -957244.60046         0.00041  22987047.89146  22987046.64048
  -1535963.69149  -1196853.19948         0.00041  20826516.92548  20826516.67149
 -10854297.97348  -8457881.93446         0.00041  23276877.26946  23276875.65248
 -15552291.49048 -12118620.85946         0.00041  22378116.16046  22378115.11548
  -3110991.21549  -2424147.02648         0.00041  21083290.57148  21083290.11249
 -18088916.33308 -14095245.06308  21538350.28408  21538351.95408         0.00001
 -22205296.68109 -17302806.04008  20514486.85209  20514488.13408         0.00001
 94 02 20 03 14 00.0000000  0  7 02 04 05 07 09 12 13
  -1160538.33448   -904297.48046         0.00041  22999977.60146  22999976.39948
  -1568487.36149  -1222196.29348         0.00041  20820327.83448  20820327.56249
 -10933533.69448  -8519623.96846         0.00041  23261798.98746  23261797.64048
 -15480052.07148 -12062330.39146         0.00041  22391862.77646  22391861.88148
  -3142346.44649  -2448579.65748         0.00041  21077323.83648  21077323.53749
 -18152900.77508 -14145103.05108  21526174.38008  21526176.11608         0.00001
 -22183311.93509 -17285675.05408  20518670.40909  20518671.65408         0.00001
 94 02 20 03 14 30.0000000  0  7 02 04 05 07 09 12 13
  -1092369.88848   -851179.23646         0.00041  23012949.43846  23012948.58648
  -1600462.98949  -1247112.34248         0.00041  20814243.15148  20814242.85849
 -11012753.86848  -8581353.87846         0.00041  23246723.78046  23246722.40748
 -15407746.62948 -12005988.47246         0.00041  22405621.97046  22405621.23548
  -3173164.80949  -2472593.95048         0.00041  21071459.47448  21071459.14549
 -18216535.98608 -14194688.90608  21514065.08608  21514066.66508         0.00001
 -22160881.52409 -17268196.79808  20522938.72709  20522939.99308         0.00001
 94 02 20 03 15 00.0000000  0  7 02 04 05 07 09 12 13
  -1023985.02248   -797892.32346         0.00041  23025963.23346  23025961.64048
  -1631879.09649  -1271592.39948         0.00041  20808264.96248  20808264.53249
 -11091952.96148  -8643067.40446         0.00041  23231651.90146  23231651.11248
 -15335361.81548 -11949584.70846         0.00041  22419396.30546  22419395.54648
  -3203434.32949  -2496180.57248         0.00041  21065699.33548  21065698.84749
 -18279804.54108 -14243989.06108  21502025.45008  21502026.95008         0.00001
 -22137993.10109 -17250361.64808  20527294.19809  20527295.53908         0.00001
 94 02 20 03 15 30.0000000  0  7 02 04 05 07 09 12 13
   -955367.87948   -744424.44546         0.00041  23039020.28246  23039018.91248
  -1662699.16149  -1295608.00948         0.00041  20802400.02948  20802399.69449
 -11171113.28548  -8704750.71246         0.00041  23216588.63546  23216587.25148
 -15262883.95048 -11893108.44746         0.00041  22433188.49946  22433187.62648
  -3233137.54649  -2519325.92148         0.00041  21060047.03848  21060046.66049
 -18342686.25608 -14292987.78308  21490059.42308  21490061.00208         0.00001
 -22114630.82409 -17232157.26208  20531739.89509  20531741.21508         0.00001
 94 02 20 03 16 00.0000000  0  7 02 04 05 07 09 12 13
   -886502.21048   -690762.89946         0.00041  23052125.80246  23052123.76348
  -1692914.60649  -1319152.48548         0.00041  20796649.98648  20796649.73549
 -11250234.17048  -8766403.28846         0.00041  23201532.49746  23201531.07148
 -15190298.81048 -11836548.58946         0.00041  22447001.25546  22447000.09748
  -3262265.07949  -2542022.68848         0.00041  21054503.89648  21054503.74049
 -18405181.00008 -14341684.96308  21478167.02208  21478168.71508         0.00001
 -22090799.03909 -17213587.02308  20536274.94909  20536276.21808         0.00001
 94 02 20 03 16 30.0000000  0  7 02 04 05 07 09 12 13
   -817389.51048   -636908.85946         0.00041  23065277.90946  23065275.65448
  -1722532.10549  -1342231.03748         0.00041  20791014.10848  20791013.88149
 -11329329.70948  -8828036.12546         0.00041  23186481.42646  23186480.06048
 -15117604.35448 -11779903.53346         0.00041  22460833.96446  22460833.15948
  -3290820.12549  -2564273.35948         0.00041  21049069.99448  21049069.53549
 -18467296.90608 -14390086.94608  21466346.76208  21466348.37108         0.00001
 -22066510.44509 -17194660.83008  20540896.94409  20540898.17508         0.00001
 94 02 20 03 17 00.0000000  0  7 02 04 05 07 09 12 13
   -748011.20648   -582847.84646         0.00041  23078479.53946  23078478.15248
  -1751548.91949  -1364841.51248         0.00041  20785492.33548  20785492.20249
 -11408390.08148  -8889641.54846         0.00041  23171436.47446  23171435.52148
 -15044796.84348 -11723170.40746         0.00041  22474689.04546  22474687.97448
  -3318807.49949  -2586081.68748         0.00041  21043744.50248  21043743.98549
 -18529031.00708 -14438191.42308  21454599.14908  21454600.75508         0.00001
 -22041766.66509 -17175379.94508  20545605.49809  20545606.71408         0.00001
 94 02 20 03 17 30.0000000  0  7 02 04 05 07 09 12 13
   -678386.86748   -528595.11946         0.00041  23091729.51146  23091727.57348
  -1780006.97449  -1387016.59548         0.00041  20780077.09348  20780076.76449
 -11487433.42148  -8951233.69846         0.00041  23156395.59646  23156393.89048
 -14971916.87448 -11666380.81446         0.00041  22488557.04546  22488556.65848
  -3346254.30549  -2607468.79248         0.00041  21038521.50848  21038521.33249
 -18590414.56508 -14486022.74308  21442918.27408  21442919.85208         0.00001
 -22016603.68409 -17155772.41108  20550393.88009  20550395.08008         0.00001
 94 02 20 03 18 00.0000000  0  7 02 04 05 07 09 12 13
   -608492.09348   -474131.67846         0.00041  23105028.70046  23105027.63848
  -1807913.62349  -1408762.01148         0.00041  20774766.47948  20774766.19849
 -11566442.14148  -9012798.88246         0.00041  23141360.49746  23141358.83948
 -14898941.23448 -11609516.65946         0.00041  22502444.29746  22502443.60648
  -3373143.50749  -2628421.40948         0.00041  21033404.46248  21033404.24249
 -18651426.05508 -14533564.14308  21431308.10908  21431309.67608         0.00001
 -21991004.56509 -17135825.03008  20555265.17609  20555266.44608         0.00001
 94 02 20 03 18 30.0000000  0  7 02 04 05 07 09 12 13
   -538354.20248   -419478.75546         0.00041  23118375.70846  23118375.01548
  -1835278.23649  -1430085.06048         0.00041  20769559.04648  20769558.77549
 -11645422.00648  -9074341.54146         0.00041  23126330.74746  23126329.62348
 -14825883.83848 -11552588.81546         0.00041  22516346.27546  22516345.97948
  -3399499.68549  -2648958.68048         0.00041  21028389.16948  21028388.78649
 -18712070.77508 -14580819.74808  21419767.83608  21419769.35508         0.00001
 -21964978.87709 -17115545.25708  20560217.66409  20560218.97008         0.00001
 94 02 20 03 19 00.0000000  0  7 02 04 05 07 09 12 13
   -467990.30148   -364649.78246         0.00041  23131764.90646  23131764.42548
  -1862100.37149  -1450985.40148         0.00041  20764454.99348  20764454.75949
 -11724369.70148  -9135859.15146         0.00041  23111307.47246  23111306.20648
 -14752749.61848 -11495601.09146         0.00041  22530263.61446  22530262.75648
  -3425328.31349  -2669084.86648         0.00041  21023474.00348  21023473.71049
 -18772346.56108 -14627787.87108  21408297.78308  21408299.24208         0.00001
 -21938529.63109 -17094935.44208  20565250.74409  20565252.04508         0.00001
 94 02 20 03 19 30.0000000  0  7 02 04 05 07 09 12 13
   -397414.98548   -309656.01946         0.00041  23145195.38646  23145194.28248
  -1888382.16949  -1471464.70148         0.00041  20759453.72248  20759453.55549
 -11803293.47148  -9197358.12246         0.00041  23096288.50546  23096287.28548
 -14679528.02048 -11438545.28546         0.00041  22544197.05646  22544196.39548
  -3450630.73749  -2688801.03348         0.00041  21018659.21248  21018658.87849
 -18832249.69108 -14674465.61208  21396898.54808  21396900.00108         0.00001
 -21911657.19509 -17073995.86708  20570364.43109  20570365.69908         0.00001
 94 02 20 03 20 00.0000000  0  7 02 04 05 07 09 12 13
   -326645.76948   -254511.18546         0.00041  23158663.47146  23158660.99848
  -1914124.48649  -1491523.61948         0.00041  20754554.96848  20754554.95849
 -11882213.20348  -9258853.93446         0.00041  23081271.06046  23081269.49048
 -14606227.41348 -11381427.92246         0.00041  22558145.85746  22558144.90748
  -3475432.40349  -2708126.99648         0.00041  21013939.50148  21013939.40049
 -18891785.52508 -14720857.15308  21385569.30908  21385570.74508         0.00001
 -21884371.90209 -17052734.58608  20575556.62709  20575557.87408         0.00001
 94 02 20 03 20 30.0000000  0  7 02 04 05 07 09 12 13
   -255690.16048   -199221.12446         0.00041  23172165.21646  23172163.37048
  -1939303.04349  -1511143.25048         0.00041  20749763.70548  20749763.60749
 -11961118.79648  -9320338.74546         0.00041  23066255.77146  23066254.95648
 -14532860.01648 -11324258.51746         0.00041  22572106.88046  22572106.52748
  -3499719.17949  -2727051.74848         0.00041  21009318.03548  21009317.66549
 -18950945.37408 -14766955.71508  21374311.50908  21374313.02908         0.00001
 -21856669.69309 -17031148.43508  20580828.21509  20580829.43008         0.00001
 94 02 20 03 21 00.0000000  0  7 02 04 05 07 09 12 13
   -184505.65548   -143752.69246         0.00041  23185710.86546  23185709.69348
  -1963894.51549  -1530305.41648         0.00041  20745083.97348  20745083.86649
 -12039976.62148  -9381786.33146         0.00041  23051249.12546  23051248.59248
 -14459401.48048 -11267018.08346         0.00041  22586085.48146  22586085.32448
  -3523456.42549  -2745548.29148         0.00041  21004800.96248  21004800.37849
 -19009695.96608 -14812735.37408  21363131.63108  21363133.10108         0.00001
 -21828521.74409 -17009214.95408  20586184.55209  20586185.83208         0.00001
 94 02 20 03 21 30.0000000  0  7 02 04 05 07 09 12 13
   -113062.37648    -88082.60846         0.00041  23199305.73246  23199305.19048
  -1987895.37449  -1549007.36548         0.00041  20740516.75348  20740516.70649
 -12118781.30448  -9443192.50646         0.00041  23036253.52146  23036252.20248
 -14385848.26348 -11209703.88246         0.00041  22600082.53146  22600081.90548
  -3546631.90049  -2763607.08948         0.00041  21000390.76948  21000390.26049
 -19068030.96708 -14858191.19908  21352030.81608  21352032.28308         0.00001
 -21799926.44609 -16986932.89108  20591625.99709  20591627.34508         0.00001
 94 02 20 03 22 00.0000000  0  7 02 04 05 07 09 12 13
    -41362.03448    -32212.23646         0.00041  23212951.25946  23212949.30048
  -2011301.87549  -1567246.17348         0.00041  20736062.98448  20736062.70449
 -12197535.57148  -9504559.40146         0.00041  23021266.73346  23021265.43948
 -14312237.24448 -11152344.64246         0.00041  22614090.25346  22614089.89348
  -3569242.85949  -2781226.00648         0.00041  20996087.77348  20996087.56449
 -19125960.37908 -14903330.98208  21341007.15608  21341008.65908         0.00001
 -21770898.59909 -16964313.77508  20597149.85009  20597151.09708         0.00001
 94 02 20 03 22 30.0000000  0  7 02 04 05 07 09 12 13
     30598.12748     23860.59446         0.00041  23226643.85146  23226642.74948
  -2034126.22049  -1585031.35448         0.00041  20731719.62548  20731719.49849
 -12276244.29748  -9565890.80546         0.00041  23006288.31546  23006286.91648
 -14238576.93548 -11094946.98446         0.00041  22628107.38746  22628106.72048
  -3591284.93149  -2798401.64148         0.00041  20991893.53048  20991893.28649
 -19183491.77708 -14948160.62408  21330059.23808  21330060.75108         0.00001
 -21741450.14809 -16941366.91508  20602753.68809  20602754.93208         0.00001
 94 02 20 03 23 00.0000000  0  7 02 04 05 07 09 12 13
    102826.82048     80142.69446         0.00041  23240387.88346  23240387.07148
  -2056376.71849  -1602369.38448         0.00041  20727485.37848  20727485.06649
 -12354900.39948  -9627181.21146         0.00041  22991321.31946  22991319.35148
 -14164850.34448 -11037497.68246         0.00041  22642136.61846  22642136.26248
  -3612749.96649  -2815127.62948         0.00041  20987808.94748  20987808.50949
 -19240618.91608 -14992675.25708  21319188.29108  21319189.77708         0.00001
 -21711579.40209 -16918090.99508  20608437.83709  20608439.12608         0.00001
 94 02 20 03 23 30.0000000  0  7 02 04 05 07 09 12 13
    175292.50148    136609.45046         0.00041  23254177.55946  23254177.11548
  -2078055.39049  -1619261.83348         0.00041  20723359.83648  20723359.97849
 -12433526.17048  -9688447.98746         0.00041  22976359.09946  22976357.75648
 -14091079.15948 -10980013.63546         0.00041  22656174.37446  22656174.09848
  -3633639.34749  -2831405.05848         0.00041  20983833.69548  20983833.31849
 -19297358.52708 -15036887.92408  21308391.13508  21308392.60208         0.00001
 -21681308.05909 -16894502.92208  20614198.29609  20614199.57008         0.00001
 94 02 20 03 24 00.0000000  0  7 02 04 05 07 09 12 13
    247960.17048    193233.56846         0.00041  23268006.17146  23268005.12748
  -2099167.03249  -1635712.44748         0.00041  20719342.51648  20719342.32949
 -12512130.52748  -9749698.08246         0.00041  22961400.31146  22961399.95848
 -14017274.41548 -10922503.42546         0.00041  22670219.90846  22670218.99948
  -3653968.58649  -2847246.01348         0.00041  20979965.07648  20979964.67949
 -19353719.11708 -15080805.25008  21297666.09408  21297667.54908         0.00001
 -21650649.15009 -16870612.84908  20620032.44309  20620033.68608         0.00001
 94 02 20 03 24 30.0000000  0  7 02 04 05 07 09 12 13
    320810.41848    249999.98646         0.00041  23281868.76646  23281868.17148
  -2119729.46049  -1651735.09448         0.00041  20715429.41748  20715429.24749
 -12590725.90048  -9810941.17846         0.00041  22946444.77846  22946443.94948
 -13943426.27648 -10864959.40946         0.00041  22684272.26346  22684271.81448
  -3673746.26449  -2862657.17848         0.00041  20976201.38148  20976201.11149
 -19409709.11808 -15124433.80808  21287011.52808  21287012.95508         0.00001
 -21619615.89409 -16846431.07708  20625937.88909  20625939.10608         0.00001
 94 02 20 03 25 00.0000000  0  7 02 04 05 07 09 12 13
    393856.87148    306919.29246         0.00041  23295770.25946  23295767.99148
  -2139704.72149  -1667300.21148         0.00041  20711628.37348  20711628.33849
 -12669288.26348  -9872158.54846         0.00041  22931494.34046  22931493.80848
 -13869510.60648 -10807362.78446         0.00041  22698337.91846  22698337.57748
  -3692947.93349  -2877619.50948         0.00041  20972547.44448  20972547.14649
 -19465299.29408 -15167750.81308  21276433.01508  21276434.48308         0.00001
 -21588183.30809 -16821938.14108  20631919.29609  20631920.55208         0.00001
 94 02 20 03 25 30.0000000  0  7 02 04 05 07 09 12 13
    467092.12248    363985.68846         0.00041  23309706.07446  23309705.00448
  -2159096.44549  -1682410.63148         0.00041  20707938.22948  20707938.10149
 -12747833.20548  -9933362.35046         0.00041  22916547.86146  22916546.80748
 -13795544.65348 -10749726.96446         0.00041  22712413.49646  22712412.84948
  -3711601.52749  -2892154.76348         0.00041  20968997.95548  20968997.55649
 -19520499.99208 -15210764.32708  21265928.65808  21265930.20408         0.00001
 -21556366.78109 -16797146.03008  20637973.73109  20637975.03908         0.00001
 94 02 20 03 26 00.0000000  0  7 02 04 05 07 09 12 13
    540557.57648    421231.52146         0.00041  23323686.18146  23323684.67448
  -2177887.20549  -1697052.76048         0.00041  20704362.49048  20704362.40149
 -12826328.65248  -9994527.59046         0.00041  22901610.32346  22901609.53148
 -13721490.04748 -10692022.06446         0.00041  22726505.53146  22726504.72248
  -3729692.48149  -2906251.59948         0.00041  20965555.23048  20965554.84549
 -19575279.56908 -15253449.69208  21255504.35508  21255505.91108         0.00001
 -21524139.04409 -16772033.49608  20644106.49009  20644107.76308         0.00001
 94 02 20 03 26 30.0000000  0  7 02 04 05 07 09 12 13
    614259.62948    478661.67546         0.00041  23337711.27846  23337709.57248
  -2196084.31249  -1711232.30648         0.00041  20700899.58348  20700899.66249
 -12904780.27148 -10055658.68446         0.00041  22886681.41146  22886680.64548
 -13647353.24948 -10634253.11946         0.00041  22740612.76046  22740612.52348
  -3747228.92049  -2919916.34748         0.00041  20962218.34948  20962218.05849
 -19629637.67008 -15295806.63808  21245160.34208  21245161.82208         0.00001
 -21491504.60209 -16746604.04808  20650316.65109  20650317.83908         0.00001
 94 02 20 03 27 00.0000000  0  7 02 04 05 07 09 12 13
    688199.07448    536276.78646         0.00041  23351781.89346  23351779.82048
  -2213682.33549  -1724945.03148         0.00041  20697550.84948  20697550.92449
 -12983186.66848 -10116754.49446         0.00041  22871761.14246  22871760.34848
 -13573135.98848 -10576421.48546         0.00041  22754736.06846  22754735.59148
  -3764224.30949  -2933159.49848         0.00041  20958984.00348  20958983.74349
 -19683566.76908 -15337829.29608  21234897.95308  21234899.47208         0.00001
 -21458460.40709 -16720855.31208  20656604.72709  20656605.91508         0.00001
 94 02 20 03 27 30.0000000  0  7 02 04 05 07 09 12 13
    762387.38048    594085.80746         0.00041  23365897.81346  23365897.63848
  -2230680.26549  -1738190.15448         0.00041  20694316.10948  20694316.26949
 -13061538.95948 -10177808.16546         0.00041  22856851.19746  22856850.57848
 -13498826.19448 -10518517.72046         0.00041  22768877.81446  22768876.75648
  -3780678.17749  -2945980.67948         0.00041  20955853.16448  20955853.00849
 -19737060.68308 -15379512.84908  21224718.40508  21224719.95208         0.00001
 -21425004.98209 -16694786.13908  20662971.02209  20662972.29008         0.00001
 94 02 20 03 28 00.0000000  0  7 02 04 05 07 09 12 13
    836821.60348    652086.50446         0.00041  23380063.63846  23380061.97748
  -2247071.50249  -1750962.52248         0.00041  20691197.03048  20691197.01749
 -13139835.02648 -10238818.02346         0.00041  22841951.98346  22841951.38548
 -13424426.65848 -10460544.05746         0.00041  22783035.53746  22783034.36848
  -3796571.89549  -2958365.38048         0.00041  20952828.72248  20952828.33249
 -19790117.31508 -15420855.66008  21214622.01608  21214623.62208         0.00001
 -21391140.91709 -16668398.54408  20669415.12009  20669416.44408         0.00001
 94 02 20 03 28 30.0000000  0  7 02 04 05 07 09 12 13
    911484.87248    710265.62646         0.00041  23394271.44846  23394269.65948
  -2262856.82749  -1763262.75048         0.00041  20688193.23148  20688193.10049
 -13218083.69348 -10299790.93446         0.00041  22827062.22746  22827060.88648
 -13349954.27248 -10402513.62346         0.00041  22797206.46446  22797206.12248
  -3811906.53049  -2970314.44048         0.00041  20949910.45448  20949910.20049
 -19842743.12608 -15461862.76808  21204607.68808  21204609.29108         0.00001
 -21356879.37709 -16641701.23008  20675934.89909  20675936.18508         0.00001
 94 02 20 03 29 00.0000000  0  7 02 04 05 07 09 12 13
    986378.03548    768623.91946         0.00041  23408523.00946  23408521.29848
  -2278042.96249  -1775096.08248         0.00041  20685303.35448  20685303.25849
 -13296285.22448 -10360727.12646         0.00041  22812180.35846  22812179.40948
 -13275414.69148 -10344430.83546         0.00041  22811391.02046  22811390.51648
  -3826674.73549  -2981822.12648         0.00041  20947100.51548  20947100.05949
 -19894939.62908 -15502535.35208  21194675.04108  21194676.57408         0.00001
 -21322226.34409 -16614698.85708  20682529.13609  20682530.41608         0.00001
 94 02 20 03 29 30.0000000  0  7 02 04 05 07 09 12 13
   1061529.65148    827183.62546         0.00041  23422823.37546  23422822.36548
  -2292623.70949  -1786457.68148         0.00041  20682528.63648  20682528.65349
 -13374412.26048 -10421605.27046         0.00041  22797313.08146  22797311.98548
 -13200799.50248 -10286289.12246         0.00041  22825589.54646  22825589.23948
  -3840846.86149  -2992865.33048         0.00041  20944403.28748  20944403.16349
 -19946690.37408 -15542860.59508  21184827.21308  21184828.68108         0.00001
 -21287170.20509 -16587382.37508  20689200.11209  20689201.39308         0.00001
 94 02 20 03 30 00.0000000  0  7 02 04 05 07 09 12 13
   1136930.34348    885937.38746         0.00041  23437173.00446  23437170.97448
  -2306616.41749  -1797361.06548         0.00041  20679866.00748  20679865.75949
 -13452464.47548 -10482425.11546         0.00041  22782460.45446  22782459.48848
 -13126132.73748 -10228107.23646         0.00041  22839798.47246  22839797.79948
  -3854421.20149  -3003442.72848         0.00041  20941820.33448  20941819.85949
 -19998000.42408 -15582842.43608  21175063.21008  21175064.75208         0.00001
 -21251720.35609 -16559759.10308  20695945.95209  20695947.19608         0.00001
 94 02 20 03 30 30.0000000  0  7 02 04 05 07 09 12 13
   1212573.01948    944879.72446         0.00041  23451567.21646  23451565.23848
  -2320037.64849  -1807819.14748         0.00041  20677311.92748  20677311.84349
 -13530443.06648 -10543187.60546         0.00041  22767621.17846  22767620.84348
 -13051416.69048 -10169886.92746         0.00041  22854016.33946  22854015.63948
  -3867409.25649  -3013563.28148         0.00041  20939348.68248  20939348.25549
 -20048867.22908 -15622478.89208  21165383.53908  21165385.06208         0.00001
 -21215879.21809 -16531830.93508  20702766.29209  20702767.52408         0.00001
 94 02 20 03 31 00.0000000  0  7 02 04 05 07 09 12 13
   1288443.88048   1003999.84946         0.00041  23466003.49446  23466003.28148
  -2332911.61049  -1817850.78248         0.00041  20674862.09248  20674862.03649
 -13608360.00148 -10603902.03046         0.00041  22752794.77246  22752793.91648
 -12976663.89448 -10111637.97346         0.00041  22868241.56546  22868240.56548
  -3879817.65349  -3023232.15548         0.00041  20936987.43748  20936987.16949
 -20099299.92808 -15661777.08408  21155786.48008  21155788.00208         0.00001
 -21179660.32709 -16503608.41008  20709658.53409  20709659.74708         0.00001
 94 02 20 03 31 30.0000000  0  7 02 04 05 07 09 12 13
   1364524.03348   1063283.04946         0.00041  23480481.58046  23480480.50548
  -2345245.38349  -1827461.49648         0.00041  20672515.06848  20672514.94049
 -13686227.66248 -10664578.10046         0.00041  22737976.53046  22737976.17948
 -12901887.35948 -10053370.55846         0.00041  22882470.81546  22882469.97048
  -3891654.19349  -3032455.42348         0.00041  20934735.03148  20934734.92949
 -20149309.84308 -15700745.83508  21146269.88208  21146271.41008         0.00001
 -21143080.00509 -16475104.25108  20716619.48809  20716620.71708         0.00001
 94 02 20 03 32 00.0000000  0  7 02 04 05 07 09 12 13
   1440817.86048   1122732.78446         0.00041  23495000.12646  23494998.46348
  -2357006.42149  -1836625.92048         0.00041  20670276.96448  20670276.81349
 -13764043.93148 -10725214.10846         0.00041  22723168.47446  22723167.96448
 -12827062.02348  -9995065.10146         0.00041  22896709.92546  22896708.78948
  -3902906.50349  -3041223.45248         0.00041  20932593.72348  20932593.43549
 -20198876.28708 -15739369.02508  21136837.69808  21136839.24808         0.00001
 -21106121.79009 -16446305.63108  20723652.43409  20723653.65108         0.00001
 94 02 20 03 32 30.0000000  0  7 02 04 05 07 09 12 13
   1517325.57048   1182349.11946         0.00041  23509559.57846  23509557.82148
  -2368182.88649  -1845334.83748         0.00041  20668150.15148  20668150.12749
 -13841818.45848 -10785817.59746         0.00041  22708368.41746  22708367.54048
 -12752171.08348  -9936708.51846         0.00041  22910960.48746  22910959.98148
  -3913577.22549  -3049538.29248         0.00041  20930562.94148  20930563.03449
 -20247991.31008 -15777640.45708  21127491.41108  21127492.96608         0.00001
 -21068782.45609 -16417210.03708  20730757.85409  20730759.07208         0.00001
 94 02 20 03 33 00.0000000  0  7 02 04 05 07 09 12 13
   1594052.22948   1242136.15346         0.00041  23524160.06946  23524158.55548
  -2378772.75149  -1853586.66148         0.00041  20666134.86848  20666134.88349
 -13919554.81348 -10846391.33946         0.00041  22693575.68946  22693574.64248
 -12677216.40748  -9878302.27746         0.00041  22925223.88446  22925223.12248
  -3923668.64049  -3057401.72548         0.00041  20928642.57548  20928642.61149
 -20296658.70408 -15815563.08808  21118230.34708  21118231.81708         0.00001
 -21031070.39709 -16387824.00408  20737934.23709  20737935.42208         0.00001
 94 02 20 03 33 30.0000000  0  7 02 04 05 07 09 12 13
   1670982.33848   1302081.66946         0.00041  23538798.67946  23538798.13048
  -2388769.20249  -1861376.08848         0.00041  20664232.55748  20664232.70249
 -13997256.10548 -10906937.77046         0.00041  22678789.92146  22678788.74748
 -12602207.94348  -9819854.12646         0.00041  22939498.39846  22939497.15148
  -3933211.30749  -3064837.56648         0.00041  20926826.62048  20926826.53249
 -20344889.27208 -15853145.33608  21109052.29708  21109053.85808         0.00001
 -20993001.03109 -16358159.55208  20745178.58509  20745179.78208         0.00001
 94 02 20 03 34 00.0000000  0  7 02 04 05 07 09 12 13
   1748123.97748   1362192.00746         0.00041  23553479.10546  23553476.98648
  -2398160.28549  -1868693.79648         0.00041  20662445.65048  20662445.47549
 -14074898.72548 -10967438.46146         0.00041  22664014.81546  22664013.94148
 -12527137.91548  -9761358.01146         0.00041  22953782.92946  22953782.53448
  -3942200.58449  -3071842.19348         0.00041  20925116.11148  20925115.82549
 -20392665.95408 -15890373.90308  21099960.66508  21099962.26208         0.00001
 -20954561.82309 -16328206.91008  20752493.30209  20752494.49908         0.00001
 94 02 20 03 34 30.0000000  0  7 02 04 05 07 09 12 13
   1825495.36548   1422481.36246         0.00041  23568202.78246  23568200.38648
  -2406949.38549  -1875542.43048         0.00041  20660772.97748  20660773.10049
 -14152463.31748 -11027878.36246         0.00041  22649254.66846  22649253.89448
 -12452010.08948  -9702816.83846         0.00041  22968079.72746  22968078.71348
  -3950617.66749  -3078400.95148         0.00041  20923514.45648  20923514.23549
 -20439979.80908 -15927241.82708  21090957.21508  21090958.75108         0.00001
 -20915748.50009 -16297962.75208  20759879.14209  20759880.42308         0.00001
 94 02 20 03 35 00.0000000  0  7 02 04 05 07 09 12 13
   1903107.27848   1482958.14446         0.00041  23582971.63546  23582969.71348
  -2415118.18849  -1881907.71448         0.00041  20659218.45148  20659218.47549
 -14229927.10848 -11088239.70846         0.00041  22634514.08546  22634513.14148
 -12376818.68748  -9644226.14146         0.00041  22982389.04846  22982387.52448
  -3958455.46149  -3084508.31548         0.00041  20922022.64548  20922022.80349
 -20486818.70008 -15963739.65108  21082044.09108  21082045.58008         0.00001
 -20876553.61709 -16267421.27708  20767337.73009  20767338.92208         0.00001
 94 02 20 03 35 30.0000000  0  7 02 04 05 07 09 12 13
   1980952.62948   1543616.87045         0.00041  23597786.42245  23597782.75048
  -2422683.46149  -1887802.71548         0.00041  20657778.74948  20657778.79449
 -14307296.14348 -11148527.22646         0.00041  22619791.39746  22619790.28848
 -12301576.10948  -9585595.54746         0.00041  22996707.02646  22996705.61248
  -3965717.91049  -3090167.36148         0.00041  20920640.87148  20920640.79249
 -20533190.47008 -15999873.48508  21073219.82408  21073221.28308         0.00001
 -20836989.57509 -16236592.14208  20774866.54509  20774867.67608         0.00001
 94 02 20 03 36 00.0000000  0  7 02 04 05 07 09 12 13
   2059044.79648   1604467.87646         0.00041  23612645.75346  23612643.16648
  -2429665.81349  -1893243.49348         0.00041  20656449.95148  20656450.00149
 -14384589.63848 -11208755.87946         0.00041  22605082.23146  22605081.58948
 -12226285.56448  -9526927.59446         0.00041  23011033.61046  23011032.91048
  -3972385.63949  -3095362.98948         0.00041  20919371.88548  20919371.75849
 -20579098.89508 -16035646.26908  21064483.65708  21064485.18508         0.00001
 -20797064.69209 -16205481.83408  20782464.03709  20782465.14508         0.00001
 94 02 20 03 36 30.0000000  0  7 02 04 05 07 09 12 13
   2137396.62548   1665521.27546         0.00041  23627553.19346  23627552.83048
  -2436059.02549  -1898225.19948         0.00041  20655233.50648  20655233.43649
 -14461816.21048 -11268932.39346         0.00041  22590386.45146  22590385.84748
 -12150933.02648  -9468211.33646         0.00041  23025373.21946  23025372.07848
  -3978462.41549  -3100098.13248         0.00041  20918215.67548  20918215.60249
 -20624540.62408 -16071055.39508  21055836.35708  21055837.87808         0.00001
 -20756780.01009 -16174091.16208  20790129.97209  20790131.06808         0.00001
 94 02 20 03 37 00.0000000  0  7 02 04 05 07 09 12 13
   2215999.18448   1726769.96446         0.00041  23642511.51746  23642510.45048
  -2441863.95049  -1902748.50248         0.00041  20654128.82448  20654128.95949
 -14538980.07048 -11329060.05046         0.00041  22575702.75846  22575702.25248
 -12075524.95248  -9409451.79346         0.00041  23039722.82746  23039721.40048
  -3983959.76449  -3104381.77548         0.00041  20917169.49948  20917169.38149
 -20669521.55308 -16106105.45508  21047276.75008  21047278.28208         0.00001
 -20716146.07309 -16142428.34408  20797862.34109  20797863.46508         0.00001
 94 02 20 03 37 30.0000000  0  7 02 04 05 07 09 12 13
   2294841.31448   1788205.35346         0.00041  23657515.77246  23657514.09648
  -2447096.94649  -1906826.14648         0.00041  20653133.01448  20653132.94749
 -14616100.90948 -11389154.17646         0.00041  22561027.54946  22561026.90448
 -12000086.22148  -9350668.34946         0.00041  23054078.14546  23054077.20348
  -3988875.82649  -3108212.46848         0.00041  20916234.18648  20916234.09249
 -20714052.11708 -16140804.58308  21038802.86808  21038804.33208         0.00001
 -20675178.01409 -16110505.17108  20805658.27909  20805659.41708         0.00001
 94 02 20 03 38 00.0000000  0  7 02 04 05 07 09 12 13
   2373918.30148   1849823.77346         0.00041  23672565.09846  23672562.70348
  -2451720.79449  -1910429.12948         0.00041  20652253.20848  20652253.09949
 -14693169.55948 -11449207.64646         0.00041  22546361.62446  22546361.03648
 -11924609.24748  -9291855.12746         0.00041  23068441.09546  23068439.76448
  -3993215.04649  -3111593.67648         0.00041  20915408.41848  20915408.18949
 -20758118.04408 -16175141.65908  21030417.43108  21030418.89908         0.00001
 -20633865.97209 -16078313.96108  20813519.69309  20813520.81208         0.00001
 94 02 20 03 38 30.0000000  0  7 02 04 05 07 09 12 13
   2453189.87948   1911593.82746         0.00041  23687649.44046  23687647.64048
  -2455751.87149  -1913570.21548         0.00041  20651486.03948  20651486.11649
 -14770200.68348 -11509231.87246         0.00041  22531703.05646  22531702.46848
 -11849122.17848  -9233034.04246         0.00041  23082805.65946  23082804.93148
  -3997006.61649  -3114548.13748         0.00041  20914687.18248  20914686.87149
 -20801736.10409 -16209129.74608  21022117.19209  21022118.67308         0.00001
 -20592231.15909 -16045871.24308  20821442.49009  20821443.62608         0.00001
 94 02 20 03 39 00.0000000  0  7 02 04 05 07 09 12 13
   2532646.79448   1973508.27446         0.00041  23702769.97646  23702767.55248
  -2459197.65349  -1916255.22648         0.00041  20650830.32748  20650830.33049
 -14847185.46748 -11569219.98246         0.00041  22517052.92746  22517052.46248
 -11773630.41148  -9174209.29046         0.00041  23097171.06046  23097170.31948
  -4000229.77649  -3117059.68948         0.00041  20914073.63948  20914073.47949
 -20844895.29009 -16242760.27108  21013904.30309  21013905.75408         0.00001
 -20550267.26309 -16013172.09608  20829427.94809  20829429.04108         0.00001
 94 02 20 03 39 30.0000000  0  7 02 04 05 07 09 12 13
   2612307.68248   2035581.66945         0.00041  23717927.78245  23717926.44048
  -2462034.09549  -1918465.42848         0.00041  20650290.50148  20650290.51449
 -14924098.03648 -11629151.82346         0.00041  22502416.83646  22502416.51448
 -11698104.48348  -9115357.92146         0.00041  23111542.95646  23111542.52148
  -4002869.72749  -3119116.78448         0.00041  20913571.35048  20913571.10349
 -20887566.15609 -16276010.28508  21005784.28509  21005785.76808         0.00001
 -20507949.25909 -15980197.02208  20837480.81909  20837481.90608         0.00001
 94 02 20 03 40 00.0000000  0  7 02 04 05 07 09 12 13
   2692187.44148   2097825.62546         0.00041  23733129.44546  23733127.25948
  -2464272.64049  -1920209.73248         0.00041  20649864.55648  20649864.50249
 -15000918.23248 -11689011.68746         0.00041  22487798.24446  22487798.21248
 -11622517.96248  -9056459.32046         0.00041  23125926.27246  23125926.21848
  -4004924.47449  -3120717.88248         0.00041  20913180.29648  20913180.10649
 -20929738.09809 -16308871.52908  20997759.21109  20997760.68208         0.00001
 -20465271.13709 -15946941.33308  20845602.22209  20845603.25708         0.00001
 94 02 20 03 40 30.0000000  0  7 02 04 05 07 09 12 13
   2772297.87648   2160249.32546         0.00041  23748371.35646  23748371.37548
  -2465934.32249  -1921504.53448         0.00041  20649548.10548  20649548.34949
 -15077632.51848 -11748789.02146         0.00041  22473200.51746  22473199.87748
 -11546871.10948  -8997513.72746         0.00041  23140320.99046  23140321.14348
  -4006379.47549  -3121851.65048         0.00041  20912903.33548  20912903.08349
 -20971407.54609 -16341341.21908  20989829.73109  20989831.23508         0.00001
 -20422233.53309 -15913405.52908  20853791.98409  20853793.03308         0.00001
 94 02 20 03 41 00.0000000  0  7 02 04 05 07 09 12 13
   2852650.16948   2222861.46846         0.00041  23763662.05746  23763661.74248
  -2467006.56749  -1922340.03548         0.00041  20649344.09748  20649344.30549
 -15154219.22648 -11808466.94446         0.00041  22458626.66246  22458626.10248
 -11471162.24248  -8938519.81146         0.00041  23154729.45146  23154727.95848
  -4007248.56449  -3122528.85148         0.00041  20912738.29148  20912737.79049
 -21012572.17009 -16373417.54008  20981996.36509  20981997.84008         0.00001
 -20378838.67009 -15879591.34108  20862049.72709  20862050.89108         0.00001
 94 02 20 03 41 30.0000000  0  7 02 04 05 07 09 12 13
   2933254.01048   2285669.63846         0.00041  23779000.72646  23779000.34248
  -2467484.13849  -1922712.15448         0.00041  20649253.33148  20649253.34849
 -15230675.64248 -11868043.34346         0.00041  22444076.66946  22444076.20348
 -11395397.46348  -8879482.33046         0.00041  23169146.42046  23169145.57948
  -4007542.89149  -3122758.19348         0.00041  20912682.06848  20912681.60949
 -21053243.23909 -16405109.27308  20974256.87009  20974258.29408         0.00001
 -20335102.58009 -15845511.26408  20870372.36909  20870373.58808         0.00001
 94 02 20 03 42 00.0000000  0  7 02 04 05 07 09 12 13
   3014086.43248   2348655.94846         0.00041  23794384.90746  23794382.24348
  -2467393.23449  -1922641.30248         0.00041  20649270.61748  20649270.67849
 -15307025.51048 -11927536.70946         0.00041  22429548.12746  22429547.53548
 -11319599.28348  -8820418.82646         0.00041  23183569.65346  23183569.25548
  -4007273.89349  -3122548.58048         0.00041  20912733.17748  20912732.89049
 -21093442.75209 -16436433.56208  20966607.16909  20966608.54708         0.00001
 -20291051.38809 -15811185.65508  20878755.06009  20878756.18808         0.00001
 94 02 20 03 42 30.0000000  0  7 02 04 05 07 09 12 13
   3095162.06548   2411831.72246         0.00041  23809812.59446  23809810.63648
  -2466679.40549  -1922085.05648         0.00041  20649406.43148  20649406.66949
 -15383241.28748 -11986925.59646         0.00041  22415045.30946  22415044.55248
 -11243748.76848  -8761314.50346         0.00041  23198003.63446  23198003.22348
  -4006419.37449  -3121882.71848         0.00041  20912895.80948  20912895.42249
 -21133136.57109 -16467363.80408  20959053.71209  20959055.04708         0.00001
 -20246655.64409 -15776591.56108  20887203.29809  20887204.40708         0.00001
 94 02 20 03 43 00.0000000  0  7 02 04 05 07 09 12 13
   3176433.69648   2475160.22945         0.00041  23825277.80745  23825275.52748
  -2465388.07449  -1921078.81248         0.00041  20649652.23448  20649652.56749
 -15459384.66248 -12046258.05446         0.00041  22400554.93446  22400554.41748
 -11167883.51748  -8702198.73146         0.00041  23212440.41446  23212439.84548
  -4005016.46449  -3120789.53748         0.00041  20913162.70348  20913162.56349
 -21172365.56109 -16497931.84408  20951588.70009  20951589.99708         0.00001
 -20201960.56609 -15741764.22108  20895708.50209  20895709.61108         0.00001
 94 02 20 03 43 30.0000000  0  7 02 04 05 07 09 12 13
   3257880.19348   2538625.04945         0.00041  23840777.39845  23840773.86648
  -2463547.61649  -1919644.67448         0.00041  20650002.47448  20650002.74449
 -15535493.12248 -12105563.32246         0.00041  22386072.15746  22386071.85648
 -11092008.91048  -8643075.67146         0.00041  23226878.35946  23226878.44948
  -4003051.44549  -3119258.35148         0.00041  20913536.61148  20913536.56249
 -21211134.92909 -16528141.73908  20944211.13509  20944212.47908         0.00001
 -20156975.78109 -15706711.13408  20904268.81309  20904269.85808         0.00001
 94 02 20 03 44 00.0000000  0  7 02 04 05 07 09 12 13
   3339490.57648   2602217.52145         0.00041  23856306.01345  23856304.01148
  -2461146.27849  -1917773.48648         0.00041  20650459.34848  20650459.47749
 -15611562.63248 -12164838.23846         0.00041  22371596.59246  22371595.97048
 -11016114.83548  -8583937.42646         0.00041  23241321.59346  23241320.66848
  -4000518.34549  -3117284.50848         0.00041  20914018.49648  20914018.55949
 -21249427.81709 -16557980.34708  20936924.21409  20936925.60008         0.00001
 -20111688.76709 -15671422.54508  20912886.66209  20912887.69408         0.00001
 94 02 20 03 44 30.0000000  0  7 02 04 05 07 09 12 13
   3421284.32548   2665952.87945         0.00041  23871870.19545  23871868.97248
  -2458167.71149  -1915452.50948         0.00041  20651026.15048  20651026.29149
 -15687574.75248 -12224068.44246         0.00041  22357132.38946  22357131.49948
 -10940194.29348  -8524778.57546         0.00041  23255768.73046  23255768.21848
  -3997402.12349  -3114856.28248         0.00041  20914611.56248  20914611.57049
 -21287227.91809 -16587434.96608  20929731.07609  20929732.54008         0.00001
 -20066087.54709 -15635889.12208  20921564.29509  20921565.30208         0.00001
 94 02 20 03 45 00.0000000  0  7 02 04 05 07 09 12 13
   3503289.77748   2729853.21445         0.00041  23887478.56445  23887474.77348
  -2454608.00749  -1912678.70048         0.00041  20651703.37948  20651703.41449
 -15763509.67648 -12283238.48046         0.00041  22342681.98246  22342681.32648
 -10864230.75948  -8465586.20346         0.00041  23270223.54746  23270223.71748
  -3993673.99749  -3111951.24348         0.00041  20915321.08748  20915320.89349
 -21324518.47809 -16616492.53608  20922634.91109  20922636.40808         0.00001
 -20020160.09809 -15600101.49008  20930303.99509  20930304.95708         0.00001
 94 02 20 03 45 30.0000000  0  7 02 04 05 07 09 12 13
   3585516.54748   2793925.96045         0.00041  23903123.31445  23903121.58248
  -2450462.01849  -1909448.04148         0.00041  20652492.35148  20652492.38649
 -15839341.51448 -12342328.19046         0.00041  22328252.11746  22328251.12248
 -10788232.53548  -8406366.81646         0.00041  23284685.10746  23284685.04948
  -3989337.61649  -3108572.24048         0.00041  20916146.23748  20916146.03949
 -21361293.76609 -16645148.59808  20915636.80909  20915638.26308         0.00001
 -19973904.59209 -15564058.23208  20939106.12409  20939107.07308         0.00001
 94 02 20 03 46 00.0000000  0  7 02 04 05 07 09 12 13
   3667995.45648   2858195.24145         0.00041  23918818.50445  23918816.47648
  -2445723.16649  -1905755.41748         0.00041  20653394.26448  20653394.28349
 -15915043.85048 -12401317.00946         0.00041  22313846.22846  22313845.56448
 -10712202.74448  -8347122.82146         0.00041  23299153.84246  23299153.15848
  -3984396.35149  -3104721.90448         0.00041  20917086.59148  20917086.42249
 -21397546.35509 -16673397.36208  20908738.11909  20908739.62408         0.00001
 -19927318.18909 -15527757.13208  20947971.23209  20947972.22308         0.00001
 94 02 20 03 46 30.0000000  0  7 02 04 05 07 09 12 13
   3750734.40048   2922667.13845         0.00041  23934562.90645  23934561.18648
  -2440408.63249  -1901614.21048         0.00041  20654405.53848  20654405.43049
 -15990635.88248 -12460219.86846         0.00041  22299461.75546  22299461.07848
 -10636158.82948  -8287867.82746         0.00041  23313624.55046  23313623.60248
  -3978852.82849  -3100402.27448         0.00041  20918141.38948  20918141.24349
 -21433285.95109 -16701246.39008  20901937.11109  20901938.55908         0.00001
 -19880414.77309 -15491209.00608  20956896.61809  20956897.58808         0.00001
 94 02 20 03 47 00.0000000  0  7 02 04 05 07 09 12 13
   3833719.16048   2987330.54445         0.00041  23950354.51145  23950353.28548
  -2434530.48449  -1897033.82348         0.00041  20655524.20948  20655524.16449
 -16066133.20548 -12519048.93246         0.00041  22285094.92446  22285094.25148
 -10560116.88948  -8228614.34746         0.00041  23328094.83546  23328094.40348
  -3972720.50549  -3095623.84048         0.00041  20919308.15748  20919308.00749
 -21468519.24809 -16728700.90008  20895232.42709  20895233.87008         0.00001
 -19833205.45709 -15454422.51708  20965880.30309  20965881.22708         0.00001
 94 02 20 03 47 30.0000000  0  7 02 04 05 07 09 12 13
   3916944.59748   3052181.57745         0.00041  23966191.85245  23966190.73848
  -2428083.37549  -1892010.08848         0.00041  20656750.98448  20656751.04249
 -16141538.93748 -12577806.62746         0.00041  22270745.45846  22270744.53248
 -10484076.11048  -8169361.80346         0.00041  23342564.39346  23342564.30348
  -3966004.40249  -3090390.51248         0.00041  20920586.35848  20920586.24449
 -21503242.76509 -16755758.17808  20888624.79009  20888626.21408         0.00001
 -19785691.06109 -15417398.30808  20974922.04209  20974922.94108         0.00001
 94 02 20 03 48 00.0000000  0  7 02 04 05 07 09 12 13
   4000381.54548   3117197.32245         0.00041  23982069.06045  23982068.36848
  -2421058.73249  -1886536.32948         0.00041  20658087.77248  20658087.96649
 -16216871.12648 -12636507.00546         0.00041  22256410.03646  22256409.66648
 -10408033.42648  -8110107.76446         0.00041  23357035.85046  23357034.86048
  -3958711.59649  -3084707.80948         0.00041  20921974.31548  20921974.01049
 -21537465.59509 -16782425.31108  20882112.36609  20882113.80208         0.00001
 -19737884.90009 -15380146.74708  20984019.27009  20984020.12508         0.00001
 94 02 20 03 48 30.0000000  0  7 02 04 05 07 09 12 13
   4083996.56748   3182351.83445         0.00041  23997983.07145  23997979.73048
  -2413444.78449  -1880603.37248         0.00041  20659536.62248  20659536.75749
 -16292125.84148 -12695147.03146         0.00041  22242089.07446  22242088.74548
 -10331977.59248  -8050843.47646         0.00041  23371508.31546  23371507.79448
  -3950850.15349  -3078582.01148         0.00041  20923470.27248  20923470.01549
 -21571185.90809 -16808700.87208  20875695.60609  20875697.04208         0.00001
 -19689789.53409 -15342669.83108  20993171.46209  20993172.42608         0.00001
 94 02 20 03 49 00.0000000  0  7 02 04 05 07 09 12 13
   4167772.90048   3247632.09945         0.00041  24013922.60545  24013921.74048
  -2405250.27649  -1874218.02848         0.00041  20661095.96948  20661096.00549
 -16367282.12048 -12753710.33846         0.00041  22227787.50546  22227787.14548
 -10255900.14148  -7991562.33046         0.00041  23385985.28846  23385984.68648
  -3942440.32449  -3072028.89748         0.00041  20925070.63648  20925070.43849
 -21604412.43109 -16834591.66308  20869372.80109  20869374.21608         0.00001
 -19641417.68109 -15304977.47308  21002376.31309  21002377.28108         0.00001
 94 02 20 03 49 30.0000000  0  7 02 04 05 07 09 12 13
   4251711.19748   3313038.49545         0.00041  24029897.12745  24029894.93148
  -2396468.26749  -1867374.89148         0.00041  20662767.21048  20662767.03449
 -16442331.93548 -12812190.68947         0.00041  22213505.94847  22213505.64648
 -10179784.68248  -7932251.61446         0.00041  23400470.54846  23400468.67348
  -3933489.26249  -3065054.04448         0.00041  20926773.72848  20926773.58849
 -21637146.65609 -16860098.84608  20863143.72409  20863145.13208         0.00001
 -19592775.25209 -15267074.27408  21011632.56709  21011633.56608         0.00001
 94 02 20 03 50 00.0000000  0  7 02 04 05 07 09 12 13
   4335858.78248   3378608.06645         0.00041  24045908.23545  24045907.98148
  -2387054.09749  -1860039.15948         0.00041  20664558.43748  20664558.58849
 -16517226.48548 -12870550.05747         0.00041  22199254.45547  22199254.06648
 -10103582.20548  -7872873.04846         0.00041  23414969.85746  23414969.49248
  -3923966.11049  -3057633.41248         0.00041  20928585.97548  20928585.69749
 -21669344.50209 -16885188.07008  20857016.69509  20857018.10008         0.00001
 -19543822.29209 -15228929.10508  21020947.96609  21020948.96908         0.00001
 94 02 20 03 50 30.0000000  0  7 02 04 05 07 09 12 13
   4420234.78948   3444355.57845         0.00041  24061961.96545  24061963.95548
  -2377043.91649  -1852239.01148         0.00041  20666463.32648  20666463.58049
 -16591977.98448 -12928797.95347         0.00041  22185029.73847  22185029.16748
 -10027309.74448  -7813439.97046         0.00041  23429484.57546  23429483.90048
  -3913895.23949  -3049785.97448         0.00041  20930502.34548  20930501.90849
 -21701013.20509 -16909864.97508  20850990.32409  20850991.69808         0.00001
 -19494570.24809 -15190550.87908  21030320.33709  21030321.34208         0.00001
 94 02 20 03 51 00.0000000  0  7 02 04 05 07 09 12 13
   4504837.03648   3510279.42445         0.00041  24078063.94545  24078062.71848
  -2366468.38749  -1843998.32848         0.00041  20668475.60148  20668475.95349
 -16666623.92948 -12986963.60847         0.00041  22170824.72647  22170824.28748
  -9951000.33348  -7753978.06646         0.00041  23444005.91846  23444005.05248
  -3903282.73749  -3041516.49148         0.00041  20932521.92148  20932521.73449
 -21732171.45609 -16934144.12408  20845061.09809  20845062.47108         0.00001
 -19445041.99608 -15151957.42608  21039745.20508  21039746.26608         0.00001
 94 02 20 03 51 30.0000000  0  7 02 04 05 07 09 12 13
   4589675.65648   3576387.38544         0.00041  24094207.42644  24094206.72048
  -2355318.26349  -1835309.89848         0.00041  20670597.35448  20670597.67049
 -16741175.12448 -13045055.43047         0.00041  22156638.34447  22156637.87748
  -9874658.94348  -7694491.26746         0.00041  23458533.81946  23458532.02848
  -3892109.59549  -3032810.15848         0.00041  20934648.03048  20934648.04449
 -21762802.28409 -16958012.29508  20839232.22309  20839233.64508         0.00001
 -19395224.70708 -15113138.75408  21049225.12508  21049226.21808         0.00001
 94 02 20 03 52 00.0000000  0  7 02 04 05 07 09 12 13
   4674750.59248   3642679.50045         0.00041  24110398.45945  24110396.13948
  -2343610.41149  -1826186.89448         0.00041  20672825.45048  20672825.54749
 -16815630.99148 -13103072.96347         0.00041  22142469.56447  22142469.17048
  -9798304.57548  -7634994.37246         0.00041  23473063.14846  23473061.54348
  -3880364.60049  -3023658.20448         0.00041  20936883.19448  20936883.05949
 -21792898.37809 -16981463.79208  20833505.09509  20833506.55108         0.00001
 -19345115.34508 -15074092.49108  21058760.66108  21058761.72908         0.00001
 94 02 20 03 52 30.0000000  0  7 02 04 05 07 09 12 13
   4760040.52748   3709139.16845         0.00041  24126627.88445  24126626.43548
  -2331353.55949  -1816636.08948         0.00041  20675157.87648  20675157.98949
 -16890006.18548 -13161027.63447         0.00041  22128316.70547  22128316.28748
  -9721959.11748  -7575504.38746         0.00041  23487590.28146  23487590.20348
  -3868025.97849  -3014043.69748         0.00041  20939231.07948  20939230.82849
 -21822465.63309 -17004503.20508  20827878.64109  20827880.10808         0.00001
 -19294723.83208 -15034826.37208  21068349.86508  21068350.88408         0.00001
 94 02 20 03 53 00.0000000  0  6 02 05 07 09 12 13
   4845521.84848   3775747.92745         0.00041  24142893.22145  24142893.99748
 -16964281.89648 -13218904.79247         0.00041  22114181.88947  22114181.64748
  -9645618.26648  -7516018.01346         0.00041  23502119.04746  23502117.42148
  -3855071.29049  -3003949.13148         0.00041  20941696.33948  20941695.94249
 -21851496.82609 -17027124.91008  20822354.17209  20822355.60308         0.00001
 -19244046.86908 -14995337.82508  21077993.35108  21077994.43908         0.00001
 94 02 20 03 53 30.0000000  0  6 02 05 07 09 12 13
   4931202.27648   3842511.92745         0.00041  24159197.26545  24159197.67948
 -17038430.66848 -13276683.03247         0.00041  22100072.26547  22100072.08748
  -9569267.70448  -7456524.05346         0.00041  23516647.78346  23516646.70248
  -3841509.02349  -2993381.13348         0.00041  20944277.02048  20944276.70749
 -21879984.29009 -17049322.92908  20816933.17909  20816934.57808         0.00001
 -19193081.16808 -14955624.28408  21087691.73708  21087692.86308         0.00001
 94 02 20 03 54 00.0000000  0  6 02 05 07 09 12 13
   5017074.23748   3909425.09845         0.00041  24175539.59345  24175538.38748
 -17112453.56049 -13334363.19347         0.00041  22085986.46147  22085986.32849
  -9492902.41548  -7397018.65846         0.00041  23531179.90946  23531177.98048
  -3827346.98649  -2982345.78148         0.00041  20946971.83648  20946971.81949
 -21907939.57509 -17071106.26108  20811613.47009  20811614.84408         0.00001
 -19141842.07408 -14915697.70908  21097442.19308  21097443.26908         0.00001
 94 02 20 03 54 30.0000000  0  6 02 05 07 09 12 13
   5103148.39348   3976495.87145         0.00041  24191917.76845  24191917.87048
 -17186333.56448 -13391932.00347         0.00041  22071927.35047  22071926.96548
  -9416495.78048  -7337481.02046         0.00041  23545719.06646  23545717.29148
  -3812580.42949  -2970839.37548         0.00041  20949782.08448  20949781.71549
 -21935354.95709 -17092468.89308  20806396.52909  20806397.92108         0.00001
 -19090326.04008 -14875555.34008  21107245.32508  21107246.42108         0.00001
 94 02 20 03 55 00.0000000  0  6 02 05 07 09 12 13
   5189443.97548   4043739.16945         0.00041  24208342.39245  24208339.76448
 -17260052.12548 -13449375.01947         0.00041  22057898.49947  22057898.67848
  -9340034.01948  -7277900.42346         0.00041  23560268.04746  23560267.65848
  -3797238.70349  -2958884.77848         0.00041  20952701.74248  20952701.28549
 -21962226.51009 -17113407.76408  20801283.07609  20801284.43508         0.00001
 -19038533.14208 -14835197.23108  21117101.17908  21117102.30408         0.00001
 94 02 20 03 55 30.0000000  0  6 02 05 07 09 12 13
   5275971.51148   4111163.15145         0.00041  24224806.72345  24224805.56048
 -17333632.49148 -13506710.34747         0.00041  22043896.66447  22043896.75448
  -9263531.20848  -7218287.88146         0.00041  23574827.43446  23574826.07148
  -3781337.56749  -2946494.28448         0.00041  20955727.49248  20955727.24949
 -21988563.97609 -17133930.46208  20796271.22909  20796272.53608         0.00001
 -18986476.91608 -14794633.93208  21127007.18208  21127008.31208         0.00001
 94 02 20 03 56 00.0000000  0  6 02 05 07 09 12 13
   5362715.96948   4178756.23545         0.00041  24241314.47545  24241312.18948
 -17407080.48048 -13563942.53047         0.00041  22029919.89647  22029920.19048
  -9187004.68348  -7158656.82346         0.00041  23589390.66346  23589389.18248
  -3764867.20349  -2933660.23348         0.00041  20958861.30748  20958861.43049
 -22014366.24709 -17154036.12508  20791361.12509  20791362.54408         0.00001
 -18934160.39808 -14753867.81208  21136962.63308  21136963.77508         0.00001
 94 02 20 03 56 30.0000000  0  6 02 05 07 09 12 13
   5449653.18148   4246499.52945         0.00041  24257857.42445  24257855.68348
 -17480421.61149 -13621091.44247         0.00041  22015963.65147  22015963.85649
  -9110502.53248  -7099044.72746         0.00041  23603947.77146  23603946.51848
  -3747852.22749  -2920401.81348         0.00041  20962099.43848  20962099.21649
 -22039651.60909 -17173738.99908  20786549.44909  20786550.90808         0.00001
 -18881605.90308 -14712916.25408  21146963.43508  21146964.57608         0.00001
 94 02 20 03 57 00.0000000  0  6 02 05 07 09 12 13
   5536765.97248   4314379.60045         0.00041  24274434.92045  24274432.85048
 -17553670.08648 -13678168.15847         0.00041  22002025.25847  22002024.77548
  -9034044.68548  -7039467.18146         0.00041  23618497.21446  23618495.39148
  -3730298.92649  -2906723.92048         0.00041  20965439.80448  20965439.64449
 -22064423.20509 -17193041.53808  20781835.56909  20781837.04108         0.00001
 -18828820.46408 -14671784.73808  21157008.21108  21157009.29508         0.00001
 94 02 20 03 57 30.0000000  0  6 02 05 07 09 12 13
   5624058.44348   4382399.69846         0.00041  24291045.64046  24291044.33748
 -17626822.93748 -13735170.35947         0.00041  21988104.72847  21988104.29048
  -8957623.25948  -6979917.98446         0.00041  23633038.74746  23633037.81548
  -3712174.95449  -2892601.34648         0.00041  20968888.38448  20968888.36149
 -22088661.31409 -17211928.37508  20777223.23309  20777224.69608         0.00001
 -18775788.13508 -14630460.83808  21167099.94008  21167101.02008         0.00001
 94 02 20 03 58 00.0000000  0  6 02 05 07 09 12 13
   5711534.00148   4450562.41245         0.00041  24307692.48645  24307689.99148
 -17699857.85849 -13792080.66747         0.00041  21974206.88747  21974206.50549
  -8881212.38148  -6920377.06246         0.00041  23647580.58846  23647579.31148
  -3693470.32049  -2878026.30748         0.00041  20972448.01148  20972447.84649
 -22112346.99209 -17230384.74608  20772715.98009  20772717.45008         0.00001
 -18722493.87308 -14588932.83908  21177241.57008  21177242.57208         0.00001
 94 02 20 03 58 30.0000000  0  6 02 05 07 09 12 13
   5799207.58048   4518879.46545         0.00041  24324376.22045  24324373.99048
 -17772761.21849 -13848888.46047         0.00041  21960333.45647  21960333.40349
  -8804776.74548  -6860816.85446         0.00041  23662126.16046  23662124.56948
  -3674190.77549  -2863003.28348         0.00041  20976116.73248  20976116.64349
 -22135468.17009 -17248401.24408  20768316.17609  20768317.67008         0.00001
 -18668929.57508 -14547194.41808  21187434.47908  21187435.50808         0.00001
 94 02 20 03 59 00.0000000  0  6 02 05 07 09 12 13
   5887084.53348   4587355.03145         0.00041  24341098.93645  24341096.57948
 -17845518.43649 -13905582.37947         0.00041  21946488.15747  21946488.10849
  -8728295.26148  -6801220.88546         0.00041  23676679.42346  23676678.24248
  -3654339.84549  -2847535.03048         0.00041  20979894.12348  20979893.99049
 -22158020.11909 -17265974.18708  20764024.70509  20764026.14408         0.00001
 -18615094.19808 -14505244.76908  21197679.00308  21197679.97508         0.00001
 94 02 20 03 59 30.0000000  0  6 02 05 07 09 12 13
   5975173.26048   4655995.58245         0.00041  24357858.63645  24357859.34548
 -17918126.85649 -13962160.34947         0.00041  21932671.64847  21932671.37649
  -8651762.01448  -6741584.59846         0.00041  23691243.19146  23691241.63048
  -3633917.08349  -2831621.19248         0.00041  20983780.56648  20983780.37549
 -22180002.12709 -17283103.02308  20759841.70109  20759843.07408         0.00001
 -18560991.10708 -14463086.50908  21207974.48908  21207975.44808         0.00001
 94 02 20 04 00 00.0000000  0  6 02 05 07 09 12 13
   6063483.46948   4724808.67145         0.00041  24374665.04045  24374663.88048
 -17990572.03749 -14018611.11847         0.00041  21918885.34947  21918885.06049
  -8575173.74048  -6681905.41846         0.00041  23705817.59546  23705816.69148
  -3612928.58349  -2815266.52048         0.00041  20987774.72848  20987774.43049
 -22201413.80409 -17299787.44508  20755767.20709  20755768.55008         0.00001
 -18506623.38208 -14420722.04408  21218320.27408  21218321.31508         0.00001
 94 02 20 04 00 30.0000000  0  6 02 05 07 09 12 13
   6152019.71848   4793797.94444         0.00041  24391518.26744  24391511.90548
 -18062843.86149 -14074926.80647         0.00041  21905132.89747  21905132.60249
  -8498544.74048  -6622194.49746         0.00041  23720399.49646  23720398.79248
  -3591360.13649  -2798459.94148         0.00041  20991878.98648  20991878.81549
 -22222251.78609 -17316024.83208  20751801.87009  20751803.23608         0.00001
 -18451991.74108 -14378151.92908  21228716.34808  21228717.43008         0.00001
 94 02 20 04 01 00.0000000  0  6 02 05 07 09 12 13
   6240771.58348   4862955.18345         0.00041  24408401.80545  24408400.36448
 -18134969.02749 -14131128.21547         0.00041  21891407.77447  21891407.39349
  -8421906.12248  -6562476.10146         0.00041  23734983.11046  23734982.28448
  -3569213.44849  -2781202.78148         0.00041  20996093.31948  20996093.16149
 -22242530.78709 -17331826.64608  20747942.88309  20747944.27508         0.00001
 -18397114.20708 -14335390.20708  21239159.19308  21239160.25008         0.00001
 94 02 20 04 01 30.0000000  0  6 02 05 07 09 12 13
   6329738.86648   4932280.30045         0.00041  24425331.27545  24425330.76248
 -18206945.18949 -14187213.51647         0.00041  21877710.89147  21877710.56449
  -8345258.54348  -6502750.73246         0.00041  23749568.63746  23749567.41648
  -3546487.97249  -2763494.62648         0.00041  21000417.70748  21000417.58049
 -22262248.41809 -17347191.03108  20744190.74509  20744192.08408         0.00001
 -18341992.51408 -14292438.23508  21249648.52708  21249649.57308         0.00001
 94 02 20 04 02 00.0000000  0  6 02 05 07 09 12 13
   6418912.10048   5001765.90745         0.00041  24442300.45545  24442300.35448
 -18278764.59449 -14243176.66847         0.00041  21864044.29747  21864044.16449
  -8268613.32248  -6443027.19646         0.00041  23764154.03446  23764152.70048
  -3523192.99249  -2745342.69348         0.00041  21004850.66048  21004850.73649
 -22281408.18609 -17362120.71808  20740544.73609  20740546.12008         0.00001
 -18286633.68908 -14249301.48308  21260182.94108  21260183.96308         0.00001
 94 02 20 04 02 30.0000000  0  6 02 05 07 09 12 13
   6508277.28648   5071401.08045         0.00041  24459306.59945  24459305.81648
 -18350429.06949 -14299019.10347         0.00041  21850406.90447  21850406.71949
  -8191966.93248  -6383302.75246         0.00041  23778738.34546  23778738.11848
  -3499325.08649  -2726744.32748         0.00041  21009392.63948  21009392.40849
 -22300005.75209 -17376612.32808  20737005.71809  20737007.11208         0.00001
 -18231036.96808 -14205979.35508  21270762.61908  21270763.64308         0.00001
 94 02 20 04 03 00.0000000  0  6 02 05 07 09 12 13
   6597819.00048   5141173.80045         0.00041  24476347.12845  24476344.32148
 -18421955.68749 -14354754.11147         0.00041  21836795.72747  21836795.50449
  -8115314.48448  -6323573.55546         0.00041  23793324.01946  23793324.89448
  -3474911.14149  -2707720.47548         0.00041  21014038.48248  21014038.17649
 -22318056.00809 -17390677.46008  20733570.88909  20733572.32708         0.00001
 -18175220.91508 -14162486.32208  21281384.00308  21281385.07208         0.00001
 94 02 20 04 03 30.0000000  0  6 02 05 07 09 12 13
   6687531.44448   5211079.56245         0.00041  24493420.34045  24493416.64548
 -18493327.04949 -14410368.14247         0.00041  21823214.41847  21823213.96049
  -8038654.60048  -6263838.57246         0.00041  23807912.72346  23807912.26148
  -3449947.56049  -2688268.33948         0.00041  21018788.91748  21018788.84649
 -22335556.76609 -17404314.40908  20730240.66109  20730242.00908         0.00001
 -18119187.04808 -14118823.56308  21292046.89708  21292047.95108         0.00001
 94 02 20 04 04 00.0000000  0  6 02 05 07 09 12 13
   6777412.39548   5281116.67645         0.00041  24510523.22845  24510520.23948
 -18564546.44249 -14465863.75947         0.00041  21809661.54047  21809661.27449
  -7961983.53548  -6204094.92046         0.00041  23822502.67646  23822501.67748
  -3424427.77249  -2668382.78848         0.00041  21023645.05248  21023644.91449
 -22352509.67009 -17417524.46008  20727014.65209  20727016.01008         0.00001
 -18062940.60408 -14074995.16108  21302750.21608  21302751.24908         0.00001
 94 02 20 04 04 30.0000000  0  6 02 05 07 09 12 13
   6867464.86448   5351287.34744         0.00041  24527658.32944  24527656.57048
 -18635620.36949 -14521246.02947         0.00041  21796136.37347  21796136.27749
  -7885282.15048  -6144327.59345         0.00041  23837098.56845  23837098.06148
  -3398343.38249  -2648057.29748         0.00041  21028608.83948  21028608.58749
 -22368906.04109 -17430300.85408  20723894.52909  20723895.85608         0.00001
 -18006476.36908 -14030997.05508  21313495.03008  21313496.07108         0.00001
 94 02 20 04 05 00.0000000  0  6 02 05 07 09 12 13
   6957691.47048   5421593.77745         0.00041  24544825.81645  24544825.97148
 -18706558.27549 -14576522.30947         0.00041  21782637.85147  21782637.57549
  -7808563.62548  -6084546.94745         0.00041  23851698.16545  23851697.27248
  -3371703.40649  -2627298.87748         0.00041  21033678.24848  21033677.88149
 -22384753.34409 -17442649.40108  20720878.84709  20720880.23008         0.00001
 -17949805.30008 -13986837.77108  21324279.19308  21324280.21608         0.00001
 94 02 20 04 05 30.0000000  0  6 02 05 07 09 12 13
   7048085.08048   5492030.28944         0.00041  24562031.22144  24562027.26648
 -18777359.31849 -14631691.94247         0.00041  21769164.81447  21769164.54549
  -7731851.63048  -6024771.36046         0.00041  23866295.27946  23866295.43848
  -3344510.71149  -2606109.76448         0.00041  21038852.91148  21038852.65349
 -22400048.40209 -17454567.62408  20717968.31209  20717969.67608         0.00001
 -17892927.91508 -13942517.72508  21335102.60208  21335103.60608         0.00001
 94 02 20 04 06 00.0000000  0  6 02 05 07 09 12 13
   7138654.43748   5562603.82044         0.00041  24579262.56544  24579262.09748
 -18848023.23249 -14686754.72047         0.00041  21755717.87847  21755717.60749
  -7655138.64848  -5964995.00746         0.00041  23880895.38346  23880893.14648
  -3316768.74949  -2584492.65448         0.00041  21044131.70748  21044131.53549
 -22414780.77609 -17466047.39708  20715164.87709  20715166.16408         0.00001
 -17835837.06908 -13898031.34708  21345966.63108  21345967.61708         0.00001
 94 02 20 04 06 30.0000000  0  6 02 05 07 09 12 13
   7229408.15948   5633320.95944         0.00041  24596533.64244  24596532.30948
 -18918541.76449 -14741704.21547         0.00041  21742298.51947  21742298.37849
  -7578434.99048  -5905225.93746         0.00041  23895491.20546  23895489.25548
  -3288476.87449  -2562447.04248         0.00041  21049515.62348  21049515.32849
 -22428940.34209 -17477080.82508  20712470.40909  20712471.72308         0.00001
 -17778526.13908 -13853373.47508  21356872.53708  21356873.51708         0.00001
 94 02 20 04 07 00.0000000  0  6 02 05 07 09 12 13
   7320383.33248   5704210.65345         0.00041  24613847.03345  24613844.38848
 -18988866.27549 -14796502.52447         0.00041  21728916.19347  21728916.14549
  -7501729.04948  -5845455.04445         0.00041  23910086.78745  23910086.06648
  -3259611.43549  -2539954.49548         0.00041  21055008.50548  21055008.26449
 -22442499.74209 -17487646.59008  20709890.11509  20709891.45608         0.00001
 -17720971.15408 -13808525.42908  21367824.90508  21367825.86308         0.00001
 94 02 20 04 07 30.0000000  0  6 02 05 07 09 12 13
   7411557.88348   5775255.81944         0.00041  24631195.76044  24631194.46448
 -19058994.04349 -14851147.52847         0.00041  21715571.02247  21715570.96549
  -7425039.56548  -5785697.00846         0.00041  23924679.58046  23924680.17848
  -3230191.73049  -2517030.06048         0.00041  21060606.77948  21060606.54549
 -22455475.60209 -17497757.64608  20707420.85609  20707422.22008         0.00001
 -17663192.08008 -13763502.77008  21378819.91708  21378820.82908         0.00001
 94 02 20 04 08 00.0000000  0  6 02 05 07 09 12 13
   7502942.42148   5846464.49745         0.00041  24648586.02245  24648584.51548
 -19128911.48449 -14905628.63547         0.00041  21702266.40047  21702266.09749
  -7348354.58248  -5725942.50045         0.00041  23939271.91845  23939272.29548
  -3200220.36849  -2493675.75448         0.00041  21066310.13048  21066310.03449
 -22467865.81009 -17507412.35208  20705063.09209  20705064.39408         0.00001
 -17605190.24108 -13718306.53008  21389857.27008  21389858.23808         0.00001
 94 02 20 04 08 30.0000000  0  6 02 05 07 09 12 13
   7594529.95548   5917831.44944         0.00041  24666017.33844  24666013.01848
 -19198614.82849 -14959942.91747         0.00041  21689002.01347  21689001.76249
  -7271678.93448  -5666195.24445         0.00041  23953860.85945  23953863.02848
  -3169710.17849  -2469901.58648         0.00041  21072116.27148  21072115.91549
 -22479678.16109 -17516616.78308  20702815.27509  20702816.57008         0.00001
 -17546976.88508 -13672945.47008  21400934.91508  21400935.85408         0.00001
 94 02 20 04 09 00.0000000  0  6 02 05 07 09 12 13
   7686296.32348   5989337.69644         0.00041  24683476.24544  24683475.12948
 -19268124.77849 -15014106.50847         0.00041  21675775.00347  21675774.61949
  -7195012.40148  -5606455.14246         0.00041  23968453.60246  23968451.97848
  -3138679.63449  -2445721.94648         0.00041  21078021.07248  21078020.96849
 -22490926.98909 -17525382.10508  20700674.68209  20700676.02308         0.00001
 -17488569.28908 -13627433.05208  21412049.52808  21412050.43008         0.00001
 94 02 20 04 09 30.0000000  0  6 02 05 07 09 12 13
   7778226.25448   6060971.35644         0.00041  24700968.41444  24700968.58048
 -19337472.62949 -15068143.78747         0.00041  21662578.63847  21662578.23449
  -7118357.38848  -5546723.93345         0.00041  23983040.66945  23983039.59948
  -3107139.21049  -2421144.99448         0.00041  21084022.95048  21084022.92049
 -22501621.26209 -17533715.30608  20698639.56909  20698640.99908         0.00001
 -17429979.97708 -13581779.03408  21423198.66608  21423199.56708         0.00001
 94 02 20 04 10 00.0000000  0  6 02 05 07 09 12 13
   7870307.88148   6132723.30944         0.00041  24718492.01344  24718491.31748
 -19406686.90449 -15122076.97747         0.00041  21649407.53847  21649407.44449
  -7041707.11748  -5486996.45945         0.00041  23997625.24945  23997625.94348
  -3075090.85649  -2396172.25648         0.00041  21090121.72648  21090121.59749
 -22511765.08709 -17541619.58608  20696709.27809  20696710.69008         0.00001
 -17371216.16208 -13535989.04608  21434381.08008  21434381.99008         0.00001
 94 02 20 04 10 30.0000000  0  6 02 05 07 09 12 13
   7962540.07448   6204592.48944         0.00041  24736044.25644  24736042.40848
 -19475786.48949 -15175920.79847         0.00041  21636258.41247  21636258.42649
  -6965053.07148  -5427266.03645         0.00041  24012211.82345  24012211.89948
  -3042504.76049  -2370780.49848         0.00041  21096322.86548  21096322.39549
 -22521349.68309 -17549088.10408  20694885.39809  20694886.80108         0.00001
 -17312272.51308 -13490058.92508  21445597.66608  21445598.60608         0.00001
 94 02 20 04 11 00.0000000  0  6 02 05 07 09 12 13
   8054925.10448   6276580.84045         0.00041  24753622.60845  24753622.64048
 -19544764.35149 -15229669.77047         0.00041  21623132.48247  21623132.30249
  -6888401.15348  -5367537.29746         0.00041  24026801.57246  24026797.75148
  -3009369.24549  -2344960.62248         0.00041  21102628.06248  21102627.75649
 -22530373.26209 -17556119.46308  20693168.25709  20693169.61608         0.00001
 -17253150.33308 -13443989.69108  21456848.20508  21456849.23308         0.00001
 94 02 20 04 11 30.0000000  0  6 02 05 07 09 12 13
   8147471.79148   6348695.02045         0.00041  24771237.59245  24771234.26148
 -19613593.37149 -15283302.76447         0.00041  21610034.24647  21610034.22149
  -6811757.54748  -5307815.00445         0.00041  24041385.15245  24041383.60348
  -2975669.61449  -2318701.17348         0.00041  21109040.66848  21109040.61249
 -22538827.08909 -17562706.86208  20691559.50809  20691560.90708         0.00001
 -17193843.69408 -13397776.71908  21468133.89608  21468134.90208         0.00001
 94 02 20 04 12 00.0000000  0  7 02 05 07 09 12 13 20
   8240190.28348   6420943.21045         0.00041  24788880.17745  24788877.95748
 -19682259.63649 -15336808.93647         0.00041  21596967.39847  21596967.15349
  -6735116.42948  -5248094.67845         0.00041  24055968.55945  24055968.08248
  -2941399.20749  -2291996.96748         0.00041  21115562.26848  21115561.96549
 -22546702.27409 -17568843.37008  20690060.90109  20690062.24908         0.00001
 -17134347.29808 -13351415.88808  21479455.69308  21479456.68208         0.00001
        -0.09458         0.08155         0.00051  24546483.93755  24546481.26058
 94 02 20 04 12 30.0000000  0  7 02 05 07 09 12 13 20
   8333121.10348   6493356.78745         0.00041  24806562.55545  24806561.52248
 -19750706.34849 -15390144.02547         0.00041  21583942.69447  21583942.31849
  -6658457.65048  -5188360.58445         0.00041  24070557.67345  24070555.54048
  -2906539.65249  -2264833.68548         0.00041  21122196.13348  21122195.89949
 -22553968.16309 -17574505.10508  20688678.26309  20688679.60508         0.00001
 -17074633.43208 -13304885.60008  21490818.82408  21490819.82208         0.00001
    -96783.97548    -75415.80044         0.00041  24528064.76344  24528063.43248
 94 02 20 04 13 00.0000000  0  7 02 05 07 09 12 13 20
   8426262.38148   6565934.42844         0.00041  24824289.52844  24824286.08948
 -19818901.62849 -15443283.19047         0.00041  21570965.84547  21570965.39549
  -6581785.54048  -5128616.11945         0.00041  24085146.53645  24085144.60748
  -2871109.10749  -2237225.47448         0.00041  21128938.37948  21128938.06649
 -22560623.41209 -17579691.01608  20687411.82909  20687413.20508         0.00001
 -17014703.85208 -13258187.22308  21502223.04208  21502224.04208         0.00001
   -193564.98848   -150829.43345         0.00041  24509648.46845  24509646.42648
 94 02 20 04 13 30.0000000  0  7 02 05 07 09 12 13 20
   8519576.27448   6638646.47444         0.00041  24842042.70944  24842043.23948
 -19886895.16849 -15496265.16247         0.00041  21558026.90247  21558026.80949
  -6505127.91448  -5068882.89945         0.00041  24099733.65345  24099732.62948
  -2835141.20949  -2209198.54648         0.00041  21135782.52648  21135782.22649
 -22566694.85808 -17584422.01508  20686256.43008  20686257.86708         0.00001
 -16954588.22108 -13211343.87008  21513662.65108  21513663.65408         0.00001
   -290369.37048   -226261.36345         0.00041  24491225.18045  24491224.90248
 94 02 20 04 14 00.0000000  0  7 02 05 07 09 12 13 20
   8613071.53348   6711499.84745         0.00041  24859835.16945  24859834.79548
 -19954682.75349 -15549086.65047         0.00041  21545127.11547  21545126.85849
  -6428464.92648  -5009145.48345         0.00041  24114322.33845  24114322.41948
  -2798634.49449  -2180751.76248         0.00041  21142729.71948  21142729.32149
 -22572172.20508 -17588690.07808  20685214.16608  20685215.53608         0.00001
 -16894279.36008 -13164349.95108  21525139.03508  21525140.10808         0.00001
   -387186.66648   -301703.26245         0.00041  24472800.28945  24472800.35948
 94 02 20 04 14 30.0000000  0  7 02 05 07 09 12 13 20
   8706724.14148   6784475.91044         0.00041  24877660.06244  24877656.36348
 -20022272.10049 -15601753.66047         0.00041  21532265.51347  21532265.07249
  -6351814.40448  -4949417.84946         0.00041  24128907.80146  24128908.52648
  -2761604.95549  -2151897.58348         0.00041  21149776.13748  21149775.96749
 -22577068.57408 -17592505.43308  20684282.38108  20684283.81908         0.00001
 -16833793.22308 -13117217.89008  21536649.17108  21536650.17808         0.00001
   -484029.45048   -377165.10045         0.00041  24454373.83145  24454372.15248
 94 02 20 04 15 00.0000000  0  7 02 05 07 09 12 13 20
   8800525.61648   6857567.86744         0.00041  24895507.85044  24895506.12248
 -20089681.86649 -15654280.74247         0.00041  21519437.87147  21519437.63749
  -6275176.31548  -4889699.84446         0.00041  24143492.86746  24143490.83448
  -2724047.40949  -2122631.96648         0.00041  21156923.27348  21156922.99649
 -22581381.91708 -17595866.48208  20683461.56908  20683463.03308         0.00001
 -16773130.90208 -13069948.54708  21548192.79408  21548193.86308         0.00001
   -580895.35848   -452644.91645         0.00041  24435940.03145  24435939.43748
 94 02 20 04 15 30.0000000  0  7 02 05 07 09 12 13 20
   8894486.26048   6930783.95244         0.00041  24913387.05144  24913386.99348
 -20156914.72649 -15706669.96947         0.00041  21506643.77947  21506643.75149
  -6198535.14448  -4829979.49445         0.00041  24158077.41545  24158075.44748
  -2685964.16749  -2092956.72148         0.00041  21164170.23348  21164169.85649
 -22585103.37908 -17598766.32608  20682753.36708  20682754.90308         0.00001
 -16712286.43808 -13022537.27608  21559771.13808  21559772.16308         0.00001
   -677774.68948   -528135.22245         0.00041  24417505.74645  24417503.90848
 94 02 20 04 16 00.0000000  0  7 02 05 07 09 12 13 20
   8988615.12448   7004131.16944         0.00041  24931303.27444  24931298.93548
 -20223948.70849 -15758904.23047         0.00041  21493887.68247  21493887.56349
  -6121882.96648  -4770250.52845         0.00041  24172661.92345  24172662.99548
  -2647360.56249  -2062875.99848         0.00041  21171515.98648  21171515.93249
 -22588233.61508 -17601205.47108  20682157.74908  20682159.21308         0.00001
 -16651263.26708 -12974986.74808  21571383.48708  21571384.47808         0.00001
   -774667.40948   -603635.94245         0.00041  24399063.53045  24399065.95048
 94 02 20 04 16 30.0000000  0  7 02 05 07 09 12 13 20
   9082938.04348   7077629.48844         0.00041  24949249.79844  24949247.01748
 -20290777.01449 -15810978.22647         0.00041  21481170.74147  21481170.40549
  -6045204.83448  -4710501.32145         0.00041  24187253.55445  24187252.98048
  -2608213.91149  -2032372.12548         0.00041  21178965.14948  21178965.12649
 -22590753.48008 -17603169.00708  20681678.24708  20681679.70508         0.00001
 -16590045.35108 -12927284.47008  21583032.89208  21583033.81908         0.00001
   -871554.06748   -679131.96645         0.00041  24380630.48045  24380629.80848
 94 02 20 04 17 00.0000000  0  7 02 05 07 09 12 13 20
   9177438.52348   7151266.24844         0.00041  24967229.63044  24967230.15248
 -20357422.56849 -15862909.81947         0.00041  21468488.58447  21468488.39149
  -5968513.80748  -4650742.12745         0.00041  24201847.93745  24201846.39148
  -2568540.44949  -2001457.75048         0.00041  21186515.25748  21186515.04649
 -22592680.88808 -17604670.88408  20681311.46008  20681312.97208         0.00001
 -16528653.20708 -12879446.43408  21594715.45908  21594716.40008         0.00001
   -968451.91548   -754636.67445         0.00041  24362193.21945  24362190.92148
 94 02 20 04 17 30.0000000  0  7 02 05 07 09 12 13 20
   9272115.80348   7225040.59044         0.00041  24985242.50944  24985246.73648
 -20423883.15749 -15914697.28147         0.00041  21455841.42747  21455841.14149
  -5891813.22548  -4590975.47645         0.00041  24216443.54145  24216442.77348
  -2528351.13749  -1970141.40748         0.00041  21194162.83148  21194162.60349
 -22594023.76708 -17605717.28208  20681055.93508  20681057.43108         0.00001
 -16467097.42208 -12831480.88208  21606429.13608  21606430.10708         0.00001
  -1065368.00848   -830155.63645         0.00041  24343749.38845  24343747.75348
 94 02 20 04 18 00.0000000  0  7 02 05 07 09 12 13 20
   9366970.01647   7298953.07444         0.00041  25003295.11644  25003296.54547
 -20490162.52049 -15966343.53147         0.00041  21443229.02047  21443228.60549
  -5815112.87148  -4531208.97045         0.00041  24231039.90945  24231039.34748
  -2487631.09649  -1938411.51348         0.00041  21201911.48648  21201911.49249
 -22594782.95508 -17606308.86008  20680911.51408  20680912.94908         0.00001
 -16405381.69108 -12783390.70108  21618173.25908  21618174.22108         0.00001
  -1162302.65348   -905689.04345         0.00041  24325302.80145  24325301.54248
 94 02 20 04 18 30.0000000  0  7 02 05 07 09 12 13 20
   9461987.90647   7372992.19944         0.00041  25021379.90744  25021377.55147
 -20556254.87649 -16017844.06247         0.00041  21430651.89847  21430651.38549
  -5738412.69248  -4471442.59245         0.00041  24245633.70745  24245634.06748
  -2446381.99349  -1906269.36448         0.00041  21209761.08548  21209760.66149
 -22594951.12108 -17606439.90308  20680879.51808  20680880.94608         0.00001
 -16343501.33308 -12735172.23708  21629948.69608  21629949.62008         0.00001
  -1259247.51948   -981230.41645         0.00041  24306853.53845  24306852.55248
 94 02 20 04 19 00.0000000  0  7 02 05 07 09 12 13 20
   9557143.26447   7447138.96444         0.00041  25039488.98244  25039485.08147
 -20622139.98849 -16069183.09547         0.00041  21418114.30047  21418114.04549
  -5661721.82448  -4411683.54245         0.00041  24260230.83745  24260227.31948
  -2404629.47549  -1873734.93748         0.00041  21217706.45348  21217706.03649
 -22594538.59608 -17606118.45608  20680957.95208  20680959.45008         0.00001
 -16281469.47308 -12686835.71908  21641752.94708  21641753.86508         0.00001
  -1356212.30948  -1056787.34345         0.00041  24288403.05845  24288400.71848
 94 02 20 04 19 30.0000000  0  7 02 05 07 09 12 13 20
   9652461.89248   7521413.16844         0.00041  25057615.55744  25057624.24048
 -20687775.86249 -16120327.92747         0.00041  21405623.96347  21405624.06349
  -5585029.18048  -4351923.05245         0.00041  24274823.50445  24274821.95148
  -2362354.35449  -1840793.29148         0.00041  21225750.79648  21225750.71149
 -22593523.47908 -17605327.45908  20681151.10708  20681152.64808         0.00001
 -16219266.64408 -12638365.97908  21653589.77008  21653590.69708         0.00001
  -1453174.37748  -1132342.10145         0.00041  24269949.89445  24269949.93048
 94 02 20 04 20 00.0000000  0  7 02 05 07 09 12 13 20
   9747920.24548   7595796.18844         0.00041  25075794.17544  25075789.90448
 -20753177.52449 -16171290.25648         0.00041  21393178.75648  21393178.44449
  -5508353.70548  -4292175.91146         0.00041  24289413.40046  24289413.70048
  -2319576.88349  -1807460.20548         0.00041  21233891.27548  21233890.91849
 -22591921.15808 -17604078.89708  20681456.04408  20681457.53408         0.00001
 -16156911.03908 -12589777.19308  21665455.66408  21665456.54308         0.00001
  -1550148.32748  -1207906.17345         0.00041  24251496.68345  24251497.14648
 94 02 20 04 20 30.0000000  0  7 02 05 07 09 12 13 20
   9843516.46048   7670286.73244         0.00041  25093981.20144  25093981.10448
 -20818342.94749 -16222068.49848         0.00041  21380778.21748  21380777.83149
  -5431691.00448  -4232438.80145         0.00041  24304002.68145  24304001.46048
  -2276311.31849  -1773746.78948         0.00041  21242124.30748  21242124.01549
 -22589736.27008 -17602376.39108  20681871.82408  20681873.31108         0.00001
 -16094410.02208 -12541075.10508  21677349.17808  21677350.05508         0.00001
  -1647137.89948  -1283482.40745         0.00041  24233041.62745  24233040.84248
 94 02 20 04 21 00.0000000  0  7 02 05 07 09 12 13 20
   9939283.56548   7744910.49944         0.00041  25112205.21344  25112205.45148
 -20883269.28549 -16272660.43948         0.00041  21368423.17148  21368422.80849
  -5355031.58748  -4172704.18845         0.00041  24318590.47345  24318588.80448
  -2232534.23049  -1739634.77948         0.00041  21250454.91948  21250454.86649
 -22586958.26108 -17600211.71208  20682400.47108  20682401.98308         0.00001
 -16031755.08408 -12492253.08008  21689271.96608  21689272.98908         0.00001
  -1744131.40048  -1359061.70945         0.00041  24214583.62245  24214584.05048
 94 02 20 04 21 30.0000000  0  7 02 05 07 09 12 13 20
  10035239.22448   7819681.16744         0.00041  25130466.76844  25130464.96748
 -20947973.51549 -16323079.31248         0.00041  21356110.35448  21356110.11949
  -5278375.60148  -4112972.23945         0.00041  24333177.48145  24333177.06548
  -2188227.02949  -1705109.69848         0.00041  21258886.21848  21258886.16349
 -22583575.55408 -17597575.83908  20683044.21208  20683045.66808         0.00001
 -15968937.49808 -12443304.31608  21701225.73408  21701226.74408         0.00001
  -1841116.38148  -1434634.37845         0.00041  24196128.20445  24196127.63048
 94 02 20 04 22 00.0000000  0  7 02 05 07 09 12 13 20
  10131364.09248   7894583.64844         0.00041  25148756.38444  25148756.94848
 -21012478.45549 -16373342.89848         0.00041  21343835.32048  21343835.26149
  -5201719.89748  -4053240.57446         0.00041  24347765.39846  24347764.39048
  -2143407.97649  -1670185.77848         0.00041  21267415.23848  21267414.88349
 -22579596.16008 -17594475.01808  20683801.41108  20683802.93908         0.00001
 -15905967.72308 -12394236.95908  21713208.47208  21713209.36008         0.00001
  -1938099.86048  -1510205.86145         0.00041  24177673.19645  24177671.49148
 94 02 20 04 22 30.0000000  0  7 02 05 07 09 12 13 20
  10227653.94348   7969614.63744         0.00041  25167075.65444  25167080.45648
 -21076778.58649 -16423446.89048         0.00041  21331599.31048  21331599.36249
  -5125075.39348  -3993517.62545         0.00041  24362349.69445  24362348.79748
  -2098083.60349  -1634868.09748         0.00041  21276039.77148  21276039.85549
 -22575023.24908 -17590911.71308  20684671.55408  20684673.14708         0.00001
 -15842851.41608 -12345055.41908  21725219.08208  21725220.04808         0.00001
  -2035083.95848  -1585777.80045         0.00041  24159217.64545  24159215.67848
 94 02 20 04 23 00.0000000  0  7 02 05 07 09 12 13 20
  10324094.33148   8044762.91444         0.00041  25185434.51044  25185432.22648
 -21140872.80349 -16473390.42948         0.00041  21319402.56548  21319402.58649
  -5048462.51048  -3933819.29345         0.00041  24376928.48845  24376927.48648
  -2052266.90449  -1599166.78648         0.00041  21284758.71448  21284758.49349
 -22569860.76508 -17586889.00308  20685653.93608  20685655.54508         0.00001
 -15779594.78808 -12295764.54108  21737256.38408  21737257.40908         0.00001
  -2132071.46448  -1661352.45846         0.00041  24140759.74346  24140758.81848
 94 02 20 04 23 30.0000000  0  6 05 07 09 12 13 20
 -21204743.40949 -16523159.72448         0.00041  21307248.37048  21307248.29149
  -4971867.48748  -3874134.90545         0.00041  24391503.72945  24391503.60148
  -2005963.04549  -1563085.86648         0.00041  21293570.02348  21293569.85549
 -22564100.21008 -17582400.26408  20686750.15808  20686751.75508         0.00001
 -15716191.66508 -12246359.51108  21749321.55108  21749322.63308         0.00001
  -2229052.73248  -1736922.23346         0.00041  24122304.28046  24122303.41248
 94 02 20 04 24 00.0000000  0  6 05 07 09 12 13 20
 -21268368.57349 -16572737.77048         0.00041  21295140.97048  21295140.75449
  -4895279.64048  -3814456.09845         0.00041  24406077.78445  24406076.30148
  -1959168.26049  -1526622.40548         0.00041  21302474.94948  21302474.71749
 -22557740.81308 -17577444.89608  20687960.28808  20687961.88808         0.00001
 -15652643.69808 -12196841.61408  21761414.33208  21761415.39608         0.00001
  -2326025.95248  -1812485.73645         0.00041  24103851.57745  24103850.49348
 94 02 20 04 24 30.0000000  0  7 05 07 09 12 13 20 24
 -21331747.61649 -16622124.03448         0.00041  21283080.39548  21283080.15149
  -4818709.57448  -3754791.17345         0.00041  24420649.82545  24420647.64748
  -1911875.28049  -1489770.74447         0.00041  21311474.56447  21311474.09749
 -22550790.92308 -17572029.40308  20689282.84108  20689284.38908         0.00001
 -15588961.75308 -12147219.32108  21773532.62208  21773533.59508         0.00001
  -2422998.29048  -1888048.55645         0.00041  24085400.29545  24085398.01048
        -0.87759        -0.05458         0.00051  20450013.76458  20450012.76959
